[[{"header":{"parameterUnit":"m.s-1","parameterCategory":1,"la1":31.0,"la2":29.5877,"lo1":-88.7671,"lo2":-86.6584,"dy":0.0162,"dx":0.0185,"nx":115,"ny":88,"refTime":"2026-04-09T12:00:00:Z","depth":0,"parameterNumber":2,"parameterNumberName":"U-component_of_WINDS"},"data":[0.0,0.0,0.0,0.0,0.0,0.0,0.0,0.0,0.0,0.0,0.0,0.0,0.0,0.0,0.0,0.0,0.0,0.0,0.0,0.0,0.0,0.0,0.0,0.0,0.0,0.0,0.0,0.0,0.0,0.0,0.0,0.0,0.0,0.0,0.0,0.0,0.0,0.0,0.0,0.0,0.0,0.0,0.0,0.0,0.0,0.0,0.0,0.0,0.0,0.0,0.0,0.0,0.0,0.0,0.0,0.0,0.0,0.0,0.0,0.0,0.0,0.0,0.0,0.0,0.0,0.0,0.0,0.0,0.0,0.0,0.0,0.0,0.0,0.0,0.0,0.0,0.0,0.0,0.0,0.0,0.0,0.0,0.0,0.0,0.0,0.0,0.0,0.0,0.0,0.0,0.0,0.0,0.0,0.0,0.0,0.0,0.0,0.0,0.0,0.0,0.0,0.0,0.0,0.0,0.0,0.0,0.0,0.0,0.0,0.0,0.0,0.0,0.0,0.0,0.0,0.0,0.0,0.0,0.0,0.0,0.0,0.0,0.0,0.0,0.0,0.0,0.0,0.0,0.0,0.0,0.0,0.0,0.0,0.0,0.0,0.0,0.0,0.0,0.0,0.0,0.0,0.0,0.0,0.0,0.0,0.0,0.0,0.0,0.0,0.0,0.0,0.0,0.0,0.0,0.0,0.0,0.0,0.0,0.0,0.0,0.0,0.0,0.0,0.0,0.0,0.0,0.0,0.0,0.0,0.0,0.0,0.0,0.0,0.0,0.0,0.0,0.0,0.0,0.0,0.0,0.0,0.0,0.0,0.0,0.0,0.0,0.0,0.0,0.0,0.0,0.0,0.0,0.0,0.0,0.0,0.0,0.0,0.0,0.0,0.0,0.0,0.0,0.0,0.0,0.0,0.0,0.0,0.0,0.0,0.0,0.0,0.0,0.0,0.0,0.0,0.0,0.0,0.0,0.0,0.0,0.0,0.0,0.0,0.0,0.0,0.0,0.0,0.0,0.0,0.0,0.0,0.0,0.0,0.0,0.0,0.0,0.0,0.0,0.0,0.0,0.0,0.0,0.0,0.0,0.0,0.0,0.0,0.0,0.0,0.0,0.0,0.0,0.0,0.0,0.0,0.0,0.0,0.0,0.0,0.0,0.0,0.0,0.0,0.0,0.0,0.0,0.0,0.0,0.0,0.0,0.0,0.0,0.0,0.0,0.0,0.0,0.0,0.0,0.0,0.0,0.0,0.0,0.0,0.0,0.0,0.0,0.0,0.0,0.0,0.0,0.0,0.0,0.0,0.0,0.0,0.0,0.0,0.0,0.0,0.0,0.0,0.0,0.0,0.0,0.0,0.0,0.0,0.0,0.0,0.0,0.0,0.0,0.0,0.0,0.0,0.0,0.0,0.0,0.0,0.0,0.0,0.0,0.0,0.0,0.0,0.0,0.0,0.0,0.0,0.0,0.0,0.0,0.0,0.0,0.0,0.0,0.0,0.0,0.0,0.0,0.0,0.0,0.0,0.0,0.0,0.0,0.0,0.0,0.0,0.0,0.0,0.0,0.0,0.0,0.0,0.0,0.0,0.0,0.0,0.0,0.0,0.0,0.0,0.0,0.0,0.0,0.0,0.0,0.0,0.0,0.0,0.0,0.0,0.0,0.0,0.0,0.0,0.0,0.0,0.0,0.0,0.0,0.0,0.0,0.0,0.0,0.0,0.0,0.0,0.0,0.0,0.0,0.0,0.0,0.0,0.0,0.0,0.0,0.0,0.0,0.0,0.0,0.0,0.0,0.0,0.0,0.0,0.0,0.0,0.0,0.0,0.0,0.0,0.0,0.0,0.0,0.0,0.0,0.0,0.0,0.0,0.0,0.0,0.0,0.0,0.0,0.0,0.0,0.0,0.0,0.0,0.0,0.0,0.0,0.0,0.0,0.0,0.0,0.0,0.0,0.0,0.0,0.0,0.0,0.0,0.0,0.0,0.0,0.0,0.0,0.0,0.0,0.0,0.0,0.0,0.0,0.0,0.0,0.0,0.0,0.0,0.0,0.0,0.0,0.0,0.0,0.0,0.0,0.0,0.0,0.0,0.0,0.0,0.0,0.0,0.0,0.0,0.0,0.0,0.0,0.0,0.0,0.0,0.0,0.0,0.0,0.0,0.0,0.0,0.0,0.0,0.0,0.0,0.0,0.0,0.0,0.0,0.0,0.0,0.0,0.0,0.0,0.0,0.0,0.0,0.0,0.0,0.0,0.0,0.0,0.0,0.0,0.0,0.0,0.0,0.0,0.0,0.0,0.0,0.0,0.0,0.0,0.0,0.0,0.0,0.0,0.0,0.0,0.0,0.0,0.0,0.0,0.0,0.0,0.0,0.0,0.0,0.0,0.0,0.0,0.0,0.0,0.0,0.0,0.0,0.0,0.0,0.0,0.0,0.0,0.0,0.0,0.0,0.0,0.0,0.0,0.0,0.0,0.0,0.0,0.0,0.0,0.0,0.0,0.0,0.0,0.0,0.0,0.0,0.0,0.0,0.0,0.0,0.0,0.0,0.0,0.0,0.0,0.0,0.0,0.0,0.0,0.0,0.0,0.0,0.0,0.0,0.0,0.0,0.0,0.0,0.0,0.0,0.0,0.0,0.0,0.0,0.0,0.0,0.0,0.0,0.0,0.0,0.0,0.0,0.0,0.0,0.0,0.0,0.0,0.0,0.0,0.0,0.0,0.0,0.0,0.0,0.0,0.0,0.0,0.0,0.0,0.0,0.0,0.0,0.0,0.0,0.0,0.0,0.0,0.0,0.0,0.0,0.0,0.0,0.0,0.0,0.0,0.0,0.0,0.0,0.0,0.0,0.0,0.0,0.0,0.0,0.0,0.0,0.0,0.0,0.0,0.0,0.0,0.0,0.0,0.0,0.0,0.0,0.0,0.0,0.0,0.0,0.0,0.0,0.0,0.0,0.0,0.0,0.0,0.0,0.0,0.0,0.0,0.0,0.0,0.0,0.0,0.0,0.0,0.0,0.0,0.0,0.0,0.0,0.0,0.0,0.0,0.0,0.0,0.0,0.0,0.0,0.0,0.0,0.0,0.0,0.0,0.0,0.0,0.0,0.0,0.0,0.0,0.0,0.0,0.0,0.0,0.0,0.0,0.0,0.0,0.0,0.0,0.0,0.0,0.0,0.0,0.0,0.0,0.0,0.0,0.0,0.0,0.0,0.0,0.0,0.0,0.0,0.0,0.0,0.0,0.0,0.0,0.0,0.0,0.0,0.0,0.0,0.0,0.0,0.0,0.0,0.0,0.0,0.0,0.0,0.0,0.0,0.0,0.0,0.0,0.0,0.0,0.0,0.0,0.0,0.0,0.0,0.0,0.0,0.0,0.0,0.0,0.0,0.0,0.0,0.0,0.0,0.0,0.0,0.0,0.0,0.0,0.0,0.0,0.0,0.0,0.0,0.0,0.0,0.0,0.0,0.0,0.0,0.0,0.0,0.0,0.0,0.0,0.0,0.0,0.0,0.0,0.0,0.0,0.0,0.0,0.0,0.0,0.0,0.0,0.0,0.0,0.0,0.0,0.0,0.0,0.0,0.0,0.0,0.0,0.0,0.0,0.0,0.0,0.0,0.0,0.0,0.0,0.0,0.0,0.0,0.0,0.0,0.0,0.0,0.0,0.0,0.0,0.0,0.0,0.0,0.0,0.0,0.0,0.0,0.0,0.0,0.0,0.0,0.0,0.0,0.0,0.0,0.0,0.0,0.0,0.0,0.0,0.0,0.0,0.0,0.0,0.0,0.0,0.0,0.0,0.0,0.0,0.0,0.0,0.0,0.0,0.0,0.0,0.0,0.0,0.0,0.0,0.0,0.0,0.0,0.0,0.0,0.0,0.0,0.0,0.0,0.0,0.0,0.0,0.0,0.0,0.0,0.0,0.0,0.0,0.0,0.0,0.0,0.0,0.0,0.0,0.0,0.0,0.0,0.0,0.0,0.0,0.0,0.0,0.0,0.0,0.0,0.0,0.0,0.0,0.0,0.0,0.0,0.0,0.0,0.0,0.0,0.0,0.0,0.0,0.0,0.0,0.0,0.0,0.0,0.0,0.0,0.0,0.0,0.0,0.0,0.0,0.0,0.0,0.0,0.0,0.0,0.0,0.0,0.0,0.0,0.0,0.0,0.0,0.0,0.0,0.0,0.0,0.0,0.0,0.0,0.0,0.0,0.0,0.0,0.0,0.0,0.0,0.0,0.0,0.0,0.0,0.0,0.0,0.0,0.0,0.0,0.0,0.4788,0.0,0.0,0.0,0.0,0.0,0.0,0.0,0.0,0.0,0.0,0.0,0.0,0.0,0.0,0.0,0.0,0.0,0.0,0.0,0.0,0.0,0.0,0.0,0.0,0.0,0.0,0.0,0.0,0.0,0.0,0.0,0.0,0.0,0.0,0.0,0.0,0.0,0.0,0.0,0.0,0.0,0.0,0.0,0.0,0.0,0.0,0.0,0.0,0.0,0.0,0.0,0.0,0.0,0.0,0.0,0.0,0.0,0.0,0.0,0.0,0.0,0.0,0.0,0.0,0.0,0.0,0.0,0.0,0.0,0.0,0.0,0.0,0.0,0.0,0.0,0.0,0.0,0.0,0.0,0.0,0.0,0.0,0.0,0.0,0.0,0.0,0.0,0.0,0.0,0.0,0.0,0.0,0.0,0.0,0.0,0.0,0.0,0.0,0.0,0.0,0.0,0.0,0.0,0.0,0.0,0.0,0.0,0.0,0.0,0.0,0.4815,0.4752,0.474,0.4757,0.4762,0.0,0.0,0.0,0.0,0.0,0.0,0.0,0.0,0.0,0.0,0.0,0.0,0.0,0.0,0.0,0.0,0.0,0.0,0.0,0.0,0.0,0.0,0.0,0.0,0.0,0.0,0.0,0.0,0.0,0.0,0.0,0.0,0.0,0.0,0.0,0.0,0.0,0.0,0.0,0.0,0.0,0.0,0.0,0.0,0.0,0.0,0.0,0.0,0.0,0.0,0.0,0.0,0.0,0.0,0.0,0.0,0.0,0.0,0.0,0.0,0.0,0.0,0.0,0.0,0.0,0.0,0.0,0.0,0.0,0.0,0.0,0.0,0.0,0.0,0.0,0.0,0.0,0.0,0.0,0.0,0.0,0.0,0.0,0.0,0.0,0.0,0.0,0.0,0.0,0.0,0.0,0.0,0.0,0.0,0.0,0.0,0.0,0.0,0.0,0.0,0.0,0.0,0.0,0.0,0.0,0.0,0.0,0.0,0.0,0.0,0.0,0.0,0.4951,0.4955,0.4959,0.0,0.0,0.0,0.0,0.0,0.0,0.0,0.0,0.0,0.0,0.0,0.0,0.0,0.0,0.0,0.0,0.0,0.0,0.0,0.0,0.0,0.0,0.0,0.0,0.0,0.0,0.0,0.0,0.0,0.0,0.0,0.0,0.0,0.0,0.0,0.0,0.0,0.0,0.0,0.0,0.0,0.0,0.0,0.0,0.0,0.0,0.0,0.0,0.0,0.0,0.0,0.0,0.0,0.0,0.0,0.0,0.0,0.0,0.0,0.0,0.0,0.0,0.0,0.0,0.0,0.0,0.0,0.0,0.0,0.0,0.0,0.0,0.0,0.0,0.0,0.0,0.0,0.0,0.0,0.0,0.0,0.0,0.0,0.0,0.0,0.0,0.0,0.0,0.0,0.0,0.0,0.0,0.0,0.0,0.0,0.0,0.0,0.0,0.0,0.0,0.0,0.0,0.0,0.0,0.0,0.0,0.0,0.0,0.0,0.0,0.5159,0.5874,0.5756,0.0,0.5738,0.0,0.0,0.0,0.0,0.0,0.0,0.0,0.0,0.0,0.0,0.0,0.0,0.0,0.0,0.0,0.0,0.0,0.0,0.0,0.0,0.0,0.0,0.0,0.0,0.0,0.0,0.0,0.0,0.0,0.0,0.0,0.0,0.0,0.0,0.0,0.0,0.0,0.0,0.0,0.0,0.0,0.0,0.0,0.0,0.0,0.0,0.0,0.0,0.0,0.0,0.0,0.0,0.0,0.0,0.0,0.0,0.0,0.0,0.0,0.0,0.0,0.0,0.0,0.0,0.0,0.0,0.0,0.0,0.0,0.0,0.0,0.0,0.0,0.0,0.0,0.0,0.0,0.0,0.0,0.0,0.0,0.0,0.0,0.0,0.0,0.0,0.0,0.0,0.0,0.0,0.0,0.0,0.0,0.0,0.0,0.0,0.0,0.0,0.0,0.0,0.0,0.0,0.0,0.0,0.0,0.0,0.0,0.0,0.0,0.0,0.0,0.5887,0.5775,0.5725,0.0,0.0,0.0,0.0,0.0,0.0,0.0,0.0,0.0,0.0,0.0,0.0,0.0,0.0,0.0,0.0,0.0,0.0,0.0,0.0,0.0,0.0,0.0,0.0,0.0,0.0,0.0,0.0,0.0,0.0,0.0,0.0,0.0,0.0,0.0,0.0,0.0,0.0,0.0,0.0,0.0,0.0,0.0,0.0,0.0,0.0,0.0,0.0,0.0,0.0,0.0,0.0,0.0,0.0,0.0,0.0,0.0,0.0,0.0,0.0,0.0,0.0,0.0,0.0,0.0,0.0,0.0,0.0,0.0,0.0,0.0,0.0,0.0,0.0,0.0,0.0,0.0,0.0,0.0,0.0,0.0,0.0,0.0,0.0,0.0,0.0,0.0,0.0,0.0,0.0,0.0,0.0,0.0,0.0,0.0,0.0,0.0,0.0,0.0,0.0,0.0,0.0,0.0,0.0,0.0,0.0,0.0,0.0,0.0,0.0,0.5779,0.0,0.6107,0.6061,0.5918,0.5707,0.0,0.0,0.0,0.0,0.0,0.0,0.0,0.0,0.0,0.0,0.0,0.0,0.0,0.0,0.0,0.0,0.0,0.0,0.0,0.0,0.0,0.0,0.0,0.0,0.0,0.0,0.0,0.0,0.0,0.0,0.0,0.0,0.0,0.0,0.0,0.0,0.0,0.0,0.0,0.0,0.0,0.0,0.0,0.0,0.0,0.0,0.0,0.0,0.0,0.0,0.0,0.0,0.0,0.0,0.0,0.0,0.0,0.0,0.0,0.0,0.0,0.0,0.0,0.0,0.0,0.0,0.0,0.0,0.0,0.0,0.0,0.0,0.0,0.0,0.0,0.0,0.0,0.0,0.0,0.0,0.0,0.0,0.0,0.0,0.0,0.0,0.0,0.0,0.0,0.0,0.0,0.0,0.0,0.0,0.0,0.0,0.0,0.0,0.0,0.0,0.0,0.0,0.0,0.0,0.0,0.0,0.0,0.0,0.0,0.6264,0.6135,0.6831,0.6824,0.6501,0.0,0.0,0.0,0.0,0.0,0.0,0.0,0.0,0.0,0.0,0.0,0.0,0.0,0.0,0.0,0.0,0.0,0.0,0.0,0.0,0.0,0.0,0.0,0.0,0.0,0.0,0.0,0.0,0.0,0.0,0.0,0.0,0.0,0.0,0.0,0.0,0.0,0.0,0.0,0.0,0.0,0.0,0.0,0.0,0.0,0.0,0.0,0.0,0.0,0.0,0.0,0.0,0.0,0.0,0.0,0.0,0.0,0.0,0.0,0.0,0.0,0.0,0.0,0.0,0.0,0.0,0.0,0.0,0.0,0.0,0.0,0.0,0.0,0.0,0.0,0.0,0.0,0.0,0.0,0.0,0.0,0.0,0.0,0.0,0.0,0.0,0.0,0.0,0.0,0.0,0.0,0.0,0.0,0.0,0.0,0.0,0.0,0.0,0.0,0.0,0.0,0.0,0.0,0.0,0.0,0.0,0.0,0.0,0.0,0.5664,0.5774,0.6376,0.7502,0.6642,0.6193,0.0,0.0,0.0,0.0,0.0,0.0,0.0,0.0,0.0,0.0,0.0,0.0,0.0,0.0,0.0,0.0,0.0,0.0,0.0,0.0,0.0,0.0,0.0,0.0,0.0,0.0,0.0,0.0,0.0,0.0,0.0,0.0,0.0,0.0,0.0,0.0,0.0,0.0,0.0,0.0,0.0,0.0,0.0,0.0,0.0,0.0,0.0,0.0,0.0,0.0,0.0,0.0,0.0,0.0,0.0,0.0,0.0,0.0,0.0,0.0,0.0,0.0,0.0,0.0,0.0,0.0,0.0,0.0,0.0,0.0,0.0,0.0,0.0,0.0,0.0,0.0,0.0,0.0,0.0,0.0,0.0,0.0,0.0,0.0,0.0,0.0,0.0,0.0,0.0,0.0,0.0,0.0,0.0,0.0,0.0,0.0,0.0,0.0,0.0,0.0,0.0,0.0,0.0,0.0,0.0,0.0,0.0,0.0,0.0,0.5483,0.0,0.6892,0.0,0.6616,0.6081,0.0,0.0,0.0,0.0,0.0,0.0,0.0,0.0,0.0,0.0,0.0,0.0,0.0,0.0,0.0,0.0,0.0,0.0,0.0,0.0,0.0,0.0,0.0,0.0,0.0,0.0,0.0,0.0,0.0,0.0,0.0,0.0,0.0,0.0,0.0,0.0,0.0,0.0,0.0,0.0,0.0,0.0,0.0,0.0,0.0,0.0,0.0,0.0,0.0,0.0,0.0,0.0,0.0,0.0,0.0,0.0,0.0,0.0,0.0,0.0,0.0,0.0,0.0,0.0,0.0,0.0,0.0,0.0,0.0,0.0,0.0,0.0,0.0,0.0,0.0,0.0,0.0,0.0,0.0,0.0,0.0,0.0,0.0,0.0,0.0,0.0,0.0,0.0,0.0,0.0,0.0,0.0,0.0,0.0,0.0,0.0,0.0,0.0,0.0,0.0,0.0,0.0,0.0,0.0,0.0,0.0,0.0,0.0,0.5492,0.6806,0.7618,0.7654,0.6841,0.677,0.6074,0.0,0.0,0.0,0.0,0.0,0.0,0.0,0.0,0.0,0.0,0.0,0.0,0.0,0.0,0.0,0.0,0.0,0.0,0.0,0.0,0.0,0.0,0.0,0.0,0.0,0.0,0.0,0.0,0.0,0.0,0.0,0.0,0.0,0.0,0.0,0.0,0.0,0.0,0.0,0.0,0.0,0.0,0.0,0.0,0.0,0.0,0.0,0.0,0.0,0.0,0.0,0.0,0.0,0.0,0.0,0.0,0.0,0.0,0.0,0.0,0.0,0.0,0.0,0.0,0.0,0.0,0.0,0.0,0.0,0.0,0.0,0.0,0.0,0.0,0.0,0.0,0.0,0.0,0.0,0.0,0.0,0.0,0.0,0.0,0.0,0.0,0.0,0.0,0.0,0.0,0.0,0.0,0.0,0.0,0.0,0.0,0.0,0.0,0.0,0.0,0.0,0.0,0.0,0.0,0.0,0.0,0.0,0.0,0.0,0.6191,0.7382,0.789,0.7534,0.6586,0.6031,0.0,0.0,0.0,0.0,0.0,0.0,0.0,0.0,0.0,0.0,0.0,0.0,0.0,0.0,0.0,0.0,0.0,0.0,0.0,0.0,0.0,0.0,0.0,0.0,0.0,0.0,0.0,0.0,0.0,0.0,0.0,0.0,0.0,0.0,0.0,0.0,0.0,0.0,0.0,0.0,0.0,0.0,0.0,0.0,0.0,0.0,0.0,0.0,0.0,0.0,0.0,0.0,0.0,0.0,0.0,0.0,0.0,0.0,0.0,0.0,0.0,0.0,0.0,0.0,0.0,0.0,0.0,0.0,0.0,0.0,0.0,0.0,0.0,0.0,0.0,0.0,0.0,0.0,0.0,0.0,0.0,0.0,0.0,0.0,0.0,0.0,0.0,0.0,0.0,0.0,0.0,0.0,0.0,0.0,0.0,0.0,0.0,0.0,0.0,0.0,0.0,0.0,0.0,0.0,0.0,0.0,0.0,0.0,0.0,0.753,0.8383,0.8553,0.7905,0.6995,0.6622,0.6777,0.0,0.0,0.0,0.0,0.0,0.0,0.0,0.0,0.0,0.0,0.0,0.0,0.0,0.0,0.0,0.0,0.0,0.0,0.0,0.0,0.0,0.0,0.0,0.0,0.0,0.0,0.0,0.0,0.0,0.0,0.0,0.0,0.0,0.0,0.0,0.0,0.0,0.0,0.0,0.0,0.0,0.0,0.0,0.0,0.0,0.0,0.0,0.0,0.0,0.0,0.0,0.0,0.0,0.0,0.0,0.0,0.0,0.0,0.0,0.0,0.0,0.0,0.0,0.0,0.0,0.0,0.0,0.0,0.0,0.0,0.0,0.0,0.0,0.0,0.0,0.0,0.0,0.0,0.0,0.0,0.0,0.0,0.0,0.0,0.0,0.0,0.0,0.0,0.0,0.0,0.0,0.0,0.0,0.0,0.0,0.0,0.0,0.0,0.0,0.0,0.0,0.0,0.0,0.0,0.0,0.0,0.0,0.0,1.0216,1.0334,0.9595,0.8091,0.7926,0.7583,0.0,0.0,0.0,0.0,0.0,0.0,0.0,0.0,0.0,0.0,0.0,0.0,0.0,0.0,0.0,0.0,0.0,0.0,0.0,0.0,0.0,0.0,0.0,0.0,0.0,0.0,0.0,0.0,0.0,0.0,0.0,0.0,0.0,0.0,0.0,0.0,0.0,0.0,0.0,0.0,0.0,0.0,0.0,0.0,0.0,0.0,0.0,0.0,0.0,0.0,0.0,0.0,0.0,0.0,0.0,0.0,0.0,0.0,0.0,0.0,0.0,0.0,0.0,0.0,0.0,0.0,0.0,0.0,0.0,0.0,0.0,0.0,0.0,0.0,0.0,0.0,0.0,0.0,0.0,0.0,0.0,0.0,0.0,0.0,0.0,0.0,0.0,0.0,0.0,0.0,0.0,0.0,0.0,0.0,0.0,0.0,0.0,0.0,0.0,0.0,0.0,0.0,0.0,0.0,0.0,0.0,0.0,0.0,0.0,0.9553,1.0536,1.0579,0.9478,0.8442,0.7795,0.0,0.0,0.0,0.0,0.0,0.0,0.0,0.0,0.0,0.0,0.0,0.0,0.0,0.0,0.0,0.0,0.0,0.0,0.0,0.0,0.0,0.0,0.0,0.0,0.0,0.0,0.0,0.0,0.0,0.0,0.0,0.0,0.0,0.0,0.0,0.0,0.0,0.0,0.0,0.0,0.0,0.0,0.0,0.0,0.0,0.0,0.0,0.0,0.0,0.0,0.0,0.0,0.0,0.0,0.0,0.0,0.0,0.0,0.0,0.0,0.0,0.0,0.0,0.0,0.0,0.0,0.0,0.0,0.0,0.0,0.0,0.0,0.0,0.0,0.0,0.0,0.0,0.0,0.0,0.0,0.0,0.0,0.0,0.0,0.0,0.0,0.0,0.0,0.0,0.0,0.0,0.0,0.0,0.0,0.0,0.0,0.0,0.0,0.0,0.0,0.0,0.0,0.0,0.0,0.0,0.0,0.0,0.0,0.9895,1.0129,1.0625,1.0758,1.0505,0.937,0.8641,0.0,0.0,0.0,0.0,0.0,0.0,0.0,0.0,0.0,0.0,0.0,0.0,0.0,0.0,0.0,0.0,0.0,0.0,0.0,0.0,0.0,0.0,0.0,0.0,0.0,0.0,0.0,0.0,0.0,0.0,0.0,0.0,0.0,0.0,0.0,0.0,0.0,0.0,0.0,0.0,0.0,0.0,0.0,0.0,0.0,0.0,0.0,0.0,0.0,0.0,0.0,0.0,0.0,0.0,0.0,0.0,0.0,0.0,0.0,0.0,0.0,0.0,0.0,0.0,0.0,0.0,0.0,0.0,0.0,0.0,0.0,0.0,0.0,0.0,0.0,0.0,0.0,0.0,0.0,0.0,0.0,0.0,0.0,0.0,0.0,0.0,0.0,0.0,0.0,0.0,0.0,0.0,0.0,0.0,0.0,0.0,0.0,0.0,0.0,0.0,0.0,0.0,0.0,0.0,0.0,0.0,0.0,0.0,1.0017,1.1125,1.0607,1.0583,1.1026,1.0307,0.9692,0.0,0.0,0.0,0.0,0.0,0.0,0.0,0.0,0.0,0.0,0.0,0.0,0.0,0.0,0.0,0.0,0.0,0.0,0.0,0.0,0.0,0.0,0.0,0.0,0.0,0.0,0.0,0.0,0.0,0.0,0.0,0.0,0.0,0.0,0.0,0.0,0.0,0.0,0.0,0.0,0.0,0.0,0.0,0.0,0.0,0.0,0.0,0.0,0.0,0.0,0.0,0.0,0.0,0.0,0.0,0.0,0.0,0.0,0.0,0.0,0.0,0.0,0.0,0.0,0.0,0.0,0.0,0.0,0.0,0.0,0.0,0.0,0.0,0.0,0.0,0.0,0.0,0.0,0.0,0.0,0.0,0.0,0.0,0.0,0.0,0.0,0.0,0.0,0.0,0.0,0.0,0.0,0.0,0.0,0.0,0.0,0.0,0.0,0.0,0.0,0.0,0.0,0.0,0.0,0.0,0.0,0.0,0.0,1.105,0.9642,1.061,1.0854,1.0263,0.9549,0.9401,0.0,0.0,0.0,0.0,0.0,0.0,0.0,0.0,0.0,0.0,0.0,0.0,0.0,0.0,0.0,0.0,0.0,0.0,0.0,0.0,0.0,0.0,0.0,0.0,0.0,0.0,0.0,0.0,0.0,0.0,0.0,0.0,0.0,0.0,0.0,0.0,0.0,0.0,0.0,0.0,0.0,0.0,0.0,0.0,0.0,0.0,0.0,0.0,0.8431,0.0,0.0,0.0,0.0,0.0,0.0,0.0,0.0,0.0,0.0,0.0,0.0,0.0,0.0,0.0,0.0,0.0,0.0,0.0,0.0,0.0,0.0,0.0,0.0,0.0,0.0,0.0,0.0,0.0,0.0,0.0,0.0,0.0,0.0,0.0,0.0,0.0,0.0,0.0,0.0,0.0,0.0,0.0,0.0,0.0,0.0,0.0,0.0,0.0,0.0,0.0,0.0,0.0,0.0,0.0,0.0,0.0,0.0,0.0,1.0808,0.9703,1.0431,1.078,1.0632,0.9469,0.9197,0.0,0.0,0.0,0.0,0.0,0.0,0.0,0.0,0.0,0.0,0.0,0.0,0.0,0.0,0.0,0.0,0.0,0.0,0.0,0.0,0.0,0.0,0.0,0.0,0.0,0.0,0.0,0.0,0.0,0.0,0.0,0.0,0.0,0.0,0.0,0.0,0.0,0.0,0.0,0.0,0.0,0.0,0.0,0.0,0.0,0.0,0.0,0.0,0.0,0.0,0.0,0.0,0.0,0.0,0.0,0.0,0.0,0.0,0.0,0.0,0.0,0.0,0.0,0.0,0.0,0.0,0.0,0.0,0.0,0.0,0.0,0.0,0.0,0.0,0.0,0.0,0.0,0.0,0.0,0.0,0.0,0.0,0.0,0.0,0.0,0.0,0.0,0.0,0.0,0.0,0.0,0.0,0.0,0.0,0.0,0.0,0.0,0.0,0.0,0.0,0.0,0.0,0.0,0.0,0.0,0.0,0.0,1.0014,1.0321,1.0221,1.0183,1.0548,1.1273,0.9733,0.9234,0.9958,0.0,0.0,0.0,0.0,0.0,0.0,0.0,0.0,0.0,0.0,0.0,0.0,0.0,0.0,0.0,0.0,0.0,0.0,0.0,0.0,0.0,0.0,0.0,0.0,0.0,0.0,0.0,0.0,0.0,0.0,0.0,0.0,0.0,0.0,0.0,0.0,0.0,0.0,0.8074,1.0146,0.0,0.0,0.0,0.0,0.0,0.0,0.0,0.0,1.1337,0.0,0.0,0.0,0.0,0.0,0.0,0.0,0.0,0.0,0.0,0.0,0.0,0.0,0.0,0.0,0.0,0.0,0.0,0.0,0.0,0.0,0.0,0.0,0.0,0.0,0.0,0.0,0.0,0.0,0.0,0.0,0.0,0.0,0.0,0.0,0.0,0.0,0.0,0.0,0.0,0.0,0.0,0.0,0.0,0.0,0.0,0.0,0.0,0.0,0.0,0.0,0.0,0.0,0.0,0.0,0.0,1.0019,1.0817,1.0886,1.0215,1.0183,1.0458,1.0933,1.0092,0.9903,1.0367,0.0,0.0,0.0,0.0,0.0,0.0,0.0,0.0,0.0,0.0,0.0,0.0,0.0,0.0,0.0,0.0,0.0,0.0,0.0,0.0,0.0,0.0,0.0,0.0,0.0,0.0,0.0,0.0,0.0,0.0,0.0,0.0,0.0,0.0,0.0,0.0,0.0,0.0,0.0,1.2175,1.3328,0.0,0.0,0.0,0.0,0.0,0.0,0.0,0.0,1.3109,0.0,0.0,0.0,0.0,0.0,0.0,0.0,0.0,0.0,0.0,0.0,0.0,0.0,0.0,0.0,0.0,0.0,0.0,0.0,0.0,0.0,0.0,0.0,0.0,0.0,0.0,0.0,0.0,0.0,0.0,0.0,0.0,0.0,0.0,0.0,0.0,0.0,0.0,0.0,0.0,0.0,0.0,0.0,0.0,0.0,0.0,0.0,0.0,0.0,0.0,0.0,0.0,0.0,0.0,0.0,1.0676,1.0437,1.036,1.0625,0.9862,0.9914,1.0755,0.9676,0.956,0.0,0.0,0.0,0.0,0.0,0.0,0.0,0.0,0.0,0.0,0.0,0.0,0.0,0.0,0.0,0.0,0.0,0.0,0.0,0.0,0.0,0.0,0.0,0.0,0.0,0.0,0.0,0.0,0.0,0.0,0.0,0.0,0.0,0.0,0.0,0.0,0.0,0.0,0.0,0.0,1.2602,1.3643,1.3704,0.0,0.0,0.0,0.0,0.0,0.0,1.2837,1.35,0.0,0.0,0.0,0.0,0.0,0.0,0.0,0.0,0.0,0.0,0.0,0.0,0.0,0.0,0.0,0.0,0.0,0.0,0.0,0.0,0.0,0.0,0.0,0.0,0.0,0.0,0.0,0.0,0.0,0.0,0.0,0.0,0.0,0.0,0.0,0.0,0.0,0.0,0.0,0.0,0.0,0.0,0.0,0.0,0.0,0.0,0.0,0.0,0.0,0.0,0.0,0.0,0.0,0.0,0.0,1.1149,0.9824,0.9741,1.111,0.9635,0.9451,1.0811,0.9379,0.9233,0.0,0.0,0.0,0.0,0.0,0.0,0.0,0.0,0.0,0.0,0.0,0.0,0.0,0.0,0.0,0.0,0.0,0.0,0.0,0.0,0.0,0.0,0.0,0.0,0.0,0.0,0.0,0.0,0.0,0.0,0.0,0.0,0.0,0.0,0.0,0.0,0.0,0.0,0.0,0.0,0.0,1.3803,1.3915,1.369,0.0,0.0,0.0,0.0,1.2592,1.3569,0.0,0.0,0.0,0.0,0.0,0.0,0.0,0.0,0.0,0.0,0.0,0.0,0.0,0.0,0.0,0.0,0.0,0.0,0.0,0.0,0.0,0.0,0.0,0.0,0.0,0.0,0.0,0.0,0.0,0.0,0.0,0.0,0.0,0.0,0.0,0.0,0.0,0.0,0.0,0.0,0.0,0.0,0.0,0.0,0.0,0.0,0.0,0.0,0.0,0.0,0.0,0.0,0.0,0.0,0.0,0.0,1.0958,0.9577,0.9733,1.1596,0.9776,0.9612,1.1407,1.0047,0.9615,0.0,0.0,0.0,0.0,0.0,0.0,0.0,0.0,0.0,0.0,0.0,0.0,0.0,0.0,0.0,0.0,0.0,0.0,0.0,0.0,0.0,0.0,0.0,0.0,0.0,0.0,0.0,0.0,0.0,0.0,0.0,0.0,0.0,0.0,0.0,0.0,0.0,0.0,0.0,0.0,0.0,1.4694,1.4604,1.3999,1.3805,0.0,0.0,0.0,1.4098,1.4322,0.0,0.0,0.0,0.0,0.0,0.0,0.0,0.0,0.0,0.0,0.0,0.0,0.0,0.0,0.0,0.0,0.0,0.0,0.0,0.0,0.0,0.0,0.0,0.0,0.0,0.0,0.0,0.0,0.0,0.0,0.0,0.0,0.0,0.0,0.0,0.0,0.0,0.0,0.0,0.0,0.0,0.0,0.0,0.0,0.0,0.0,0.0,0.0,0.0,0.0,0.0,0.0,0.0,0.0,0.0,0.7863,1.0229,0.9587,0.9826,1.1015,1.0146,1.0192,1.1272,0.9961,0.9574,0.0,0.0,0.0,0.0,0.0,0.0,0.0,0.0,0.0,0.0,0.0,0.0,0.0,0.0,0.0,0.0,0.0,0.0,0.0,0.0,0.0,0.0,0.0,0.0,0.0,0.0,0.0,0.0,0.0,0.0,0.0,0.0,0.0,0.0,0.0,0.0,0.0,0.0,0.0,0.0,0.0,0.0,1.4711,1.483,0.0,0.0,0.0,1.4184,1.5722,0.0,0.0,0.0,0.0,0.0,0.0,0.0,0.0,0.0,0.0,0.0,0.0,0.0,0.0,0.0,0.0,0.0,0.0,0.0,0.0,0.0,0.0,0.0,0.0,0.0,0.0,0.0,0.0,0.0,0.0,0.0,0.0,0.0,0.0,0.0,0.0,0.0,0.0,0.0,0.0,0.0,0.0,0.0,0.0,0.0,0.0,0.0,0.0,0.0,0.0,0.0,0.0,0.0,0.0,0.0,0.0,0.0,0.9676,0.9581,0.9891,1.0669,1.0456,1.0695,1.1328,0.9916,0.0,0.0,0.0,0.0,0.0,0.0,0.0,0.0,0.0,0.0,0.0,0.0,0.0,0.0,0.0,0.0,0.0,0.0,0.0,0.0,0.0,0.0,0.0,0.0,0.0,0.0,0.0,0.4904,0.0,0.0,0.0,0.0,0.0,0.0,0.0,0.0,0.0,0.0,0.0,0.0,0.0,0.0,1.5176,1.5318,1.5847,1.616,0.0,0.0,1.5594,1.6742,1.8138,1.8407,0.0,0.0,0.0,0.0,0.0,0.0,0.0,0.0,0.0,0.0,0.0,0.0,0.0,0.0,0.0,0.0,0.0,0.0,0.0,0.0,0.0,0.0,0.0,0.0,0.0,0.0,0.0,0.0,0.0,0.0,0.0,0.0,0.0,0.0,0.0,0.0,0.0,0.0,0.0,0.0,0.0,0.0,0.0,0.0,0.0,0.0,0.0,0.0,0.0,0.0,0.0,0.0,0.0,0.0,0.0,0.9425,0.9351,0.9897,1.1165,1.055,1.0811,1.2051,1.0167,0.9443,0.0,0.0,0.0,0.0,0.0,0.0,0.0,0.0,0.0,0.0,0.0,0.0,0.0,0.0,0.0,0.0,0.0,0.0,0.0,0.0,0.0,0.0,0.0,0.0,0.0,0.0,0.0,0.0,0.0,0.0,0.0,0.0,0.0,0.0,0.0,0.0,0.0,0.0,0.0,0.0,0.0,1.6258,1.6954,1.7025,1.6981,0.0,0.0,1.6818,1.6722,1.8052,1.8073,1.4991,0.0,0.0,0.0,0.0,0.0,0.0,0.0,0.0,0.0,0.0,0.0,0.0,0.0,0.0,0.0,0.0,0.0,0.0,0.0,0.0,0.0,0.0,0.0,0.0,0.0,0.0,0.0,0.0,0.0,0.0,0.0,0.0,0.0,0.0,0.0,0.0,0.0,0.0,0.0,0.0,0.0,0.0,0.0,0.0,0.0,0.0,0.0,0.0,0.0,0.0,0.0,0.0,0.0,0.7649,0.9304,1.0035,1.062,1.1159,1.134,1.148,1.1507,1.0646,1.0153,0.0,0.0,0.0,0.0,0.0,0.0,0.0,0.0,0.0,0.0,0.0,0.0,0.0,0.0,0.0,0.0,0.0,0.0,0.0,0.0,0.0,0.0,0.0,0.0,0.0,0.0,0.0,0.0,0.6131,0.6627,0.717,0.0,0.0,0.0,0.0,0.0,0.0,0.0,0.0,0.0,0.0,1.6103,1.6295,1.7253,0.0,0.0,1.8049,1.8408,1.8225,1.8697,1.8697,1.7461,1.5607,0.0,0.0,0.0,0.0,0.0,0.0,0.0,0.0,0.0,0.0,0.0,0.0,0.0,0.0,0.0,0.0,0.0,0.0,0.0,0.0,0.0,0.0,0.0,0.0,0.0,0.0,0.0,0.0,0.0,0.0,0.0,0.0,0.0,0.0,0.0,0.0,0.0,0.0,0.0,0.0,0.0,0.0,0.0,0.0,0.0,0.0,0.0,0.0,0.0,0.0,0.0,0.0,0.8035,0.9142,1.0453,1.1103,1.1103,1.1825,1.1948,1.1441,1.1075,1.06,0.0,0.0,0.0,0.0,0.0,0.0,0.0,0.0,0.0,0.0,0.0,0.0,0.0,0.0,0.0,0.0,0.0,0.0,0.0,0.0,0.0,0.0,0.0,0.0,0.0,0.0,0.0,0.0,0.7017,0.7626,0.825,0.0,0.0,0.0,0.0,0.0,0.0,0.0,0.0,0.0,0.0,1.66,1.7191,1.8325,1.9105,1.9091,1.9234,1.9315,1.9133,1.9095,1.8801,1.7823,0.0,0.0,0.0,0.0,0.0,0.0,0.0,0.0,0.0,0.0,0.0,0.0,0.0,0.0,0.0,0.0,0.0,0.0,0.0,0.0,0.0,0.0,0.0,0.0,0.0,0.0,0.0,0.0,0.0,0.0,0.0,0.0,0.0,0.0,0.0,0.0,0.0,0.0,0.0,0.0,0.0,0.0,0.0,0.0,0.0,0.0,0.0,0.0,0.0,0.0,0.0,0.0,0.0,0.0,0.9119,1.0457,1.1133,1.1129,1.182,1.2169,1.2097,1.1333,1.0584,0.9909,0.0,0.0,0.0,0.0,0.0,0.0,0.0,0.0,0.0,0.0,0.0,0.0,0.0,0.0,0.0,0.0,0.0,0.0,0.0,0.0,0.0,0.0,0.0,0.0,0.0,0.0,0.7459,0.7404,0.7411,0.0,0.0,0.0,0.0,0.0,0.0,0.0,0.0,0.0,0.0,1.7216,1.8032,2.0272,2.0703,2.0927,2.1619,2.0366,1.9265,1.9129,1.9108,1.8045,0.0,0.0,0.0,0.0,0.0,0.0,0.0,0.0,0.0,0.0,0.0,0.0,0.0,0.0,0.0,0.0,0.0,0.0,0.0,0.0,0.0,0.0,0.0,0.0,0.0,0.0,0.0,0.9517,0.9114,0.0,0.0,0.0,0.0,0.0,0.0,0.0,0.0,0.0,0.0,0.0,1.2164,1.2642,0.0,0.0,0.0,0.0,0.0,0.0,0.0,0.0,0.0,0.0,0.0,0.0,0.9111,0.9793,1.1122,1.1835,1.182,1.2077,1.1902,1.1359,1.1366,1.0836,0.9667,0.0,0.0,0.0,0.0,0.0,0.0,0.0,0.0,0.0,0.0,0.0,0.0,0.0,0.0,0.0,0.0,0.0,0.0,0.0,0.0,0.0,0.0,0.0,0.0,0.0,0.9183,0.0,0.0,0.0,0.0,0.0,0.0,0.0,0.0,0.0,0.0,0.0,1.4994,1.6674,1.7913,1.8913,1.9651,2.0666,2.1216,0.0,0.0,0.0,0.0,0.0,0.0,0.0,0.0,0.0,0.0,0.0,0.0,0.0,0.0,1.7739,1.3464,1.242,1.2752,1.4714,0.0,0.0,0.0,0.0,0.0,0.0,0.0,0.0,0.0,0.0,0.0,0.0,0.0,0.0,0.0,0.0,1.0412,0.0,0.0,0.0,0.0,0.0,0.0,0.0,0.0,1.2754,1.3051,1.316,1.3592,1.3065,0.0,1.2502,1.17,0.0,0.0,0.0,0.0,0.0,0.0,0.0,0.0,0.9759,1.0385,1.1495,1.2044,1.2002,1.1996,1.1721,1.1176,1.1179,1.0743,0.9786,0.9135,0.856,0.0,0.0,0.0,0.0,0.0,0.0,0.0,0.0,0.0,0.0,0.0,0.0,0.0,0.0,0.0,0.0,0.0,0.0,0.0,0.0,0.0,0.0,0.0,0.9726,0.0,0.0,0.0,0.0,0.0,0.0,0.0,0.0,0.0,1.4576,1.532,1.641,1.8229,1.8972,1.9566,2.0321,0.0,0.0,0.0,0.0,0.0,0.0,0.0,2.0983,2.2514,2.2336,2.1427,1.9632,1.9664,1.9843,1.9532,0.0,0.0,1.666,1.5399,1.5579,1.7694,1.7262,1.6694,1.7311,1.8208,1.8879,0.0,0.0,0.0,0.0,0.0,0.0,0.0,0.0,1.2051,1.1974,0.0,1.183,0.0,0.0,0.0,0.0,0.0,0.0,0.0,0.0,1.3871,1.3985,1.3126,1.3112,1.3064,1.3084,1.4016,1.3639,1.1939,0.9795,0.0,0.0,0.0,0.0,0.0,0.0,1.0367,1.0871,1.1534,1.1795,1.161,1.1615,1.1599,1.1569,1.0923,1.0431,1.0181,0.9816,0.9056,0.7823,0.7933,0.0,0.0,0.0,0.0,0.0,0.0,0.0,0.0,0.0,0.0,0.0,0.0,0.0,0.0,0.0,0.0,0.0,0.0,0.0,0.0,0.8979,0.0,0.0,0.0,0.0,0.0,0.0,0.0,0.0,0.0,0.0,1.5168,1.6527,1.8618,2.148,0.0,0.0,0.0,0.0,2.2354,2.3673,2.3404,2.3258,2.3836,2.2785,2.1751,2.1455,0.0,0.0,2.0422,2.0884,2.1232,2.0462,2.1027,2.107,1.9566,1.9091,1.9444,2.0548,1.9714,1.9029,1.9484,1.9849,2.0107,1.3393,0.0,0.0,0.0,0.0,1.3319,1.3247,1.3282,1.3037,1.3047,1.3213,1.2931,0.0,0.0,0.0,0.0,0.0,0.0,1.3685,1.35,1.3941,1.422,1.444,1.4411,1.4169,1.3742,1.3877,1.3467,1.249,1.1707,1.0426,0.8759,0.0,0.0,0.0,0.0,1.0545,1.0712,1.1313,1.1593,1.1549,1.1499,1.1392,1.1307,1.0977,1.0577,1.0162,1.0066,0.9724,0.909,0.8738,0.0,0.0,0.0,0.0,0.0,0.0,0.0,0.0,0.0,0.0,0.0,0.0,0.0,0.0,0.0,0.0,0.0,0.0,0.0,1.0295,1.0344,1.0716,0.0,0.0,0.0,0.0,0.0,0.0,0.0,0.0,0.0,2.0385,1.9644,1.9901,0.0,0.0,2.1898,2.2623,2.2966,2.3076,2.2875,0.0,0.0,0.0,2.2722,2.3097,2.2764,2.2642,2.2356,2.1752,2.1944,2.2154,2.1958,2.2431,2.2763,2.2493,2.1554,2.1251,2.2128,2.2089,2.1593,2.1101,2.1312,2.1637,1.4256,1.3683,1.331,1.3628,1.4305,1.3899,1.3986,1.4349,1.4156,1.4288,1.4659,1.4402,1.3927,1.3244,1.3111,0.0,0.0,0.0,1.4025,1.3972,1.4083,1.4247,1.4434,1.4485,1.432,1.3931,1.3976,1.3693,1.3147,1.3188,1.2321,1.0705,0.0,0.0,1.0279,1.0947,1.1356,1.1566,1.1911,1.1939,1.1605,1.1347,1.1147,1.103,1.0982,1.0764,1.0448,1.0559,1.0378,0.9908,0.9611,0.8971,0.0,0.0,0.0,0.0,0.0,0.0,0.0,0.0,0.0,0.0,0.0,0.5746,0.0,0.0,0.0,0.0,0.7924,1.0481,1.1634,1.1516,0.0,0.0,0.0,0.0,0.0,0.0,0.0,1.4268,1.5883,1.8525,2.2709,2.1807,2.1528,2.3609,2.3063,2.2627,2.2963,0.0,2.3081,2.2814,2.324,2.3254,2.2395,2.3054,2.3588,2.3265,2.2976,2.2719,2.2685,2.2792,2.2901,2.2954,2.3148,2.3353,2.3507,2.2737,2.2216,2.2658,2.2792,2.2581,2.2035,2.216,2.2313,1.4994,1.5062,1.4168,1.4335,1.5101,1.4617,1.468,1.514,1.513,1.5472,1.5992,1.5992,1.556,1.4752,1.4025,0.0,0.0,1.4406,1.4517,1.4212,1.4303,1.4148,1.3727,1.3794,1.3845,1.3861,1.4195,1.416,1.3833,1.4176,1.3719,1.2543,1.2231,1.2161,1.2324,1.2365,1.2614,1.3045,1.3031,1.2634,1.1815,1.1251,1.089,1.0809,1.0895,1.0964,1.0889,1.1152,1.1016,1.0413,1.0449,0.9696,0.7959,0.0,0.0,0.0,0.0,0.0,0.0,0.0,0.0,0.0,0.0,0.0,0.0,0.0,0.0,0.0,0.8942,0.0,1.2193,1.2624,0.0,0.0,0.0,1.3695,1.53,1.5278,1.5065,1.4767,0.0,0.0,0.0,0.0,2.3163,2.3448,2.2788,2.258,2.3368,2.288,2.2627,2.3259,2.3371,2.3418,2.3389,2.3457,2.3365,2.3151,2.3277,2.3277,2.32,2.3301,2.3447,2.3434,2.3319,2.3158,2.3085,2.2996,2.2867,2.2385,2.2341,2.2384,2.252,2.2426,2.2313,1.5041,1.5359,1.4869,1.4705,1.4721,1.4607,1.4564,1.4577,1.4587,1.5116,1.5992,1.5992,1.5889,1.5656,1.5495,1.5188,1.4844,1.5408,1.5415,1.497,1.4962,1.4916,1.4824,1.4396,1.4244,1.4297,1.3966,1.3816,1.3791,1.3899,1.3831,1.3637,1.3521,1.3205,1.2663,1.306,1.3351,1.3439,1.3387,1.2814,1.1693,1.1496,1.1224,1.073,1.0821,1.0851,1.0839,1.1099,1.1136,1.0994,1.0663,1.0309,0.9821,0.8623,0.0,0.0,0.0,0.0,0.0,0.0,0.0,0.0,0.0,0.7839,0.6534,0.0,0.8628,0.0,1.0408,1.3137,1.3301,1.3945,0.0,0.0,1.5468,1.6028,1.7417,1.6628,1.6387,1.7418,1.7489,1.8852,2.261,2.3003,2.2996,2.3163,2.3118,2.3123,2.3449,2.3246,2.3094,2.3259,2.3383,2.3401,2.3354,2.3259,2.3198,2.3102,2.3169,2.3223,2.3187,2.3265,2.3372,2.3407,2.3205,2.3005,2.2901,2.2673,2.248,2.2314,2.2313,2.2327,2.2377,2.2328,2.2313,1.5137,1.5322,1.4925,1.4746,1.4709,1.4978,1.5165,1.5288,1.5107,1.5375,1.5876,1.5655,1.5673,1.5846,1.5612,1.5352,1.5136,1.5417,1.5391,1.513,1.5159,1.5159,1.5095,1.4826,1.4773,1.483,1.452,1.4288,1.4175,1.4149,1.4061,1.3924,1.3939,1.3851,1.3649,1.3781,1.3831,1.3785,1.3533,1.3079,1.2421,1.1858,1.1553,1.1486,1.1266,1.1155,1.1142,1.1377,1.141,1.1157,1.0986,1.0767,1.0517,0.9633,0.9026,0.0,0.0,0.0,0.0,0.0,0.0,0.0,0.0,0.0,0.0,0.0,1.0214,0.0,1.2645,0.0,1.4585,1.5322,1.61,1.6846,1.6736,1.7197,1.8588,1.78,1.7465,1.8258,1.8213,1.9335,2.2462,2.2838,2.3102,2.3841,2.388,2.3699,2.3466,2.3596,2.3759,2.3703,2.3852,2.3771,2.3311,2.3132,2.3089,2.3089,2.312,2.3145,2.3139,2.3175,2.3193,2.3157,2.2987,2.2792,2.2796,2.2399,2.2116,2.2144,2.218,2.2216,2.2306,2.2313,2.2313,1.5261,1.5221,1.484,1.4787,1.5,1.5508,1.5953,1.6282,1.5948,1.5827,1.5842,1.5384,1.5402,1.575,1.531,1.5132,1.5176,1.5116,1.5101,1.5095,1.5159,1.513,1.5016,1.5132,1.5213,1.5271,1.5296,1.509,1.4698,1.4707,1.4463,1.4018,1.3973,1.426,1.4743,1.4358,1.414,1.4128,1.3655,1.3456,1.349,1.2421,1.2095,1.2569,1.196,1.1593,1.16,1.1781,1.1699,1.128,1.1485,1.1335,1.0778,1.0667,1.0142,0.0,0.9107,0.0,0.0,0.0,0.0,0.0,0.0,0.0,0.0,1.0413,1.1384,1.3523,1.5066,1.5902,1.5736,1.6517,1.7315,1.7983,1.7597,1.7824,1.9206,1.8844,1.8465,1.8481,1.9608,2.098,2.2453,2.2688,2.3274,2.4578,2.4774,2.4423,2.3746,2.4113,2.4501,2.4449,2.4625,2.4532,2.4091,2.3833,2.3798,2.3552,2.3517,2.3405,2.3488,2.3482,2.3403,2.325,2.3122,2.2938,2.2935,2.2396,2.2045,2.2434,2.249,2.2381,2.2437,2.2461,2.2475,1.5621,1.5601,1.5621,1.5672,1.5695,1.5808,1.5861,1.5831,1.5756,1.593,1.6281,1.6196,1.6179,1.6239,1.6158,1.6139,1.6182,1.582,1.5651,1.5639,1.5283,1.5108,1.5074,1.5034,1.5079,1.5133,1.5188,1.5203,1.5184,1.5261,1.53,1.5169,1.4716,1.4507,0.0,0.0,0.0,0.0,1.428,1.4049,1.4038,1.3421,1.3126,1.32,1.2177,0.0,1.1593,1.1736,1.185,1.1911,1.2478,0.0,0.0,0.0,0.0,0.0,0.0,0.0,0.0,0.0,0.0,0.0,1.4006,1.3654,1.1941,1.1274,1.2168,1.4984,1.6574,1.6918,1.5833,1.6933,1.7802,1.7976,1.8431,1.9104,1.9962,1.9962,1.9917,1.9981,2.0262,2.0986,2.2406,2.2688,2.3343,2.4833,2.5276,2.5279,2.4906,2.4995,2.5148,2.5134,2.528,2.57,2.6683,2.6683,2.6121,2.5377,2.4956,2.4921,2.4886,2.4886,2.4841,2.4601,2.4545,2.423,2.3643,2.2899,2.2784,2.4094,2.3956,2.3483,2.3036,2.3033,2.328,1.5857,0.0,1.6069,1.6044,0.0,1.5898,1.5808,1.5786,1.5556,1.5608,1.5851,1.5936,1.6088,1.6315,1.6367,1.6417,1.6441,1.6211,1.5983,1.5798,1.5557,1.5314,1.5119,1.5076,1.5089,1.5206,1.5504,1.5547,1.543,1.5562,1.5598,1.5519,1.5038,1.4883,1.5038,1.4489,1.427,1.4407,1.4198,1.4127,1.4176,1.3691,1.3525,1.3804,0.0,0.0,0.0,0.0,0.0,0.0,0.0,0.0,0.0,0.0,0.0,1.2105,1.1934,1.2141,1.2712,1.3357,1.3947,1.4485,1.5387,1.5338,1.3941,1.3506,1.412,1.6007,1.7196,1.7664,1.7375,1.8093,1.8721,1.8994,1.9398,1.998,2.0654,2.0831,2.1047,2.145,2.1544,2.1848,2.2606,2.4136,2.5205,2.6006,2.635,2.6408,2.6249,2.6014,2.5988,2.6409,2.6514,2.6795,2.7498,2.7708,2.728,2.6121,2.5553,2.5419,2.5384,2.5384,2.5282,2.4958,2.4856,2.4621,2.4008,2.3484,2.351,2.428,2.4813,2.4829,2.4231,2.3982,2.3946,1.584,1.6462,1.6158,1.6141,1.6335,1.6014,1.593,1.6013,0.0,0.0,0.0,1.5532,1.5807,1.6201,1.6295,1.6365,1.6377,1.6301,1.6105,1.58,1.5681,1.5409,1.497,1.5062,1.5108,1.5187,1.5732,1.5838,1.557,1.5757,1.58,1.5602,1.5299,1.5264,1.5464,1.5012,1.4515,1.4059,1.4,1.4091,1.4305,1.3811,1.3823,1.4436,1.3785,1.3397,1.3397,1.345,1.3338,1.3074,1.3206,1.3386,1.3521,1.3547,1.3489,1.3415,1.3606,1.3771,1.3878,1.442,1.4961,1.5352,1.6262,1.6476,1.5729,1.5883,1.6272,1.7011,1.7512,1.816,1.9018,1.9559,1.995,2.0266,2.0337,2.0709,2.1457,2.1696,2.2084,2.2746,2.2717,2.2957,2.3612,2.5695,2.7324,2.729,2.7221,2.7332,2.726,2.6901,2.6855,2.7398,2.7498,2.7638,2.7708,2.7708,2.7357,2.6648,2.6149,2.5827,2.5757,2.5743,2.556,2.5248,2.5069,2.4916,2.453,2.4439,2.4381,2.4414,2.5333,2.6029,2.5443,2.4996,2.4799,1.5081,1.5742,1.5686,1.6018,1.6641,1.6598,1.6574,1.6531,1.6014,1.5807,1.5812,1.5812,1.5954,1.6118,1.6146,1.6237,1.636,1.5993,1.5757,0.0,1.5297,1.4885,1.4456,1.4827,1.4885,1.4674,1.5322,1.571,1.5778,1.5998,1.6125,1.6065,1.5829,1.5619,1.5498,1.5431,1.5091,1.4498,1.412,1.4196,1.4767,1.4342,1.4414,1.4995,1.3975,1.3397,1.3397,1.3432,1.3498,1.3674,1.4224,1.4422,1.4119,1.4131,1.3934,1.3444,1.3461,1.3561,1.3826,1.4536,1.5754,1.7429,1.785,1.7496,1.6492,1.7036,1.7766,1.8389,1.8154,1.8352,1.9704,2.1028,2.1549,2.1129,2.1075,2.1366,2.2194,2.282,2.3317,2.3687,2.3131,2.3846,2.5983,2.6929,2.729,2.729,2.7324,2.7305,2.7368,2.7373,2.744,2.7636,2.7708,2.7708,2.7701,2.7708,2.7603,2.7533,2.7357,2.7151,2.6974,2.6951,2.6761,2.6369,2.6227,2.6118,2.585,2.5896,2.5764,2.5731,2.6029,2.6122,2.6018,2.5971,2.5998,1.4984,1.5579,1.5419,1.5514,1.586,1.6013,1.6096,1.6125,1.6278,1.6207,1.5984,1.5854,1.587,1.5995,1.6066,1.6235,1.6377,1.6175,1.5953,1.5688,1.5501,1.5145,1.473,1.4893,1.4779,1.4442,1.5054,1.5326,1.5232,1.548,1.5725,1.5954,1.5926,1.5827,1.5694,1.5662,1.5466,1.5091,1.4629,1.4373,1.4363,1.4247,1.4327,1.4657,1.414,1.3893,1.3877,1.3893,1.396,1.4168,1.4547,1.4714,1.4643,1.4724,1.4689,1.4464,1.4435,1.449,1.4671,1.5504,1.653,1.7686,1.8322,1.846,1.7973,1.7774,1.8168,1.9244,1.9843,2.0306,2.0564,2.1616,2.232,2.2402,2.2409,2.2728,2.3393,2.3808,2.4181,2.4478,2.4316,2.4834,2.6735,2.7093,2.7239,2.729,2.729,2.7305,2.7329,2.7407,2.7465,2.7587,2.7642,2.7672,2.7684,2.7679,2.7708,2.7708,2.7708,2.7612,2.7458,2.7396,2.7168,2.675,2.6614,2.6502,2.6248,2.6194,2.6194,2.6194,2.6194,2.6221,2.6257,2.6277,2.6365,1.478,1.5403,1.5117,1.5085,1.5257,1.5502,1.5625,1.5674,1.6139,1.6154,1.5891,1.5868,1.5949,1.5996,1.6136,1.6255,1.6331,1.6374,1.6201,1.5891,1.5849,1.5608,1.5194,1.5152,1.4917,1.4612,1.5015,1.5137,1.4985,1.5071,1.5314,1.568,1.5789,1.5847,1.5827,1.5838,1.5704,1.5453,1.5099,1.4715,1.4313,1.4339,1.435,1.4375,1.4306,1.4308,1.4308,1.4308,1.4345,1.4489,1.4592,1.4757,1.4973,1.5073,1.5258,1.5471,1.5523,1.5582,1.5828,1.656,1.7235,1.7809,1.8547,1.912,1.9354,1.893,1.8929,2.001,2.1236,2.189,2.1674,2.2247,2.2979,2.3542,2.3617,2.3793,2.4372,2.4635,2.4872,2.5221,2.5423,2.5845,2.6504,2.6906,2.7075,2.72,2.7258,2.7266,2.729,2.7345,2.7384,2.738,2.7507,2.7619,2.761,2.764,2.7612,2.759,2.7575,2.7415,2.7228,2.7184,2.7047,2.6623,2.6511,2.6424,2.6239,2.6194,2.6194,2.6194,2.6194,2.6194,2.6203,2.6125,2.6259,1.4039,1.4637,1.4643,1.5033,1.5546,1.5634,1.5669,1.5635,1.5394,1.5256,1.5337,1.6171,1.6433,1.6312,1.6362,1.6306,1.6144,1.6316,1.6367,1.6305,1.634,1.6077,1.5663,1.5642,1.5447,1.5156,1.5313,1.5476,1.5609,1.536,1.5273,1.5335,1.5367,1.559,1.5914,1.5958,1.5743,1.5321,1.5268,1.5326,1.5417,1.5052,1.4855,1.4916,1.4514,1.4308,1.439,1.4308,1.434,1.4413,1.4517,1.4639,1.4894,1.4973,1.5362,1.605,1.6124,1.6396,1.7007,1.7186,1.7708,1.8725,1.8923,1.9419,2.0301,2.0957,2.1145,2.0986,2.1418,2.2089,2.2846,2.3572,2.4072,2.4251,2.4301,2.4373,2.462,2.5109,2.5533,2.5567,2.6116,2.6598,2.6682,2.6833,2.699,2.7223,2.717,2.7228,2.7345,2.7276,2.722,2.7089,2.7213,2.7488,2.7511,2.7561,2.7377,2.7139,2.7173,2.7037,2.6758,2.6657,2.6589,2.638,2.6248,2.6212,2.6203,2.6194,2.6176,2.6176,2.6168,2.6159,2.615,2.5857,2.5848,1.3674,1.3949,1.3949,1.4111,1.442,1.4867,1.5047,1.5066,1.5338,1.5462,1.5497,1.5941,1.583,1.5407,1.5864,1.5977,1.5826,1.6379,1.6549,1.6409,1.6388,1.6284,1.6139,1.6098,1.5898,1.5523,1.5562,1.5574,1.5571,1.5621,1.56,1.5426,1.5415,1.5464,1.5604,1.5579,1.5559,1.5596,1.5593,1.5634,1.5651,1.5338,1.5134,1.5207,1.5292,1.535,1.5386,1.5358,1.5358,1.5393,1.5461,1.5623,1.5826,1.5909,1.6173,1.6692,1.6775,1.6924,1.721,1.7597,1.803,1.8573,1.9157,1.9684,2.0162,2.0836,2.1198,2.1344,2.1607,2.2288,2.3555,2.4697,2.5288,2.5004,2.4928,2.5144,2.5688,2.5991,2.621,2.6269,2.653,2.6691,2.67,2.6741,2.7045,2.7443,2.7339,2.7151,2.7594,2.7314,2.7104,2.7275,2.7122,2.6966,2.7128,2.7077,2.6989,2.6923,2.6757,2.6513,2.646,2.6357,2.6338,2.6078,2.6041,2.6026,2.6072,2.6081,2.6081,2.6105,2.5917,2.5784,2.5784,2.5434,2.5358,1.3492,1.3492,1.3492,1.3492,1.3546,1.406,1.4294,1.4348,1.4885,1.5099,1.5099,1.5099,1.4838,1.4546,1.5258,1.5668,1.5818,1.6399,1.6713,1.6717,1.6622,1.656,1.656,1.6429,1.6236,1.5932,1.5891,1.5778,1.565,1.5959,1.5949,1.564,1.5525,1.5446,1.5292,1.5211,1.5266,1.549,1.5523,1.5523,1.5493,1.542,1.5395,1.5466,1.5831,1.6064,1.6036,1.6064,1.6118,1.6118,1.6136,1.6244,1.6432,1.6494,1.6745,1.7271,1.7545,1.7702,1.7728,1.8163,1.8452,1.858,1.9372,1.9911,1.9987,2.0194,2.0843,2.1882,2.2142,2.2843,2.3899,2.5337,2.5923,2.5502,2.5478,2.5856,2.6462,2.6571,2.6581,2.6624,2.6607,2.6598,2.6496,2.6404,2.659,2.7095,2.6934,2.6784,2.7257,2.685,2.662,2.707,2.6545,2.6426,2.6657,2.6513,2.6512,2.651,2.6368,2.6631,2.6423,2.6354,2.6363,2.6297,2.6003,2.5872,2.5963,2.599,2.602,2.5959,2.5761,2.5499,2.5358,2.5011,2.4815,1.3492,1.3492,1.3492,1.3492,1.351,1.3564,1.3564,1.3637,1.3655,1.3637,1.371,1.3692,1.3608,1.3678,1.4777,1.558,1.6014,1.6214,1.6747,1.7415,1.7126,1.6971,1.6944,1.6581,1.6388,1.6367,1.6305,1.6231,1.6097,1.6358,1.6238,1.584,1.5697,1.5468,1.5319,1.5046,1.4845,1.4936,1.4902,1.4857,1.4926,1.5331,1.5622,1.5719,1.5883,1.5998,1.5972,1.6045,1.6145,1.6145,1.62,1.6218,1.6344,1.638,1.6846,1.7716,1.8463,1.892,1.8928,1.9005,1.9072,1.9169,1.9701,2.0118,2.0186,1.9813,2.0481,2.2565,2.3092,2.3549,2.3875,2.5042,2.5857,2.5667,2.5892,2.6155,2.6399,2.638,2.6478,2.6496,2.653,2.6315,2.5973,2.5694,2.5722,2.5945,2.5887,2.5938,2.6155,2.599,2.5899,2.5854,2.5821,2.5888,2.6294,2.6143,2.5733,2.6163,2.6977,2.7054,2.6773,2.6529,2.6568,2.65,2.6218,2.6035,2.5956,2.5928,2.5971,2.59,2.5766,2.5512,2.5448,2.476,2.4575,1.3364,1.3492,1.3492,1.3492,1.3492,1.3492,1.3492,1.3492,1.3492,1.3492,1.3492,1.3492,1.3492,1.3528,1.3953,1.455,1.5284,1.5799,1.6454,1.7112,1.701,1.7119,1.7368,1.6986,1.6794,1.6752,1.6533,1.6504,1.6698,1.7008,1.6934,1.6641,1.6587,1.6314,1.5781,1.5422,1.5176,1.4977,1.4793,1.4649,1.4626,1.5017,1.534,1.5512,1.6309,1.6847,1.7055,1.7199,1.7258,1.7231,1.724,1.7299,1.7397,1.7531,1.7757,1.8219,1.8636,1.8912,1.9084,1.9479,1.9749,1.9788,2.032,2.0679,2.069,2.0496,2.087,2.2091,2.3113,2.3581,2.372,2.4215,2.4734,2.5118,2.5314,2.5457,2.55,2.5547,2.5659,2.5946,2.6306,2.6201,2.5189,2.4781,2.5144,2.6027,2.5884,2.5778,2.6062,2.5852,2.5483,2.5779,2.5625,2.5985,2.8292,2.6643,2.5876,2.6997,2.7732,2.7345,2.7027,2.6994,2.7013,2.7077,2.6734,2.6628,2.6688,2.6755,2.6636,2.6311,2.6134,2.5748,2.5819,2.5173,2.5034,1.3396,1.3473,1.3492,1.3492,1.3492,1.3492,1.3492,1.3492,1.3492,1.3492,1.3492,1.3492,1.3492,1.3492,1.3492,1.3914,1.4685,1.5377,1.6136,1.6915,1.6828,1.701,1.7299,1.7103,1.6956,1.6925,1.6735,1.672,1.6878,1.7179,1.7247,1.7109,1.7166,1.6922,1.6346,1.5938,1.5643,1.5453,1.52,1.4967,1.4765,1.5047,1.5234,1.5356,1.6183,1.6932,1.7427,1.771,1.7862,1.7892,1.7912,1.7932,1.7958,1.8108,1.8274,1.841,1.8813,1.9122,1.9315,1.9961,2.0378,2.0407,2.0959,2.1307,2.1347,2.1481,2.1825,2.2293,2.2815,2.337,2.3403,2.3469,2.3815,2.4532,2.4724,2.4823,2.492,2.4991,2.5147,2.5383,2.5617,2.5329,2.4584,2.4349,2.4781,2.5767,2.5383,2.5383,2.5628,2.5401,2.5049,2.5543,2.5128,2.56,2.6703,2.5869,2.5886,2.6978,2.7432,2.7243,2.7243,2.7296,2.7392,2.7508,2.7508,2.7463,2.7467,2.7562,2.7316,2.6945,2.6365,2.5857,2.5792,2.5627,2.5511,1.3523,1.3473,1.3488,1.3521,1.3536,1.3506,1.3492,1.3492,1.3492,1.3492,1.3492,1.3492,1.3492,1.3492,1.3492,1.384,1.4422,1.4925,1.5791,1.6862,1.6633,1.6618,1.6847,1.6882,1.6896,1.6903,1.6956,1.6852,1.6722,1.6984,1.7138,1.7238,1.7216,1.7143,1.6987,1.649,1.6247,1.6212,1.6044,1.5746,1.5391,1.5458,1.5434,1.5257,1.5597,1.6221,1.7009,1.7469,1.773,1.7852,1.7902,1.7912,1.7977,1.8122,1.8168,1.8454,1.9115,1.962,1.9847,2.0507,2.0976,2.1083,2.1627,2.1993,2.2051,2.2406,2.2725,2.2788,2.2857,2.2944,2.3,2.3168,2.3545,2.4152,2.4359,2.4502,2.4724,2.4853,2.4883,2.4833,2.4664,2.4349,2.4317,2.4204,2.4359,2.4493,2.4503,2.4482,2.4658,2.4534,2.4421,2.4534,2.4575,2.501,2.4977,2.4869,2.5779,2.6588,2.6746,2.6778,2.7073,2.72,2.7349,2.7465,2.7285,2.7211,2.7282,2.7353,2.7274,2.6925,2.6382,2.6101,2.6057,2.6015,2.5848,1.2973,1.302,1.3601,1.3847,1.3799,1.3612,1.3492,1.3492,1.3492,1.3492,1.3492,1.3492,1.3492,1.3492,1.351,1.3764,1.4183,1.4418,1.5133,1.6158,1.6208,1.6378,1.6733,1.6682,1.6732,1.6861,1.6905,1.6992,1.7097,1.7253,1.7291,1.7166,1.7319,1.7381,1.7314,1.7045,1.6854,1.6744,1.6455,1.616,1.5975,1.5875,1.5823,1.5894,1.6105,1.6503,1.7046,1.7262,1.7412,1.7577,1.7781,1.8075,1.8483,1.8939,1.92,1.9318,1.9739,2.0052,2.0242,2.0916,2.1442,2.165,2.2173,2.2525,2.2638,2.2754,2.2888,2.2888,2.2888,2.2888,2.291,2.2967,2.3268,2.3715,2.3812,2.3899,2.4037,2.4037,2.4006,2.4006,2.3879,2.3835,2.3835,2.3835,2.3973,2.4234,2.4245,2.4234,2.4286,2.4297,2.4307,2.4349,2.4317,2.4328,2.4462,2.4564,2.501,2.5613,2.5832,2.6335,2.6693,2.6956,2.7156,2.7208,2.7018,2.6966,2.7021,2.701,2.6901,2.7006,2.6729,2.6609,2.6595,2.6469,2.6288,1.2376,1.2739,1.3283,1.3806,1.4136,1.3949,1.3876,1.3862,1.3726,1.37,1.3667,1.3536,1.3492,1.3492,1.3492,1.3728,1.4075,1.4093,1.4597,1.54,1.5577,1.5859,1.6263,1.6325,1.6601,1.6976,1.7061,1.7206,1.7441,1.7549,1.7501,1.727,1.7448,1.755,1.7507,1.7382,1.7283,1.7292,1.7096,1.6851,1.6651,1.6503,1.6362,1.6292,1.6375,1.6613,1.6888,1.712,1.743,1.7901,1.8333,1.8761,1.9141,1.9494,1.9733,1.9822,2.0197,2.0473,2.0595,2.1349,2.1868,2.2077,2.2426,2.2706,2.2838,2.2865,2.2888,2.2888,2.2888,2.2888,2.2888,2.2899,2.3045,2.3312,2.3466,2.3501,2.3577,2.3599,2.362,2.3634,2.3631,2.3599,2.3599,2.362,2.3707,2.3973,2.413,2.4213,2.4255,2.4286,2.4327,2.4327,2.4307,2.4307,2.4307,2.4317,2.4317,2.4596,2.4853,2.556,2.6188,2.6388,2.6587,2.6593,2.6486,2.6344,2.6372,2.6294,2.6251,2.6543,2.6575,2.6667,2.6489,2.6801,2.6751,1.1715,1.2578,1.2711,1.3457,1.4369,1.4409,1.4438,1.4404,1.4155,1.4023,1.3964,1.3774,1.3579,1.355,1.3565,1.3769,1.4021,1.4093,1.4274,1.4651,1.4882,1.5115,1.5365,1.572,1.6272,1.7023,1.7196,1.7387,1.7621,1.7833,1.7786,1.7556,1.7633,1.7629,1.753,1.7509,1.7631,1.7747,1.7802,1.7603,1.7275,1.7226,1.6996,1.6503,1.6554,1.6678,1.688,1.7323,1.7894,1.8676,1.9185,1.955,1.9687,1.9721,1.9928,1.9983,2.0553,2.0848,2.1093,2.1599,2.2161,2.2248,2.2328,2.2477,2.2701,2.2815,2.2865,2.2888,2.2888,2.2946,2.3004,2.316,2.3228,2.3225,2.3441,2.3498,2.3577,2.3618,2.3708,2.3659,2.3599,2.364,2.3699,2.3729,2.3961,2.3977,2.4284,2.4473,2.4548,2.4652,2.4481,2.4502,2.4614,2.4297,2.4297,2.4297,2.4379,2.5024,2.4945,2.5099,2.5559,2.5716,2.6048,2.6061,2.5997,2.5813,2.5715,2.572,2.5307,2.4964,2.5308,2.5977,2.651,2.6818,2.6974,1.0878,1.1545,1.2614,1.3453,1.4071,1.4358,1.4492,1.4477,1.4418,1.436,1.433,1.4272,1.4067,1.3891,1.3862,1.3892,1.3948,1.4036,1.4201,1.4436,1.4597,1.4792,1.4953,1.5132,1.5667,1.65,1.6975,1.7312,1.7644,1.8068,1.8046,1.7666,1.7807,1.7741,1.7549,1.7694,1.7768,1.7759,1.7865,1.7916,1.7856,1.7734,1.7648,1.7508,1.7382,1.7409,1.7605,1.8201,1.8373,1.8276,1.9187,1.9705,1.9793,2.0392,2.0808,2.087,2.116,2.1391,2.1466,2.1722,2.1959,2.2077,2.21,2.2233,2.2465,2.2661,2.2786,2.2865,2.2888,2.3189,2.3734,2.414,2.4333,2.4382,2.3882,2.3518,2.3647,2.3948,2.4108,2.3778,2.4219,2.429,2.4249,2.4698,2.5309,2.5182,2.5176,2.5303,2.526,2.5335,2.5279,2.5225,2.5165,2.4614,2.4297,2.4297,2.4665,2.5518,2.5404,2.4769,2.4962,2.4944,2.5388,2.5724,2.5574,2.537,2.535,2.5332,2.4581,2.4227,2.5313,2.6517,2.6604,2.683,2.6843,1.0072,1.0928,1.219,1.3187,1.4015,1.4637,1.4887,1.4838,1.4721,1.4662,1.4648,1.4536,1.4389,1.4213,1.4199,1.4136,1.4037,1.4139,1.4249,1.4397,1.4543,1.4651,1.4756,1.4792,1.5222,1.607,1.6715,1.7254,1.7803,1.8393,1.8407,1.8087,1.8067,1.7962,1.7708,1.7971,1.8108,1.8135,1.8168,1.8229,1.8307,1.8093,1.7979,1.7966,1.7893,1.7906,1.8034,1.8387,1.861,1.8834,1.9394,1.9782,1.9881,2.0586,2.1093,2.1154,2.1373,2.1506,2.1518,2.159,2.1686,2.1793,2.1829,2.1971,2.2231,2.2593,2.2942,2.3223,2.3057,2.349,2.4363,2.4788,2.4861,2.4764,2.4306,2.4035,2.4207,2.4562,2.4683,2.4679,2.5028,2.5548,2.5196,2.5979,2.6249,2.6321,2.59,2.5885,2.5803,2.5947,2.5977,2.5788,2.589,2.5601,2.5571,2.5632,2.5583,2.6334,2.5711,2.5035,2.477,2.464,2.4885,2.5266,2.5093,2.5067,2.5176,2.5353,2.5419,2.5558,2.6429,2.6604,2.6575,2.6778,2.6807,0.9349,1.0549,1.1499,1.2665,1.3831,1.4762,1.4976,1.508,1.4877,1.4802,1.4779,1.4652,1.4638,1.4536,1.4536,1.4456,1.4332,1.4355,1.4386,1.4462,1.4555,1.4597,1.4615,1.4649,1.5008,1.5683,1.6455,1.706,1.7653,1.8452,1.8722,1.8429,1.8395,1.8275,1.8082,1.826,1.8483,1.8515,1.8526,1.855,1.8577,1.8391,1.8325,1.8302,1.8288,1.8279,1.8262,1.8341,1.8655,1.966,1.9706,1.971,1.9889,2.0308,2.0609,2.0771,2.1044,2.1191,2.1264,2.124,2.1454,2.1594,2.1694,2.1839,2.2264,2.2769,2.3187,2.3607,2.3165,2.3679,2.5065,2.5214,2.5201,2.5255,2.5081,2.515,2.5297,2.5311,2.536,2.558,2.5998,2.6769,2.7106,2.7046,2.6674,2.6998,2.6693,2.6435,2.6279,2.6224,2.614,2.5949,2.6266,2.6722,2.6893,2.7155,2.7091,2.7176,2.6071,2.5315,2.5031,2.4871,2.4768,2.4821,2.5092,2.5257,2.5392,2.5595,2.5875,2.6226,2.6662,2.6458,2.6226,2.6633,2.6807,0.8977,0.9646,1.0755,1.1596,1.2336,1.337,1.3836,1.3899,1.4316,1.4469,1.4615,1.4965,1.5017,1.4818,1.4803,1.4682,1.4501,1.4572,1.4638,1.4695,1.4618,1.4595,1.4613,1.4595,1.4792,1.524,1.5842,1.6368,1.6888,1.7833,1.8439,1.8372,1.8602,1.8725,1.8394,1.8491,1.8443,1.8382,1.8559,1.8754,1.8874,1.8836,1.8812,1.8826,1.8834,1.8864,1.8887,1.8887,1.9019,1.916,1.922,1.9308,1.9484,1.99,2.0284,2.0525,2.0563,2.0537,2.0536,2.0891,2.117,2.1698,2.1992,2.2406,2.3024,2.295,2.327,2.3469,2.3005,2.377,2.5789,2.6364,2.6229,2.6171,2.6175,2.6216,2.6349,2.6059,2.5727,2.569,2.6325,2.7153,2.7504,2.7314,2.722,2.75,2.7262,2.6953,2.6688,2.6368,2.6217,2.5995,2.6205,2.6577,2.679,2.6891,2.6617,2.6746,2.601,2.5479,2.52,2.502,2.4862,2.5016,2.5341,2.546,2.5517,2.5808,2.6052,2.648,2.6781,2.6591,2.649,2.6736,2.691,0.8788,0.9218,1.0332,1.1025,1.1521,1.2559,1.3082,1.3167,1.3527,1.3928,1.4307,1.4762,1.4989,1.5133,1.5139,1.4979,1.4786,1.4809,1.4911,1.4933,1.4911,1.4885,1.4821,1.4692,1.4685,1.4882,1.5559,1.5947,1.6368,1.7131,1.7884,1.8175,1.8546,1.8725,1.875,1.8839,1.8868,1.8802,1.8809,1.8964,1.9118,1.9035,1.9037,1.9082,1.9097,1.9097,1.9089,1.9074,1.9112,1.9081,1.9068,1.9072,1.9254,1.9726,2.0116,2.0152,2.0726,2.0829,2.0974,2.112,2.1551,2.1983,2.2286,2.2694,2.3187,2.3278,2.3532,2.3772,2.3861,2.4405,2.6142,2.6686,2.6754,2.6633,2.6474,2.638,2.6363,2.6341,2.6283,2.6142,2.6641,2.6986,2.7168,2.7058,2.6596,2.6383,2.6461,2.6213,2.6202,2.5973,2.603,2.5975,2.6085,2.6301,2.6512,2.629,2.5617,2.5674,2.5494,2.5273,2.5204,2.5039,2.4915,2.5135,2.5341,2.5535,2.5628,2.5948,2.6125,2.6437,2.6611,2.6688,2.6828,2.7062,2.7234,0.87,0.8955,1.0007,1.0571,1.0939,1.1896,1.2334,1.2409,1.2699,1.3209,1.3907,1.4202,1.4748,1.5263,1.5388,1.5227,1.51,1.5122,1.521,1.5188,1.526,1.5266,1.5208,1.4951,1.4758,1.4782,1.5309,1.5612,1.5842,1.649,1.7148,1.7679,1.8121,1.8439,1.8877,1.9181,1.9185,1.9146,1.9104,1.9179,1.9311,1.92,1.9217,1.9302,1.9354,1.9354,1.9377,1.9332,1.9281,1.9267,1.9267,1.9246,1.9394,1.9666,2.0094,1.9855,2.0694,2.0906,2.0979,2.1356,2.1752,2.2331,2.2506,2.2775,2.3205,2.3717,2.3974,2.4109,2.4271,2.4609,2.5522,2.5756,2.6028,2.6082,2.5838,2.5756,2.5811,2.6191,2.6279,2.6467,2.6409,2.6578,2.652,2.6396,2.5766,2.5301,2.5408,2.5502,2.5507,2.5508,2.5508,2.537,2.5342,2.5342,2.5522,2.6314,2.5585,2.5547,2.5397,2.5414,2.5457,2.5524,2.5484,2.5161,2.5273,2.5439,2.5494,2.555,2.5784,2.6195,2.6726,2.7096,2.7278,2.7401,2.7475,0.8634,0.8722,0.9449,0.9798,0.9973,1.0701,1.109,1.1133,1.1671,1.24,1.3188,1.3844,1.451,1.5194,1.5396,1.5338,1.5295,1.5403,1.5492,1.551,1.5564,1.5602,1.5558,1.5253,1.511,1.5069,1.5166,1.5163,1.5274,1.5806,1.635,1.6732,1.7508,1.8104,1.8512,1.8868,1.9098,1.9185,1.9188,1.9261,1.9349,1.9544,1.9683,1.981,1.982,1.9848,1.9876,1.9926,1.9932,1.9932,1.9932,1.9914,1.9831,1.9711,1.9901,2.0266,2.0361,2.0463,2.0484,2.0835,2.1307,2.1866,2.2364,2.292,2.3519,2.4131,2.4204,2.4049,2.3922,2.399,2.3959,2.4527,2.4552,2.4738,2.4937,2.4923,2.4965,2.5078,2.5356,2.5508,2.5729,2.5879,2.5659,2.5425,2.4912,2.46,2.4702,2.4787,2.477,2.4779,2.475,2.4577,2.4346,2.4346,2.4375,2.5515,2.5893,2.61,2.6084,2.6001,2.607,2.6232,2.6142,2.5666,2.5333,2.5336,2.5324,2.5257,2.5795,2.6453,2.7017,2.7612,2.7499,2.7428,2.7554,0.8612,0.8656,0.9218,0.9458,0.9559,1.0081,1.0342,1.0407,1.0809,1.1478,1.225,1.2848,1.3717,1.4615,1.4866,1.5048,1.5385,1.5565,1.5721,1.5827,1.5825,1.5873,1.5885,1.5602,1.5494,1.5386,1.5202,1.4951,1.4808,1.5203,1.5647,1.6123,1.6801,1.744,1.8054,1.8479,1.8814,1.8998,1.9131,1.9235,1.9318,1.9676,1.9944,2.0058,2.0113,2.0113,2.0113,2.0113,2.0107,2.0107,2.0107,2.0113,2.0041,1.9962,1.9938,2.028,2.0337,2.035,2.0412,2.0899,2.1464,2.2044,2.2451,2.2947,2.3475,2.3889,2.3915,2.3538,2.4313,2.4236,2.3853,2.4009,2.439,2.456,2.4435,2.4189,2.412,2.3985,2.4117,2.4491,2.5063,2.5133,2.454,2.4243,2.3925,2.3878,2.4058,2.4154,2.4221,2.4315,2.4393,2.446,2.4354,2.423,2.4502,2.5589,2.6347,2.658,2.6622,2.6545,2.6474,2.6558,2.6363,2.5968,2.5708,2.576,2.5223,2.5172,2.5936,2.6757,2.7491,2.7948,2.7588,2.7447,2.7564,0.8612,0.8656,0.9108,0.9305,0.9371,0.9798,1.0016,1.0038,1.0212,1.0787,1.1585,1.1907,1.2814,1.4055,1.4615,1.4929,1.5402,1.5602,1.5794,1.5949,1.6015,1.6097,1.6107,1.5964,1.5796,1.5748,1.5481,1.511,1.486,1.486,1.5167,1.5594,1.6,1.6645,1.7455,1.7833,1.8344,1.8764,1.8952,1.9052,1.9335,1.9615,1.9895,2.0042,2.0058,2.0058,2.0091,2.0113,2.0113,2.0113,2.0113,2.0113,2.0113,2.0113,2.0113,2.0172,2.0539,2.0754,2.0853,2.1046,2.144,2.1968,2.2286,2.2738,2.307,2.316,2.3035,2.2698,2.3352,2.4319,2.3847,2.4133,2.4335,2.4382,2.3994,2.369,2.3715,2.3608,2.3325,2.3793,2.4503,2.4462,2.3957,2.4318,2.4249,2.4172,2.4341,2.4376,2.4433,2.433,2.4427,2.462,2.4602,2.4421,2.492,2.6148,2.6775,2.7128,2.7054,2.6903,2.6807,2.6791,2.6598,2.6618,2.6838,2.6774,2.5932,2.5364,2.6154,2.7031,2.8003,2.8161,2.7555,2.7389,2.748,0.8612,0.8634,0.9117,0.9305,0.938,0.9808,1.0016,1.0016,1.0047,1.0528,1.1305,1.1467,1.239,1.3886,1.4887,1.5236,1.5423,1.5569,1.572,1.5829,1.6078,1.6257,1.6343,1.6221,1.6138,1.6079,1.5793,1.5462,1.5192,1.4905,1.4806,1.5163,1.5662,1.6105,1.6646,1.7062,1.7647,1.8243,1.8395,1.868,1.9185,1.933,1.9599,1.9829,1.9927,1.9944,2.0025,2.0042,2.0091,2.0091,2.0113,2.0113,2.0113,2.0113,2.0113,2.0178,2.0302,2.0448,2.0529,2.0899,2.1213,2.1642,2.1792,2.2018,2.2429,2.265,2.2606,2.229,2.2694,2.3224,2.3633,2.3514,2.3376,2.3577,2.382,2.3829,2.3863,2.3704,2.3373,2.3199,2.3938,2.3836,2.3502,2.4192,2.4712,2.4648,2.4607,2.4627,2.4681,2.4659,2.4702,2.4931,2.5386,2.5288,2.535,2.658,2.6997,2.7456,2.7331,2.72,2.7176,2.7161,2.7507,2.7545,2.7728,2.7445,2.6503,2.6228,2.6622,2.6912,2.7361,2.7445,2.7302,2.7283,2.7285,0.8869,0.8929,0.9249,0.9429,0.9455,0.9832,1.0016,1.0023,1.0127,1.0372,1.0708,1.0875,1.187,1.343,1.4426,1.5048,1.5319,1.5486,1.5596,1.5679,1.5912,1.6154,1.6334,1.6348,1.6366,1.6356,1.6154,1.5952,1.5666,1.543,1.5213,1.5115,1.5447,1.5745,1.6051,1.6333,1.6906,1.7526,1.8056,1.8462,1.8814,1.9131,1.9434,1.9714,1.9709,1.978,1.9829,1.9944,1.9976,1.9993,2.0042,2.0113,2.0113,2.0113,2.0113,2.0129,2.0156,2.0221,2.0314,2.0969,2.1305,2.1541,2.1739,2.2044,2.2273,2.2654,2.2678,2.2221,2.2775,2.332,2.377,2.3833,2.3864,2.3922,2.3916,2.3925,2.4006,2.3926,2.3717,2.3482,2.3369,2.3651,2.3999,2.4739,2.5344,2.5386,2.5135,2.4874,2.5046,2.5203,2.5265,2.5352,2.5939,2.6378,2.6443,2.6985,2.7063,2.7365,2.7399,2.7307,2.7442,2.7604,2.7706,2.7782,2.7716,2.7334,2.683,2.7098,2.7472,2.7035,2.6458,2.6534,2.6586,2.6765,2.6705,0.9321,0.9352,0.9497,0.9576,0.9613,0.999,1.0156,1.0175,1.0327,1.0375,1.0489,1.0823,1.1716,1.2851,1.3908,1.4746,1.5225,1.5363,1.5486,1.5596,1.5705,1.5891,1.6139,1.6268,1.6453,1.6607,1.6415,1.6297,1.6238,1.6047,1.5729,1.5351,1.5509,1.5675,1.584,1.6042,1.6455,1.7039,1.7636,1.8073,1.8408,1.8814,1.9164,1.9417,1.955,1.9545,1.9632,1.9813,1.9911,1.9927,2.0025,2.0091,2.0113,2.0113,2.0113,2.0172,2.0232,2.0276,2.0375,2.0748,2.1275,2.1512,2.1746,2.1845,2.206,2.2871,2.32,2.2221,2.3127,2.3705,2.4138,2.4417,2.4297,2.4297,2.4331,2.4234,2.4162,2.4285,2.4374,2.4343,2.4336,2.4502,2.4942,2.5601,2.5988,2.6118,2.5803,2.5277,2.5393,2.5693,2.581,2.5842,2.6112,2.6637,2.6764,2.6934,2.7104,2.7258,2.7274,2.7367,2.7451,2.7449,2.7473,2.7549,2.7587,2.7445,2.7054,2.7709,2.8167,2.6841,2.5791,2.5791,2.5886,2.6151,2.6434,0.9936,0.9927,0.9808,0.9801,0.9815,1.0352,1.0541,1.0503,1.055,1.0583,1.0683,1.1344,1.1848,1.2586,1.3598,1.4447,1.4888,1.5239,1.5427,1.553,1.5631,1.5735,1.5942,1.6154,1.6381,1.6443,1.6431,1.6512,1.6605,1.6458,1.6119,1.5748,1.5758,1.5825,1.5899,1.5976,1.6174,1.6666,1.7185,1.759,1.7947,1.8336,1.8704,1.9169,1.9297,1.9396,1.9599,1.9747,1.9862,1.9862,2.0009,2.0091,2.0113,2.0113,2.0113,2.0172,2.0407,2.0385,2.0342,2.044,2.0456,2.0763,2.1234,2.1693,2.1784,2.2043,2.2175,2.24,2.3323,2.4106,2.4571,2.485,2.4681,2.4647,2.4712,2.4843,2.4819,2.4915,2.5029,2.5155,2.5155,2.5107,2.5107,2.5575,2.5763,2.5829,2.6166,2.5669,2.5895,2.6155,2.6265,2.6324,2.6349,2.6509,2.6534,2.678,2.7205,2.7273,2.7273,2.7327,2.7403,2.7369,2.719,2.7275,2.7314,2.7324,2.7372,2.7721,2.7447,2.5956,2.5236,2.5643,2.5913,2.6189,2.6505,0.9846,1.0026,1.0125,1.0195,1.0245,1.0492,1.0598,1.0626,1.074,1.0773,1.0811,1.1142,1.1579,1.2211,1.2904,1.3941,1.4714,1.5116,1.5361,1.5668,1.5801,1.5767,1.5845,1.5895,1.6051,1.6226,1.633,1.6402,1.6489,1.6525,1.6512,1.6273,1.6095,1.5915,1.5896,1.596,1.6114,1.6336,1.6784,1.7225,1.7345,1.8062,1.8503,1.865,1.9098,1.9181,1.9297,1.9434,1.9583,1.9747,1.996,2.0058,2.0091,2.0091,2.0113,2.0151,2.0424,2.038,2.0407,2.062,2.1056,2.1152,2.1634,2.1934,2.1733,2.1719,2.2117,2.2678,2.3442,2.419,2.4395,2.4814,2.5024,2.4972,2.505,2.5253,2.5385,2.5415,2.545,2.5474,2.5354,2.5234,2.5258,2.5317,2.543,2.5511,2.5868,2.6221,2.6407,2.6536,2.6639,2.6582,2.6575,2.6415,2.6387,2.6834,2.7365,2.7251,2.7112,2.7172,2.7125,2.7025,2.6901,2.6985,2.6972,2.6913,2.7054,2.7462,2.6989,2.592,2.5722,2.6007,2.619,2.6325,2.6692,0.9821,1.0043,1.0388,1.0553,1.0611,1.0726,1.0778,1.0806,1.0915,1.0981,1.0996,1.101,1.1294,1.1859,1.2387,1.3146,1.4033,1.4542,1.4923,1.5223,1.5445,1.5591,1.5675,1.5871,1.6175,1.616,1.6224,1.6365,1.6299,1.636,1.6437,1.6461,1.6431,1.6238,1.6118,1.6024,1.6054,1.6228,1.6444,1.6874,1.6913,1.7624,1.8269,1.8329,1.8786,1.8975,1.9066,1.9226,1.9401,1.9599,1.9796,1.9993,2.0042,2.008,2.0178,2.0298,2.0391,2.0451,2.0758,2.0955,2.1508,2.1638,2.1947,2.21,2.194,2.1687,2.2086,2.2794,2.3481,2.3909,2.4036,2.4541,2.4856,2.4785,2.52,2.542,2.5606,2.5714,2.5757,2.5787,2.5571,2.533,2.5559,2.5631,2.5889,2.5925,2.609,2.6487,2.6858,2.6959,2.6976,2.6864,2.6675,2.6452,2.6246,2.6717,2.7,2.6405,2.6377,2.6665,2.6689,2.6591,2.6439,2.6339,2.6349,2.6438,2.6632,2.6904,2.6675,2.619,2.6155,2.6178,2.6619,2.6819,2.7181,0.9969,1.0068,1.0536,1.0772,1.0803,1.1057,1.1151,1.1138,1.1151,1.1161,1.1161,1.1171,1.1303,1.1666,1.2067,1.2664,1.3217,1.3652,1.4018,1.4398,1.4923,1.5142,1.5442,1.5768,1.6074,1.6221,1.6347,1.6354,1.6199,1.638,1.6443,1.6578,1.6707,1.6646,1.661,1.6349,1.6226,1.6218,1.6199,1.6467,1.6788,1.7298,1.7749,1.8044,1.8501,1.8719,1.8782,1.9172,1.9358,1.9506,1.9887,2.0104,2.0165,2.0226,2.0461,2.0867,2.104,2.1351,2.1749,2.1281,2.1454,2.1882,2.2159,2.2181,2.2136,2.2131,2.2238,2.2965,2.3116,2.3409,2.378,2.4287,2.458,2.4938,2.5352,2.5622,2.5828,2.5899,2.5912,2.6266,2.5811,2.5409,2.5733,2.6008,2.6373,2.6508,2.6463,2.6621,2.6852,2.6772,2.6584,2.7135,2.6916,2.6761,2.6593,2.6638,2.6568,2.5896,2.5766,2.6216,2.626,2.6112,2.5945,2.5788,2.5877,2.6101,2.6167,2.6289,2.6109,2.6046,2.6102,2.6263,2.6792,2.7219,2.7478,0.9846,1.0043,1.0388,1.0634,1.083,1.11,1.1189,1.1189,1.1189,1.1189,1.1189,1.1189,1.1223,1.1429,1.1691,1.2176,1.2767,1.309,1.3473,1.3898,1.4358,1.431,1.4598,1.5179,1.5653,1.5745,1.6053,1.649,1.6537,1.656,1.6799,1.6992,1.7012,1.6932,1.6757,1.6567,1.6515,1.6519,1.6509,1.6544,1.6651,1.707,1.739,1.754,1.8082,1.8392,1.8445,1.8968,1.9311,1.9524,1.9903,2.0304,2.0514,2.0672,2.0951,2.1336,2.157,2.1751,2.2121,2.2024,2.1857,2.2063,2.2275,2.2377,2.2275,2.284,2.2978,2.2936,2.2974,2.3338,2.3869,2.4558,2.4986,2.5351,2.5707,2.5915,2.6056,2.6028,2.6112,2.6757,2.6724,2.5929,2.5827,2.5425,2.5639,2.5929,2.5812,2.5628,2.5727,2.5624,2.5509,2.6788,2.7205,2.7067,2.6917,2.6359,2.6214,2.5818,2.5752,2.6045,2.5974,2.5672,2.5676,2.5617,2.5692,2.5767,2.5935,2.6041,2.5957,2.5924,2.6154,2.64,2.682,2.7225,2.7542,0.9698,0.9895,1.024,1.0487,1.0708,1.1051,1.1189,1.1189,1.1189,1.1189,1.1189,1.1189,1.1198,1.1262,1.1409,1.1702,1.2325,1.2484,1.2729,1.3212,1.3637,1.3637,1.3891,1.4414,1.493,1.5146,1.5656,1.6179,1.6081,1.6521,1.6902,1.7234,1.7378,1.7259,1.7049,1.6916,1.6657,1.6662,1.6639,1.6612,1.673,1.6967,1.7201,1.7329,1.7654,1.8021,1.821,1.8601,1.9112,1.9406,1.9769,2.0181,2.0434,2.063,2.0835,2.1097,2.1571,2.176,2.2087,2.2042,2.1846,2.2023,2.2481,2.2702,2.2696,2.3128,2.332,2.33,2.3132,2.3479,2.4034,2.4753,2.5204,2.5563,2.5447,2.5623,2.5949,2.5897,2.5845,2.6559,2.6858,2.6248,2.5569,2.5031,2.4682,2.4885,2.5059,2.4885,2.4792,2.485,2.491,2.5952,2.6855,2.6695,2.6181,2.5459,2.5422,2.5653,2.5696,2.5717,2.542,2.5101,2.5294,2.5443,2.5421,2.5505,2.5779,2.5884,2.5951,2.6165,2.644,2.6683,2.6946,2.7261,2.7605,0.9624,0.9698,1.0167,1.0388,1.0511,1.0978,1.1189,1.1189,1.1189,1.1189,1.1189,1.1189,1.1189,1.1189,1.1223,1.1394,1.1614,1.1678,1.1863,1.2183,1.2721,1.2844,1.3311,1.3957,1.4215,1.456,1.5051,1.5604,1.5421,1.6528,1.7196,1.736,1.7542,1.7547,1.7434,1.7186,1.6948,1.6948,1.6853,1.6841,1.6906,1.6948,1.7029,1.7143,1.7423,1.7618,1.7825,1.8144,1.834,1.8546,1.8768,1.8897,1.9061,1.9243,1.9681,2.0275,2.1129,2.1554,2.1833,2.174,2.1871,2.2127,2.2713,2.2982,2.3067,2.3151,2.3279,2.3476,2.3494,2.3794,2.4219,2.4718,2.5196,2.5086,2.4809,2.5097,2.5571,2.5604,2.5475,2.5749,2.6099,2.5705,2.4934,2.4361,2.4055,2.4108,2.4346,2.4472,2.4472,2.4806,2.4889,2.5117,2.5825,2.6102,2.5547,2.4807,2.4786,2.5041,2.5082,2.5081,2.4783,2.4867,2.5249,2.5421,2.5146,2.521,2.5573,2.5894,2.613,2.6389,2.6736,2.6905,2.711,2.7369,2.7695,0.9599,0.9649,0.9969,1.0216,1.0462,1.0968,1.1189,1.1189,1.1189,1.1189,1.1189,1.1189,1.1189,1.1189,1.1189,1.1247,1.1296,1.1311,1.136,1.1629,1.1946,1.2019,1.2398,1.3017,1.337,1.379,1.436,1.511,1.5807,1.6834,1.7394,1.7588,1.7699,1.7812,1.7783,1.7594,1.753,1.7397,1.7254,1.7143,1.7048,1.7004,1.6981,1.7049,1.7225,1.7369,1.7453,1.7938,1.8149,1.8305,1.8811,1.9159,1.9409,1.9755,2.0216,2.0828,2.1297,2.1593,2.1743,2.1726,2.1789,2.207,2.2511,2.2571,2.2703,2.2863,2.3048,2.3278,2.367,2.3967,2.3804,2.4075,2.4514,2.4514,2.4305,2.4451,2.4787,2.4619,2.451,2.4596,2.4957,2.4956,2.4206,2.3894,2.3626,2.3553,2.3644,2.3921,2.4057,2.4379,2.4489,2.4659,2.4659,2.4872,2.4872,2.4293,2.4336,2.4421,2.4648,2.4919,2.5066,2.5214,2.5465,2.5552,2.5495,2.5454,2.5454,2.5801,2.6236,2.6711,2.7082,2.7151,2.7282,2.7544,2.7741,0.9599,0.9624,0.9871,1.0216,1.0576,1.0904,1.11,1.1174,1.1189,1.1189,1.1189,1.1189,1.1189,1.1189,1.1189,1.1223,1.1223,1.1213,1.1238,1.1296,1.137,1.1468,1.1775,1.2116,1.2422,1.2907,1.3487,1.4256,1.5175,1.6146,1.6793,1.7338,1.7637,1.7938,1.8099,1.8224,1.8208,1.8017,1.7816,1.7578,1.7366,1.7254,1.7154,1.7132,1.7284,1.7277,1.7243,1.7845,1.7941,1.7904,1.8379,1.8559,1.8812,1.9205,1.9734,2.0208,2.0556,2.0809,2.0999,2.1078,2.1412,2.1745,2.1902,2.1978,2.222,2.2453,2.2696,2.2941,2.3531,2.3892,2.3489,2.3232,2.3592,2.3931,2.3845,2.378,2.3651,2.3456,2.3454,2.3499,2.3646,2.3831,2.3646,2.3385,2.3384,2.3638,2.3789,2.3921,2.3861,2.3738,2.3727,2.3735,2.3626,2.3582,2.3665,2.4068,2.4213,2.4488,2.4957,2.5186,2.535,2.5497,2.567,2.5839,2.5988,2.5927,2.5845,2.6066,2.6439,2.6914,2.7329,2.7447,2.7564,2.7787,2.7943,0.9599,0.9624,0.9895,1.029,1.0732,1.0806,1.0953,1.1164,1.1189,1.1189,1.1189,1.1189,1.1189,1.1189,1.1189,1.1189,1.1189,1.1189,1.1189,1.1198,1.1247,1.1272,1.1311,1.1458,1.1751,1.1995,1.2471,1.3294,1.3752,1.4841,1.6052,1.6796,1.7001,1.7518,1.8493,1.863,1.8598,1.8526,1.8208,1.7922,1.7848,1.7801,1.7785,1.7737,1.7711,1.7669,1.7467,1.7466,1.7479,1.7351,1.7376,1.759,1.7977,1.8319,1.887,1.9265,1.9755,2.0084,2.0337,2.0413,2.0753,2.0998,2.1119,2.14,2.1771,2.2092,2.2323,2.242,2.2862,2.302,2.2741,2.2503,2.267,2.2928,2.2972,2.2994,2.2931,2.2731,2.2533,2.2536,2.2577,2.2777,2.3086,2.2877,2.362,2.3858,2.3894,2.3944,2.3916,2.3599,2.353,2.3396,2.342,2.3504,2.3681,2.402,2.4202,2.4543,2.508,2.5466,2.5644,2.5758,2.5834,2.619,2.6547,2.6385,2.6349,2.6545,2.6785,2.7114,2.7485,2.7708,2.7871,2.7992,2.82,0.9599,0.9649,0.9895,1.0191,1.0487,1.0708,1.0953,1.1189,1.1189,1.1208,1.1198,1.1198,1.1208,1.1217,1.1227,1.1227,1.1236,1.1283,1.1208,1.1236,1.1246,1.1283,1.1217,1.1344,1.134,1.1419,1.1848,1.2471,1.3149,1.4184,1.533,1.6499,1.6725,1.7358,1.8596,1.8689,1.8696,1.875,1.8614,1.8335,1.8176,1.7928,1.7785,1.7816,1.7801,1.7838,1.7711,1.7701,1.7712,1.7675,1.7696,1.7889,1.8204,1.8377,1.8667,1.9042,1.929,1.9635,1.993,2.014,2.0421,2.085,2.1105,2.1221,2.1444,2.1732,2.1892,2.1941,2.1994,2.2094,2.215,2.195,2.1857,2.2036,2.2228,2.2299,2.2365,2.2099,2.1805,2.1742,2.1742,2.2066,2.2492,2.2991,2.3666,2.3892,2.3777,2.3824,2.4043,2.3979,2.4113,2.4026,2.3884,2.3932,2.3985,2.427,2.4595,2.4799,2.5251,2.56,2.5953,2.627,2.654,2.683,2.704,2.6858,2.6819,2.7048,2.7246,2.7413,2.7462,2.7619,2.7821,2.7944,2.8269,0.908,0.913,0.9624,0.9969,1.024,1.0511,1.0772,1.1012,1.1243,1.134,1.1312,1.1255,1.1246,1.1321,1.134,1.1406,1.1435,1.1482,1.151,1.1491,1.1444,1.1466,1.1453,1.1359,1.1359,1.1405,1.1546,1.2043,1.2592,1.3318,1.4376,1.5507,1.6004,1.6819,1.8048,1.8326,1.8511,1.8781,1.8781,1.8693,1.8526,1.8319,1.8224,1.824,1.8224,1.8182,1.8039,1.7985,1.7912,1.7832,1.7796,1.7926,1.8175,1.8431,1.8688,1.9011,1.9282,1.9572,1.9896,2.0088,2.0209,2.0567,2.0772,2.0772,2.1087,2.1381,2.1736,2.1828,2.1828,2.1887,2.209,2.2011,2.2098,2.2267,2.2478,2.2594,2.2616,2.252,2.2382,2.2382,2.2625,2.3167,2.3459,2.3533,2.4073,2.4103,2.3985,2.4122,2.4264,2.4306,2.4486,2.4589,2.4388,2.427,2.4225,2.4686,2.5244,2.5385,2.5413,2.5966,2.6472,2.6913,2.7289,2.7197,2.7197,2.7247,2.7268,2.7286,2.7309,2.7348,2.7439,2.7505,2.7752,2.7949,2.806,0.828,0.851,0.9154,0.9673,1.0027,1.0324,1.0605,1.0888,1.1337,1.1548,1.1539,1.1368,1.1406,1.1501,1.1567,1.168,1.1737,1.1699,1.173,1.174,1.1765,1.1636,1.157,1.1567,1.1447,1.1418,1.1486,1.1511,1.1702,1.2457,1.3245,1.4136,1.4997,1.5852,1.7077,1.7746,1.8002,1.8442,1.8643,1.8829,1.8836,1.882,1.8741,1.8757,1.8773,1.863,1.8439,1.8319,1.816,1.8097,1.8039,1.8159,1.8296,1.8562,1.8716,1.8977,1.9169,1.9505,1.9815,1.9798,1.9877,2.0019,2.0133,2.0394,2.0729,2.1023,2.1406,2.1612,2.1612,2.187,2.2071,2.2314,2.2419,2.251,2.2712,2.2931,2.2931,2.295,2.295,2.2968,2.3474,2.4036,2.411,2.4158,2.4202,2.4251,2.4375,2.4578,2.47,2.4614,2.464,2.4814,2.4808,2.4671,2.4641,2.4965,2.556,2.5624,2.5705,2.6372,2.688,2.6928,2.7,2.7119,2.7119,2.7208,2.7235,2.7214,2.7262,2.7478,2.7627,2.7803,2.7973,2.8077,2.7798,0.7627,0.8411,0.8577,0.9154,0.9995,1.0455,1.0785,1.1089,1.1543,1.173,1.173,1.1737,1.1737,1.1765,1.1765,1.1831,1.1872,1.1862,1.1841,1.1813,1.186,1.1721,1.1608,1.1595,1.14,1.1327,1.13,1.1281,1.1468,1.181,1.2568,1.3884,1.4268,1.5259,1.6622,1.7162,1.7591,1.7955,1.8396,1.8629,1.8902,1.8886,1.882,1.8804,1.8804,1.8757,1.8709,1.8709,1.8662,1.863,1.8605,1.8612,1.8657,1.8735,1.8796,1.8858,1.9049,1.9111,1.9288,1.9445,1.953,1.9448,1.9658,2.0081,2.0319,2.0474,2.0846,2.126,2.1468,2.208,2.2391,2.273,2.2918,2.2895,2.3023,2.323,2.3321,2.3358,2.3376,2.3584,2.392,2.4165,2.4165,2.4202,2.4202,2.4226,2.4226,2.4424,2.4529,2.4652,2.4813,2.4914,2.5038,2.5339,2.5416,2.5308,2.5644,2.5727,2.5879,2.6351,2.6593,2.654,2.6637,2.7073,2.7088,2.7071,2.7102,2.7328,2.7652,2.7907,2.8011,2.8139,2.8263,2.814,2.7848]},{"header":{"parameterUnit":"m.s-1","parameterCategory":1,"la1":31.0,"la2":29.5877,"lo1":-88.7671,"lo2":-86.6584,"dy":0.0162,"dx":0.0185,"nx":115,"ny":88,"refTime":"2026-04-09T12:00:00:Z","depth":0,"parameterNumber":3,"parameterNumberName":"V-component_of_WINDS"},"data":[0.0,0.0,0.0,0.0,0.0,0.0,0.0,0.0,0.0,0.0,0.0,0.0,0.0,0.0,0.0,0.0,0.0,0.0,0.0,0.0,0.0,0.0,0.0,0.0,0.0,0.0,0.0,0.0,0.0,0.0,0.0,0.0,0.0,0.0,0.0,0.0,0.0,0.0,0.0,0.0,0.0,0.0,0.0,0.0,0.0,0.0,0.0,0.0,0.0,0.0,0.0,0.0,0.0,0.0,0.0,0.0,0.0,0.0,0.0,0.0,0.0,0.0,0.0,0.0,0.0,0.0,0.0,0.0,0.0,0.0,0.0,0.0,0.0,0.0,0.0,0.0,0.0,0.0,0.0,0.0,0.0,0.0,0.0,0.0,0.0,0.0,0.0,0.0,0.0,0.0,0.0,0.0,0.0,0.0,0.0,0.0,0.0,0.0,0.0,0.0,0.0,0.0,0.0,0.0,0.0,0.0,0.0,0.0,0.0,0.0,0.0,0.0,0.0,0.0,0.0,0.0,0.0,0.0,0.0,0.0,0.0,0.0,0.0,0.0,0.0,0.0,0.0,0.0,0.0,0.0,0.0,0.0,0.0,0.0,0.0,0.0,0.0,0.0,0.0,0.0,0.0,0.0,0.0,0.0,0.0,0.0,0.0,0.0,0.0,0.0,0.0,0.0,0.0,0.0,0.0,0.0,0.0,0.0,0.0,0.0,0.0,0.0,0.0,0.0,0.0,0.0,0.0,0.0,0.0,0.0,0.0,0.0,0.0,0.0,0.0,0.0,0.0,0.0,0.0,0.0,0.0,0.0,0.0,0.0,0.0,0.0,0.0,0.0,0.0,0.0,0.0,0.0,0.0,0.0,0.0,0.0,0.0,0.0,0.0,0.0,0.0,0.0,0.0,0.0,0.0,0.0,0.0,0.0,0.0,0.0,0.0,0.0,0.0,0.0,0.0,0.0,0.0,0.0,0.0,0.0,0.0,0.0,0.0,0.0,0.0,0.0,0.0,0.0,0.0,0.0,0.0,0.0,0.0,0.0,0.0,0.0,0.0,0.0,0.0,0.0,0.0,0.0,0.0,0.0,0.0,0.0,0.0,0.0,0.0,0.0,0.0,0.0,0.0,0.0,0.0,0.0,0.0,0.0,0.0,0.0,0.0,0.0,0.0,0.0,0.0,0.0,0.0,0.0,0.0,0.0,0.0,0.0,0.0,0.0,0.0,0.0,0.0,0.0,0.0,0.0,0.0,0.0,0.0,0.0,0.0,0.0,0.0,0.0,0.0,0.0,0.0,0.0,0.0,0.0,0.0,0.0,0.0,0.0,0.0,0.0,0.0,0.0,0.0,0.0,0.0,0.0,0.0,0.0,0.0,0.0,0.0,0.0,0.0,0.0,0.0,0.0,0.0,0.0,0.0,0.0,0.0,0.0,0.0,0.0,0.0,0.0,0.0,0.0,0.0,0.0,0.0,0.0,0.0,0.0,0.0,0.0,0.0,0.0,0.0,0.0,0.0,0.0,0.0,0.0,0.0,0.0,0.0,0.0,0.0,0.0,0.0,0.0,0.0,0.0,0.0,0.0,0.0,0.0,0.0,0.0,0.0,0.0,0.0,0.0,0.0,0.0,0.0,0.0,0.0,0.0,0.0,0.0,0.0,0.0,0.0,0.0,0.0,0.0,0.0,0.0,0.0,0.0,0.0,0.0,0.0,0.0,0.0,0.0,0.0,0.0,0.0,0.0,0.0,0.0,0.0,0.0,0.0,0.0,0.0,0.0,0.0,0.0,0.0,0.0,0.0,0.0,0.0,0.0,0.0,0.0,0.0,0.0,0.0,0.0,0.0,0.0,0.0,0.0,0.0,0.0,0.0,0.0,0.0,0.0,0.0,0.0,0.0,0.0,0.0,0.0,0.0,0.0,0.0,0.0,0.0,0.0,0.0,0.0,0.0,0.0,0.0,0.0,0.0,0.0,0.0,0.0,0.0,0.0,0.0,0.0,0.0,0.0,0.0,0.0,0.0,0.0,0.0,0.0,0.0,0.0,0.0,0.0,0.0,0.0,0.0,0.0,0.0,0.0,0.0,0.0,0.0,0.0,0.0,0.0,0.0,0.0,0.0,0.0,0.0,0.0,0.0,0.0,0.0,0.0,0.0,0.0,0.0,0.0,0.0,0.0,0.0,0.0,0.0,0.0,0.0,0.0,0.0,0.0,0.0,0.0,0.0,0.0,0.0,0.0,0.0,0.0,0.0,0.0,0.0,0.0,0.0,0.0,0.0,0.0,0.0,0.0,0.0,0.0,0.0,0.0,0.0,0.0,0.0,0.0,0.0,0.0,0.0,0.0,0.0,0.0,0.0,0.0,0.0,0.0,0.0,0.0,0.0,0.0,0.0,0.0,0.0,0.0,0.0,0.0,0.0,0.0,0.0,0.0,0.0,0.0,0.0,0.0,0.0,0.0,0.0,0.0,0.0,0.0,0.0,0.0,0.0,0.0,0.0,0.0,0.0,0.0,0.0,0.0,0.0,0.0,0.0,0.0,0.0,0.0,0.0,0.0,0.0,0.0,0.0,0.0,0.0,0.0,0.0,0.0,0.0,0.0,0.0,0.0,0.0,0.0,0.0,0.0,0.0,0.0,0.0,0.0,0.0,0.0,0.0,0.0,0.0,0.0,0.0,0.0,0.0,0.0,0.0,0.0,0.0,0.0,0.0,0.0,0.0,0.0,0.0,0.0,0.0,0.0,0.0,0.0,0.0,0.0,0.0,0.0,0.0,0.0,0.0,0.0,0.0,0.0,0.0,0.0,0.0,0.0,0.0,0.0,0.0,0.0,0.0,0.0,0.0,0.0,0.0,0.0,0.0,0.0,0.0,0.0,0.0,0.0,0.0,0.0,0.0,0.0,0.0,0.0,0.0,0.0,0.0,0.0,0.0,0.0,0.0,0.0,0.0,0.0,0.0,0.0,0.0,0.0,0.0,0.0,0.0,0.0,0.0,0.0,0.0,0.0,0.0,0.0,0.0,0.0,0.0,0.0,0.0,0.0,0.0,0.0,0.0,0.0,0.0,0.0,0.0,0.0,0.0,0.0,0.0,0.0,0.0,0.0,0.0,0.0,0.0,0.0,0.0,0.0,0.0,0.0,0.0,0.0,0.0,0.0,0.0,0.0,0.0,0.0,0.0,0.0,0.0,0.0,0.0,0.0,0.0,0.0,0.0,0.0,0.0,0.0,0.0,0.0,0.0,0.0,0.0,0.0,0.0,0.0,0.0,0.0,0.0,0.0,0.0,0.0,0.0,0.0,0.0,0.0,0.0,0.0,0.0,0.0,0.0,0.0,0.0,0.0,0.0,0.0,0.0,0.0,0.0,0.0,0.0,0.0,0.0,0.0,0.0,0.0,0.0,0.0,0.0,0.0,0.0,0.0,0.0,0.0,0.0,0.0,0.0,0.0,0.0,0.0,0.0,0.0,0.0,0.0,0.0,0.0,0.0,0.0,0.0,0.0,0.0,0.0,0.0,0.0,0.0,0.0,0.0,0.0,0.0,0.0,0.0,0.0,0.0,0.0,0.0,0.0,0.0,0.0,0.0,0.0,0.0,0.0,0.0,0.0,0.0,0.0,0.0,0.0,0.0,0.0,0.0,0.0,0.0,0.0,0.0,0.0,0.0,0.0,0.0,0.0,0.0,0.0,0.0,0.0,0.0,0.0,0.0,0.0,0.0,0.0,0.0,0.0,0.0,0.0,0.0,0.0,0.0,0.0,0.0,0.0,0.0,0.0,0.0,0.0,0.0,0.0,0.0,0.0,0.0,0.0,0.0,0.0,0.0,0.0,0.0,0.0,0.0,0.0,0.0,0.0,0.0,0.0,0.0,0.0,0.0,0.0,0.0,0.0,0.0,0.0,0.0,0.0,0.0,0.0,0.0,0.0,0.0,0.0,0.0,0.0,0.0,0.0,0.0,0.0,0.0,0.0,0.0,0.0,0.0,0.0,0.0,0.0,0.0,0.0,0.0,0.0,0.0,0.0,0.0,0.0,0.0,0.0,0.0,0.0,0.0,0.0,0.0,0.0,0.0,0.0,0.0,0.0,0.0,0.0,0.0,0.0,0.0,0.0,0.0,0.0,0.0,0.0,0.0,0.0,0.0,0.0,0.0,0.0,0.0,0.0,0.0,0.0,0.0,0.0,0.0,0.0,0.0,0.0,0.0,0.0,0.0,0.0,0.0,0.0,0.0,0.0,0.0,0.0,0.0,0.0,0.0,0.0,0.0,0.0,0.0,0.0,0.1913,0.0,0.0,0.0,0.0,0.0,0.0,0.0,0.0,0.0,0.0,0.0,0.0,0.0,0.0,0.0,0.0,0.0,0.0,0.0,0.0,0.0,0.0,0.0,0.0,0.0,0.0,0.0,0.0,0.0,0.0,0.0,0.0,0.0,0.0,0.0,0.0,0.0,0.0,0.0,0.0,0.0,0.0,0.0,0.0,0.0,0.0,0.0,0.0,0.0,0.0,0.0,0.0,0.0,0.0,0.0,0.0,0.0,0.0,0.0,0.0,0.0,0.0,0.0,0.0,0.0,0.0,0.0,0.0,0.0,0.0,0.0,0.0,0.0,0.0,0.0,0.0,0.0,0.0,0.0,0.0,0.0,0.0,0.0,0.0,0.0,0.0,0.0,0.0,0.0,0.0,0.0,0.0,0.0,0.0,0.0,0.0,0.0,0.0,0.0,0.0,0.0,0.0,0.0,0.0,0.0,0.0,0.0,0.0,0.0,0.0,0.1732,0.1899,0.1927,0.1989,0.2077,0.0,0.0,0.0,0.0,0.0,0.0,0.0,0.0,0.0,0.0,0.0,0.0,0.0,0.0,0.0,0.0,0.0,0.0,0.0,0.0,0.0,0.0,0.0,0.0,0.0,0.0,0.0,0.0,0.0,0.0,0.0,0.0,0.0,0.0,0.0,0.0,0.0,0.0,0.0,0.0,0.0,0.0,0.0,0.0,0.0,0.0,0.0,0.0,0.0,0.0,0.0,0.0,0.0,0.0,0.0,0.0,0.0,0.0,0.0,0.0,0.0,0.0,0.0,0.0,0.0,0.0,0.0,0.0,0.0,0.0,0.0,0.0,0.0,0.0,0.0,0.0,0.0,0.0,0.0,0.0,0.0,0.0,0.0,0.0,0.0,0.0,0.0,0.0,0.0,0.0,0.0,0.0,0.0,0.0,0.0,0.0,0.0,0.0,0.0,0.0,0.0,0.0,0.0,0.0,0.0,0.0,0.0,0.0,0.0,0.0,0.0,0.0,0.2133,0.2219,0.2306,0.0,0.0,0.0,0.0,0.0,0.0,0.0,0.0,0.0,0.0,0.0,0.0,0.0,0.0,0.0,0.0,0.0,0.0,0.0,0.0,0.0,0.0,0.0,0.0,0.0,0.0,0.0,0.0,0.0,0.0,0.0,0.0,0.0,0.0,0.0,0.0,0.0,0.0,0.0,0.0,0.0,0.0,0.0,0.0,0.0,0.0,0.0,0.0,0.0,0.0,0.0,0.0,0.0,0.0,0.0,0.0,0.0,0.0,0.0,0.0,0.0,0.0,0.0,0.0,0.0,0.0,0.0,0.0,0.0,0.0,0.0,0.0,0.0,0.0,0.0,0.0,0.0,0.0,0.0,0.0,0.0,0.0,0.0,0.0,0.0,0.0,0.0,0.0,0.0,0.0,0.0,0.0,0.0,0.0,0.0,0.0,0.0,0.0,0.0,0.0,0.0,0.0,0.0,0.0,0.0,0.0,0.0,0.0,0.0,0.0,0.2039,0.2355,0.2533,0.0,0.2668,0.0,0.0,0.0,0.0,0.0,0.0,0.0,0.0,0.0,0.0,0.0,0.0,0.0,0.0,0.0,0.0,0.0,0.0,0.0,0.0,0.0,0.0,0.0,0.0,0.0,0.0,0.0,0.0,0.0,0.0,0.0,0.0,0.0,0.0,0.0,0.0,0.0,0.0,0.0,0.0,0.0,0.0,0.0,0.0,0.0,0.0,0.0,0.0,0.0,0.0,0.0,0.0,0.0,0.0,0.0,0.0,0.0,0.0,0.0,0.0,0.0,0.0,0.0,0.0,0.0,0.0,0.0,0.0,0.0,0.0,0.0,0.0,0.0,0.0,0.0,0.0,0.0,0.0,0.0,0.0,0.0,0.0,0.0,0.0,0.0,0.0,0.0,0.0,0.0,0.0,0.0,0.0,0.0,0.0,0.0,0.0,0.0,0.0,0.0,0.0,0.0,0.0,0.0,0.0,0.0,0.0,0.0,0.0,0.0,0.0,0.0,0.2625,0.2774,0.2874,0.0,0.0,0.0,0.0,0.0,0.0,0.0,0.0,0.0,0.0,0.0,0.0,0.0,0.0,0.0,0.0,0.0,0.0,0.0,0.0,0.0,0.0,0.0,0.0,0.0,0.0,0.0,0.0,0.0,0.0,0.0,0.0,0.0,0.0,0.0,0.0,0.0,0.0,0.0,0.0,0.0,0.0,0.0,0.0,0.0,0.0,0.0,0.0,0.0,0.0,0.0,0.0,0.0,0.0,0.0,0.0,0.0,0.0,0.0,0.0,0.0,0.0,0.0,0.0,0.0,0.0,0.0,0.0,0.0,0.0,0.0,0.0,0.0,0.0,0.0,0.0,0.0,0.0,0.0,0.0,0.0,0.0,0.0,0.0,0.0,0.0,0.0,0.0,0.0,0.0,0.0,0.0,0.0,0.0,0.0,0.0,0.0,0.0,0.0,0.0,0.0,0.0,0.0,0.0,0.0,0.0,0.0,0.0,0.0,0.0,0.2276,0.0,0.2983,0.3076,0.3097,0.2995,0.0,0.0,0.0,0.0,0.0,0.0,0.0,0.0,0.0,0.0,0.0,0.0,0.0,0.0,0.0,0.0,0.0,0.0,0.0,0.0,0.0,0.0,0.0,0.0,0.0,0.0,0.0,0.0,0.0,0.0,0.0,0.0,0.0,0.0,0.0,0.0,0.0,0.0,0.0,0.0,0.0,0.0,0.0,0.0,0.0,0.0,0.0,0.0,0.0,0.0,0.0,0.0,0.0,0.0,0.0,0.0,0.0,0.0,0.0,0.0,0.0,0.0,0.0,0.0,0.0,0.0,0.0,0.0,0.0,0.0,0.0,0.0,0.0,0.0,0.0,0.0,0.0,0.0,0.0,0.0,0.0,0.0,0.0,0.0,0.0,0.0,0.0,0.0,0.0,0.0,0.0,0.0,0.0,0.0,0.0,0.0,0.0,0.0,0.0,0.0,0.0,0.0,0.0,0.0,0.0,0.0,0.0,0.0,0.0,0.2639,0.2926,0.3457,0.3472,0.333,0.0,0.0,0.0,0.0,0.0,0.0,0.0,0.0,0.0,0.0,0.0,0.0,0.0,0.0,0.0,0.0,0.0,0.0,0.0,0.0,0.0,0.0,0.0,0.0,0.0,0.0,0.0,0.0,0.0,0.0,0.0,0.0,0.0,0.0,0.0,0.0,0.0,0.0,0.0,0.0,0.0,0.0,0.0,0.0,0.0,0.0,0.0,0.0,0.0,0.0,0.0,0.0,0.0,0.0,0.0,0.0,0.0,0.0,0.0,0.0,0.0,0.0,0.0,0.0,0.0,0.0,0.0,0.0,0.0,0.0,0.0,0.0,0.0,0.0,0.0,0.0,0.0,0.0,0.0,0.0,0.0,0.0,0.0,0.0,0.0,0.0,0.0,0.0,0.0,0.0,0.0,0.0,0.0,0.0,0.0,0.0,0.0,0.0,0.0,0.0,0.0,0.0,0.0,0.0,0.0,0.0,0.0,0.0,0.0,0.2139,0.259,0.3144,0.3776,0.3398,0.3246,0.0,0.0,0.0,0.0,0.0,0.0,0.0,0.0,0.0,0.0,0.0,0.0,0.0,0.0,0.0,0.0,0.0,0.0,0.0,0.0,0.0,0.0,0.0,0.0,0.0,0.0,0.0,0.0,0.0,0.0,0.0,0.0,0.0,0.0,0.0,0.0,0.0,0.0,0.0,0.0,0.0,0.0,0.0,0.0,0.0,0.0,0.0,0.0,0.0,0.0,0.0,0.0,0.0,0.0,0.0,0.0,0.0,0.0,0.0,0.0,0.0,0.0,0.0,0.0,0.0,0.0,0.0,0.0,0.0,0.0,0.0,0.0,0.0,0.0,0.0,0.0,0.0,0.0,0.0,0.0,0.0,0.0,0.0,0.0,0.0,0.0,0.0,0.0,0.0,0.0,0.0,0.0,0.0,0.0,0.0,0.0,0.0,0.0,0.0,0.0,0.0,0.0,0.0,0.0,0.0,0.0,0.0,0.0,0.0,0.2377,0.0,0.3422,0.0,0.3449,0.3208,0.0,0.0,0.0,0.0,0.0,0.0,0.0,0.0,0.0,0.0,0.0,0.0,0.0,0.0,0.0,0.0,0.0,0.0,0.0,0.0,0.0,0.0,0.0,0.0,0.0,0.0,0.0,0.0,0.0,0.0,0.0,0.0,0.0,0.0,0.0,0.0,0.0,0.0,0.0,0.0,0.0,0.0,0.0,0.0,0.0,0.0,0.0,0.0,0.0,0.0,0.0,0.0,0.0,0.0,0.0,0.0,0.0,0.0,0.0,0.0,0.0,0.0,0.0,0.0,0.0,0.0,0.0,0.0,0.0,0.0,0.0,0.0,0.0,0.0,0.0,0.0,0.0,0.0,0.0,0.0,0.0,0.0,0.0,0.0,0.0,0.0,0.0,0.0,0.0,0.0,0.0,0.0,0.0,0.0,0.0,0.0,0.0,0.0,0.0,0.0,0.0,0.0,0.0,0.0,0.0,0.0,0.0,0.0,0.2257,0.3333,0.3628,0.3733,0.3609,0.3576,0.3221,0.0,0.0,0.0,0.0,0.0,0.0,0.0,0.0,0.0,0.0,0.0,0.0,0.0,0.0,0.0,0.0,0.0,0.0,0.0,0.0,0.0,0.0,0.0,0.0,0.0,0.0,0.0,0.0,0.0,0.0,0.0,0.0,0.0,0.0,0.0,0.0,0.0,0.0,0.0,0.0,0.0,0.0,0.0,0.0,0.0,0.0,0.0,0.0,0.0,0.0,0.0,0.0,0.0,0.0,0.0,0.0,0.0,0.0,0.0,0.0,0.0,0.0,0.0,0.0,0.0,0.0,0.0,0.0,0.0,0.0,0.0,0.0,0.0,0.0,0.0,0.0,0.0,0.0,0.0,0.0,0.0,0.0,0.0,0.0,0.0,0.0,0.0,0.0,0.0,0.0,0.0,0.0,0.0,0.0,0.0,0.0,0.0,0.0,0.0,0.0,0.0,0.0,0.0,0.0,0.0,0.0,0.0,0.0,0.0,0.299,0.3666,0.4047,0.4053,0.3506,0.3219,0.0,0.0,0.0,0.0,0.0,0.0,0.0,0.0,0.0,0.0,0.0,0.0,0.0,0.0,0.0,0.0,0.0,0.0,0.0,0.0,0.0,0.0,0.0,0.0,0.0,0.0,0.0,0.0,0.0,0.0,0.0,0.0,0.0,0.0,0.0,0.0,0.0,0.0,0.0,0.0,0.0,0.0,0.0,0.0,0.0,0.0,0.0,0.0,0.0,0.0,0.0,0.0,0.0,0.0,0.0,0.0,0.0,0.0,0.0,0.0,0.0,0.0,0.0,0.0,0.0,0.0,0.0,0.0,0.0,0.0,0.0,0.0,0.0,0.0,0.0,0.0,0.0,0.0,0.0,0.0,0.0,0.0,0.0,0.0,0.0,0.0,0.0,0.0,0.0,0.0,0.0,0.0,0.0,0.0,0.0,0.0,0.0,0.0,0.0,0.0,0.0,0.0,0.0,0.0,0.0,0.0,0.0,0.0,0.0,0.3806,0.4283,0.4464,0.427,0.3734,0.3521,0.3646,0.0,0.0,0.0,0.0,0.0,0.0,0.0,0.0,0.0,0.0,0.0,0.0,0.0,0.0,0.0,0.0,0.0,0.0,0.0,0.0,0.0,0.0,0.0,0.0,0.0,0.0,0.0,0.0,0.0,0.0,0.0,0.0,0.0,0.0,0.0,0.0,0.0,0.0,0.0,0.0,0.0,0.0,0.0,0.0,0.0,0.0,0.0,0.0,0.0,0.0,0.0,0.0,0.0,0.0,0.0,0.0,0.0,0.0,0.0,0.0,0.0,0.0,0.0,0.0,0.0,0.0,0.0,0.0,0.0,0.0,0.0,0.0,0.0,0.0,0.0,0.0,0.0,0.0,0.0,0.0,0.0,0.0,0.0,0.0,0.0,0.0,0.0,0.0,0.0,0.0,0.0,0.0,0.0,0.0,0.0,0.0,0.0,0.0,0.0,0.0,0.0,0.0,0.0,0.0,0.0,0.0,0.0,0.0,0.5332,0.5358,0.5001,0.4336,0.4231,0.4043,0.0,0.0,0.0,0.0,0.0,0.0,0.0,0.0,0.0,0.0,0.0,0.0,0.0,0.0,0.0,0.0,0.0,0.0,0.0,0.0,0.0,0.0,0.0,0.0,0.0,0.0,0.0,0.0,0.0,0.0,0.0,0.0,0.0,0.0,0.0,0.0,0.0,0.0,0.0,0.0,0.0,0.0,0.0,0.0,0.0,0.0,0.0,0.0,0.0,0.0,0.0,0.0,0.0,0.0,0.0,0.0,0.0,0.0,0.0,0.0,0.0,0.0,0.0,0.0,0.0,0.0,0.0,0.0,0.0,0.0,0.0,0.0,0.0,0.0,0.0,0.0,0.0,0.0,0.0,0.0,0.0,0.0,0.0,0.0,0.0,0.0,0.0,0.0,0.0,0.0,0.0,0.0,0.0,0.0,0.0,0.0,0.0,0.0,0.0,0.0,0.0,0.0,0.0,0.0,0.0,0.0,0.0,0.0,0.0,0.4913,0.5478,0.5647,0.5301,0.459,0.4227,0.0,0.0,0.0,0.0,0.0,0.0,0.0,0.0,0.0,0.0,0.0,0.0,0.0,0.0,0.0,0.0,0.0,0.0,0.0,0.0,0.0,0.0,0.0,0.0,0.0,0.0,0.0,0.0,0.0,0.0,0.0,0.0,0.0,0.0,0.0,0.0,0.0,0.0,0.0,0.0,0.0,0.0,0.0,0.0,0.0,0.0,0.0,0.0,0.0,0.0,0.0,0.0,0.0,0.0,0.0,0.0,0.0,0.0,0.0,0.0,0.0,0.0,0.0,0.0,0.0,0.0,0.0,0.0,0.0,0.0,0.0,0.0,0.0,0.0,0.0,0.0,0.0,0.0,0.0,0.0,0.0,0.0,0.0,0.0,0.0,0.0,0.0,0.0,0.0,0.0,0.0,0.0,0.0,0.0,0.0,0.0,0.0,0.0,0.0,0.0,0.0,0.0,0.0,0.0,0.0,0.0,0.0,0.0,0.5186,0.5245,0.5561,0.5811,0.5944,0.5254,0.4796,0.0,0.0,0.0,0.0,0.0,0.0,0.0,0.0,0.0,0.0,0.0,0.0,0.0,0.0,0.0,0.0,0.0,0.0,0.0,0.0,0.0,0.0,0.0,0.0,0.0,0.0,0.0,0.0,0.0,0.0,0.0,0.0,0.0,0.0,0.0,0.0,0.0,0.0,0.0,0.0,0.0,0.0,0.0,0.0,0.0,0.0,0.0,0.0,0.0,0.0,0.0,0.0,0.0,0.0,0.0,0.0,0.0,0.0,0.0,0.0,0.0,0.0,0.0,0.0,0.0,0.0,0.0,0.0,0.0,0.0,0.0,0.0,0.0,0.0,0.0,0.0,0.0,0.0,0.0,0.0,0.0,0.0,0.0,0.0,0.0,0.0,0.0,0.0,0.0,0.0,0.0,0.0,0.0,0.0,0.0,0.0,0.0,0.0,0.0,0.0,0.0,0.0,0.0,0.0,0.0,0.0,0.0,0.0,0.5291,0.5869,0.5595,0.5723,0.6214,0.5898,0.5477,0.0,0.0,0.0,0.0,0.0,0.0,0.0,0.0,0.0,0.0,0.0,0.0,0.0,0.0,0.0,0.0,0.0,0.0,0.0,0.0,0.0,0.0,0.0,0.0,0.0,0.0,0.0,0.0,0.0,0.0,0.0,0.0,0.0,0.0,0.0,0.0,0.0,0.0,0.0,0.0,0.0,0.0,0.0,0.0,0.0,0.0,0.0,0.0,0.0,0.0,0.0,0.0,0.0,0.0,0.0,0.0,0.0,0.0,0.0,0.0,0.0,0.0,0.0,0.0,0.0,0.0,0.0,0.0,0.0,0.0,0.0,0.0,0.0,0.0,0.0,0.0,0.0,0.0,0.0,0.0,0.0,0.0,0.0,0.0,0.0,0.0,0.0,0.0,0.0,0.0,0.0,0.0,0.0,0.0,0.0,0.0,0.0,0.0,0.0,0.0,0.0,0.0,0.0,0.0,0.0,0.0,0.0,0.0,0.5844,0.508,0.559,0.5878,0.5896,0.5492,0.5278,0.0,0.0,0.0,0.0,0.0,0.0,0.0,0.0,0.0,0.0,0.0,0.0,0.0,0.0,0.0,0.0,0.0,0.0,0.0,0.0,0.0,0.0,0.0,0.0,0.0,0.0,0.0,0.0,0.0,0.0,0.0,0.0,0.0,0.0,0.0,0.0,0.0,0.0,0.0,0.0,0.0,0.0,0.0,0.0,0.0,0.0,0.0,0.0,0.3105,0.0,0.0,0.0,0.0,0.0,0.0,0.0,0.0,0.0,0.0,0.0,0.0,0.0,0.0,0.0,0.0,0.0,0.0,0.0,0.0,0.0,0.0,0.0,0.0,0.0,0.0,0.0,0.0,0.0,0.0,0.0,0.0,0.0,0.0,0.0,0.0,0.0,0.0,0.0,0.0,0.0,0.0,0.0,0.0,0.0,0.0,0.0,0.0,0.0,0.0,0.0,0.0,0.0,0.0,0.0,0.0,0.0,0.0,0.0,0.5716,0.5132,0.551,0.5769,0.5878,0.5474,0.5397,0.0,0.0,0.0,0.0,0.0,0.0,0.0,0.0,0.0,0.0,0.0,0.0,0.0,0.0,0.0,0.0,0.0,0.0,0.0,0.0,0.0,0.0,0.0,0.0,0.0,0.0,0.0,0.0,0.0,0.0,0.0,0.0,0.0,0.0,0.0,0.0,0.0,0.0,0.0,0.0,0.0,0.0,0.0,0.0,0.0,0.0,0.0,0.0,0.0,0.0,0.0,0.0,0.0,0.0,0.0,0.0,0.0,0.0,0.0,0.0,0.0,0.0,0.0,0.0,0.0,0.0,0.0,0.0,0.0,0.0,0.0,0.0,0.0,0.0,0.0,0.0,0.0,0.0,0.0,0.0,0.0,0.0,0.0,0.0,0.0,0.0,0.0,0.0,0.0,0.0,0.0,0.0,0.0,0.0,0.0,0.0,0.0,0.0,0.0,0.0,0.0,0.0,0.0,0.0,0.0,0.0,0.0,0.5296,0.5466,0.5406,0.5393,0.5623,0.6089,0.5719,0.5714,0.6177,0.0,0.0,0.0,0.0,0.0,0.0,0.0,0.0,0.0,0.0,0.0,0.0,0.0,0.0,0.0,0.0,0.0,0.0,0.0,0.0,0.0,0.0,0.0,0.0,0.0,0.0,0.0,0.0,0.0,0.0,0.0,0.0,0.0,0.0,0.0,0.0,0.0,0.0,0.1841,0.2243,0.0,0.0,0.0,0.0,0.0,0.0,0.0,0.0,0.4473,0.0,0.0,0.0,0.0,0.0,0.0,0.0,0.0,0.0,0.0,0.0,0.0,0.0,0.0,0.0,0.0,0.0,0.0,0.0,0.0,0.0,0.0,0.0,0.0,0.0,0.0,0.0,0.0,0.0,0.0,0.0,0.0,0.0,0.0,0.0,0.0,0.0,0.0,0.0,0.0,0.0,0.0,0.0,0.0,0.0,0.0,0.0,0.0,0.0,0.0,0.0,0.0,0.0,0.0,0.0,0.0,0.5285,0.5699,0.5735,0.5417,0.5393,0.5789,0.6529,0.6184,0.6339,0.6984,0.0,0.0,0.0,0.0,0.0,0.0,0.0,0.0,0.0,0.0,0.0,0.0,0.0,0.0,0.0,0.0,0.0,0.0,0.0,0.0,0.0,0.0,0.0,0.0,0.0,0.0,0.0,0.0,0.0,0.0,0.0,0.0,0.0,0.0,0.0,0.0,0.0,0.0,0.0,0.2832,0.3046,0.0,0.0,0.0,0.0,0.0,0.0,0.0,0.0,0.5405,0.0,0.0,0.0,0.0,0.0,0.0,0.0,0.0,0.0,0.0,0.0,0.0,0.0,0.0,0.0,0.0,0.0,0.0,0.0,0.0,0.0,0.0,0.0,0.0,0.0,0.0,0.0,0.0,0.0,0.0,0.0,0.0,0.0,0.0,0.0,0.0,0.0,0.0,0.0,0.0,0.0,0.0,0.0,0.0,0.0,0.0,0.0,0.0,0.0,0.0,0.0,0.0,0.0,0.0,0.0,0.5632,0.5498,0.556,0.589,0.5495,0.5796,0.6819,0.6329,0.6433,0.0,0.0,0.0,0.0,0.0,0.0,0.0,0.0,0.0,0.0,0.0,0.0,0.0,0.0,0.0,0.0,0.0,0.0,0.0,0.0,0.0,0.0,0.0,0.0,0.0,0.0,0.0,0.0,0.0,0.0,0.0,0.0,0.0,0.0,0.0,0.0,0.0,0.0,0.0,0.0,0.3223,0.3568,0.364,0.0,0.0,0.0,0.0,0.0,0.0,0.4928,0.548,0.0,0.0,0.0,0.0,0.0,0.0,0.0,0.0,0.0,0.0,0.0,0.0,0.0,0.0,0.0,0.0,0.0,0.0,0.0,0.0,0.0,0.0,0.0,0.0,0.0,0.0,0.0,0.0,0.0,0.0,0.0,0.0,0.0,0.0,0.0,0.0,0.0,0.0,0.0,0.0,0.0,0.0,0.0,0.0,0.0,0.0,0.0,0.0,0.0,0.0,0.0,0.0,0.0,0.0,0.0,0.599,0.532,0.5469,0.6536,0.5732,0.5884,0.7164,0.6491,0.6495,0.0,0.0,0.0,0.0,0.0,0.0,0.0,0.0,0.0,0.0,0.0,0.0,0.0,0.0,0.0,0.0,0.0,0.0,0.0,0.0,0.0,0.0,0.0,0.0,0.0,0.0,0.0,0.0,0.0,0.0,0.0,0.0,0.0,0.0,0.0,0.0,0.0,0.0,0.0,0.0,0.0,0.4015,0.3908,0.3982,0.0,0.0,0.0,0.0,0.4344,0.52,0.0,0.0,0.0,0.0,0.0,0.0,0.0,0.0,0.0,0.0,0.0,0.0,0.0,0.0,0.0,0.0,0.0,0.0,0.0,0.0,0.0,0.0,0.0,0.0,0.0,0.0,0.0,0.0,0.0,0.0,0.0,0.0,0.0,0.0,0.0,0.0,0.0,0.0,0.0,0.0,0.0,0.0,0.0,0.0,0.0,0.0,0.0,0.0,0.0,0.0,0.0,0.0,0.0,0.0,0.0,0.0,0.6255,0.5676,0.6023,0.7316,0.6101,0.6213,0.7886,0.7035,0.6835,0.0,0.0,0.0,0.0,0.0,0.0,0.0,0.0,0.0,0.0,0.0,0.0,0.0,0.0,0.0,0.0,0.0,0.0,0.0,0.0,0.0,0.0,0.0,0.0,0.0,0.0,0.0,0.0,0.0,0.0,0.0,0.0,0.0,0.0,0.0,0.0,0.0,0.0,0.0,0.0,0.0,0.4309,0.4473,0.418,0.4147,0.0,0.0,0.0,0.4769,0.5417,0.0,0.0,0.0,0.0,0.0,0.0,0.0,0.0,0.0,0.0,0.0,0.0,0.0,0.0,0.0,0.0,0.0,0.0,0.0,0.0,0.0,0.0,0.0,0.0,0.0,0.0,0.0,0.0,0.0,0.0,0.0,0.0,0.0,0.0,0.0,0.0,0.0,0.0,0.0,0.0,0.0,0.0,0.0,0.0,0.0,0.0,0.0,0.0,0.0,0.0,0.0,0.0,0.0,0.0,0.0,0.4736,0.6108,0.6034,0.6457,0.7421,0.6892,0.717,0.8408,0.7421,0.7157,0.0,0.0,0.0,0.0,0.0,0.0,0.0,0.0,0.0,0.0,0.0,0.0,0.0,0.0,0.0,0.0,0.0,0.0,0.0,0.0,0.0,0.0,0.0,0.0,0.0,0.0,0.0,0.0,0.0,0.0,0.0,0.0,0.0,0.0,0.0,0.0,0.0,0.0,0.0,0.0,0.0,0.0,0.4524,0.4534,0.0,0.0,0.0,0.4634,0.5452,0.0,0.0,0.0,0.0,0.0,0.0,0.0,0.0,0.0,0.0,0.0,0.0,0.0,0.0,0.0,0.0,0.0,0.0,0.0,0.0,0.0,0.0,0.0,0.0,0.0,0.0,0.0,0.0,0.0,0.0,0.0,0.0,0.0,0.0,0.0,0.0,0.0,0.0,0.0,0.0,0.0,0.0,0.0,0.0,0.0,0.0,0.0,0.0,0.0,0.0,0.0,0.0,0.0,0.0,0.0,0.0,0.0,0.6113,0.6402,0.6918,0.7645,0.7606,0.8005,0.885,0.7738,0.0,0.0,0.0,0.0,0.0,0.0,0.0,0.0,0.0,0.0,0.0,0.0,0.0,0.0,0.0,0.0,0.0,0.0,0.0,0.0,0.0,0.0,0.0,0.0,0.0,0.0,0.0,0.1461,0.0,0.0,0.0,0.0,0.0,0.0,0.0,0.0,0.0,0.0,0.0,0.0,0.0,0.0,0.4468,0.4674,0.4949,0.5251,0.0,0.0,0.5465,0.6083,0.7031,0.7414,0.0,0.0,0.0,0.0,0.0,0.0,0.0,0.0,0.0,0.0,0.0,0.0,0.0,0.0,0.0,0.0,0.0,0.0,0.0,0.0,0.0,0.0,0.0,0.0,0.0,0.0,0.0,0.0,0.0,0.0,0.0,0.0,0.0,0.0,0.0,0.0,0.0,0.0,0.0,0.0,0.0,0.0,0.0,0.0,0.0,0.0,0.0,0.0,0.0,0.0,0.0,0.0,0.0,0.0,0.0,0.6425,0.6801,0.7441,0.8356,0.8004,0.8305,0.9384,0.7925,0.7328,0.0,0.0,0.0,0.0,0.0,0.0,0.0,0.0,0.0,0.0,0.0,0.0,0.0,0.0,0.0,0.0,0.0,0.0,0.0,0.0,0.0,0.0,0.0,0.0,0.0,0.0,0.0,0.0,0.0,0.0,0.0,0.0,0.0,0.0,0.0,0.0,0.0,0.0,0.0,0.0,0.0,0.4806,0.5204,0.5368,0.563,0.0,0.0,0.6101,0.6576,0.7248,0.7302,0.6066,0.0,0.0,0.0,0.0,0.0,0.0,0.0,0.0,0.0,0.0,0.0,0.0,0.0,0.0,0.0,0.0,0.0,0.0,0.0,0.0,0.0,0.0,0.0,0.0,0.0,0.0,0.0,0.0,0.0,0.0,0.0,0.0,0.0,0.0,0.0,0.0,0.0,0.0,0.0,0.0,0.0,0.0,0.0,0.0,0.0,0.0,0.0,0.0,0.0,0.0,0.0,0.0,0.0,0.5621,0.6799,0.7648,0.8232,0.8621,0.8771,0.8909,0.9001,0.8516,0.8194,0.0,0.0,0.0,0.0,0.0,0.0,0.0,0.0,0.0,0.0,0.0,0.0,0.0,0.0,0.0,0.0,0.0,0.0,0.0,0.0,0.0,0.0,0.0,0.0,0.0,0.0,0.0,0.0,0.1856,0.1971,0.2064,0.0,0.0,0.0,0.0,0.0,0.0,0.0,0.0,0.0,0.0,0.5174,0.5344,0.5554,0.0,0.0,0.6603,0.6643,0.7237,0.753,0.753,0.7044,0.6315,0.0,0.0,0.0,0.0,0.0,0.0,0.0,0.0,0.0,0.0,0.0,0.0,0.0,0.0,0.0,0.0,0.0,0.0,0.0,0.0,0.0,0.0,0.0,0.0,0.0,0.0,0.0,0.0,0.0,0.0,0.0,0.0,0.0,0.0,0.0,0.0,0.0,0.0,0.0,0.0,0.0,0.0,0.0,0.0,0.0,0.0,0.0,0.0,0.0,0.0,0.0,0.0,0.6083,0.7015,0.813,0.8694,0.8694,0.9228,0.9325,0.8959,0.8979,0.8758,0.0,0.0,0.0,0.0,0.0,0.0,0.0,0.0,0.0,0.0,0.0,0.0,0.0,0.0,0.0,0.0,0.0,0.0,0.0,0.0,0.0,0.0,0.0,0.0,0.0,0.0,0.0,0.0,0.2166,0.2313,0.2405,0.0,0.0,0.0,0.0,0.0,0.0,0.0,0.0,0.0,0.0,0.5414,0.5742,0.5921,0.63,0.7162,0.7001,0.7006,0.7597,0.7691,0.7584,0.719,0.0,0.0,0.0,0.0,0.0,0.0,0.0,0.0,0.0,0.0,0.0,0.0,0.0,0.0,0.0,0.0,0.0,0.0,0.0,0.0,0.0,0.0,0.0,0.0,0.0,0.0,0.0,0.0,0.0,0.0,0.0,0.0,0.0,0.0,0.0,0.0,0.0,0.0,0.0,0.0,0.0,0.0,0.0,0.0,0.0,0.0,0.0,0.0,0.0,0.0,0.0,0.0,0.0,0.0,0.7109,0.8188,0.8718,0.8724,0.9235,0.9486,0.9451,0.9157,0.8715,0.8123,0.0,0.0,0.0,0.0,0.0,0.0,0.0,0.0,0.0,0.0,0.0,0.0,0.0,0.0,0.0,0.0,0.0,0.0,0.0,0.0,0.0,0.0,0.0,0.0,0.0,0.0,0.2325,0.2237,0.2213,0.0,0.0,0.0,0.0,0.0,0.0,0.0,0.0,0.0,0.0,0.5008,0.5416,0.6501,0.6565,0.6762,0.7404,0.72,0.7143,0.7607,0.766,0.7268,0.0,0.0,0.0,0.0,0.0,0.0,0.0,0.0,0.0,0.0,0.0,0.0,0.0,0.0,0.0,0.0,0.0,0.0,0.0,0.0,0.0,0.0,0.0,0.0,0.0,0.0,0.0,0.8402,0.8324,0.0,0.0,0.0,0.0,0.0,0.0,0.0,0.0,0.0,0.0,0.0,0.9493,0.9833,0.0,0.0,0.0,0.0,0.0,0.0,0.0,0.0,0.0,0.0,0.0,0.0,0.7119,0.7642,0.867,0.9216,0.9235,0.9414,0.9383,0.9188,0.9548,0.9326,0.8468,0.0,0.0,0.0,0.0,0.0,0.0,0.0,0.0,0.0,0.0,0.0,0.0,0.0,0.0,0.0,0.0,0.0,0.0,0.0,0.0,0.0,0.0,0.0,0.0,0.0,0.2961,0.0,0.0,0.0,0.0,0.0,0.0,0.0,0.0,0.0,0.0,0.0,0.4397,0.5925,0.6048,0.6259,0.6995,0.7407,0.7722,0.0,0.0,0.0,0.0,0.0,0.0,0.0,0.0,0.0,0.0,0.0,0.0,0.0,0.0,0.719,0.5466,0.5026,0.5144,0.5917,0.0,0.0,0.0,0.0,0.0,0.0,0.0,0.0,0.0,0.0,0.0,0.0,0.0,0.0,0.0,0.0,0.9967,0.0,0.0,0.0,0.0,0.0,0.0,0.0,0.0,1.0444,1.0759,1.1055,1.1392,1.0987,0.0,1.0502,0.9818,0.0,0.0,0.0,0.0,0.0,0.0,0.0,0.0,0.7685,0.8279,0.9143,0.9645,0.9697,0.9704,0.9609,0.9409,0.9707,0.961,0.9036,0.8417,0.7598,0.0,0.0,0.0,0.0,0.0,0.0,0.0,0.0,0.0,0.0,0.0,0.0,0.0,0.0,0.0,0.0,0.0,0.0,0.0,0.0,0.0,0.0,0.0,0.3308,0.0,0.0,0.0,0.0,0.0,0.0,0.0,0.0,0.0,0.443,0.4249,0.4841,0.6793,0.7034,0.723,0.7775,0.0,0.0,0.0,0.0,0.0,0.0,0.0,0.7212,0.9644,0.9857,0.94,0.8435,0.8158,0.803,0.7966,0.0,0.0,0.6731,0.6202,0.6383,0.7602,0.7901,0.8008,0.8257,0.9265,1.0091,0.0,0.0,0.0,0.0,0.0,0.0,0.0,0.0,1.1701,1.178,0.0,1.1869,0.0,0.0,0.0,0.0,0.0,0.0,0.0,0.0,1.2205,1.2606,1.2442,1.2457,1.2451,1.243,1.2455,1.2173,1.1479,0.9084,0.0,0.0,0.0,0.0,0.0,0.0,0.8302,0.8982,0.9529,0.9886,1.0103,1.0097,1.0116,1.009,0.976,0.9663,0.9757,0.9004,0.8039,0.6898,0.665,0.0,0.0,0.0,0.0,0.0,0.0,0.0,0.0,0.0,0.0,0.0,0.0,0.0,0.0,0.0,0.0,0.0,0.0,0.0,0.0,0.3531,0.0,0.0,0.0,0.0,0.0,0.0,0.0,0.0,0.0,0.0,0.514,0.4719,0.5218,0.7448,0.0,0.0,0.0,0.0,0.8136,0.9072,0.8678,0.8394,0.8749,0.8209,0.8078,0.9038,0.0,0.0,0.9066,0.8784,0.8659,0.8476,0.8643,0.8539,0.7881,0.7701,0.8178,0.9636,0.939,0.9102,0.9595,1.0679,1.158,1.6447,0.0,0.0,0.0,0.0,1.3747,1.3762,1.4213,1.353,1.3629,1.4278,1.3686,0.0,0.0,0.0,0.0,0.0,0.0,1.2817,1.2672,1.2944,1.3217,1.3554,1.3527,1.3329,1.2984,1.3126,1.2934,1.2368,1.1771,1.0234,0.7844,0.0,0.0,0.0,0.0,0.9006,0.923,0.9791,1.0122,1.0173,1.023,1.0291,1.0441,1.0508,1.0303,0.9889,0.9594,0.8989,0.806,0.7512,0.0,0.0,0.0,0.0,0.0,0.0,0.0,0.0,0.0,0.0,0.0,0.0,0.0,0.0,0.0,0.0,0.0,0.0,0.0,0.5,0.4714,0.4646,0.0,0.0,0.0,0.0,0.0,0.0,0.0,0.0,0.0,0.8561,0.7577,0.7109,0.0,0.0,0.9394,0.8969,0.9163,0.9411,0.9592,0.0,0.0,0.0,0.9036,0.9361,1.0239,1.0319,1.01,0.9727,0.9485,0.929,0.9152,0.9637,0.9854,0.9188,0.8695,0.902,1.0407,1.067,1.0619,1.0985,1.1829,1.2524,1.8897,1.6916,1.6364,1.6152,1.6134,1.571,1.5791,1.6147,1.5585,1.5782,1.6551,1.6048,1.5266,1.4249,1.3459,0.0,0.0,0.0,1.3872,1.3926,1.3869,1.4092,1.4513,1.4517,1.4351,1.4022,1.3976,1.3873,1.3749,1.3656,1.2538,1.0451,0.0,0.0,0.8955,0.9674,1.0214,1.0564,1.0939,1.1024,1.081,1.0628,1.0612,1.0733,1.0839,1.067,1.0323,1.0153,0.972,0.9019,0.8531,0.7781,0.0,0.0,0.0,0.0,0.0,0.0,0.0,0.0,0.0,0.0,0.0,0.3251,0.0,0.0,0.0,0.0,0.4065,0.55,0.5992,0.5617,0.0,0.0,0.0,0.0,0.0,0.0,0.0,0.5558,0.6569,0.8139,1.0454,0.9795,0.9166,0.9449,0.9849,0.9971,0.9585,0.0,1.0006,1.0128,1.0226,1.0096,0.9622,0.9771,1.021,1.0926,1.0622,1.0339,1.0413,1.0177,0.9928,0.9906,1.0337,1.0643,1.0298,0.9916,1.0124,1.1545,1.1881,1.1864,1.1809,1.2394,1.2915,2.1069,2.0827,1.9546,1.8493,1.772,1.797,1.7868,1.7532,1.754,1.7916,1.8499,1.8499,1.7684,1.6205,1.4747,0.0,0.0,1.4485,1.487,1.5108,1.5022,1.5222,1.555,1.5438,1.5393,1.5378,1.4909,1.4889,1.5246,1.4873,1.4175,1.3246,1.2406,1.1756,1.1355,1.1368,1.1789,1.2584,1.2598,1.2334,1.1828,1.1288,1.0986,1.1011,1.0871,1.0857,1.0877,1.0664,1.0295,0.9796,0.9585,0.8788,0.7214,0.0,0.0,0.0,0.0,0.0,0.0,0.0,0.0,0.0,0.0,0.0,0.0,0.0,0.0,0.0,0.4563,0.0,0.644,0.6372,0.0,0.0,0.0,0.6214,0.6932,0.7074,0.6786,0.5891,0.0,0.0,0.0,0.0,1.1141,1.0624,1.028,1.0172,1.0419,1.0172,1.0163,1.0661,1.0697,1.0595,1.0276,1.0413,1.071,1.1167,1.0993,1.0808,1.0973,1.0757,1.0531,1.0464,1.0812,1.1061,1.1213,1.1216,1.1651,1.2632,1.2866,1.2713,1.2307,1.2559,1.2915,2.3162,2.2905,2.2761,2.1271,1.9034,1.9122,1.8662,1.7901,1.7893,1.8115,1.8499,1.8499,1.8278,1.7911,1.7533,1.7073,1.6595,1.7244,1.729,1.6902,1.6856,1.6897,1.6978,1.647,1.6188,1.6089,1.5494,1.5261,1.5283,1.5185,1.4929,1.4576,1.431,1.3585,1.2416,1.2848,1.322,1.3409,1.3461,1.2983,1.2004,1.1814,1.1534,1.1087,1.0999,1.097,1.0982,1.0718,1.051,1.0376,0.9814,0.9333,0.8882,0.7406,0.0,0.0,0.0,0.0,0.0,0.0,0.0,0.0,0.0,0.4469,0.3682,0.0,0.482,0.0,0.5469,0.6911,0.6933,0.7134,0.0,0.0,0.7492,0.7591,0.8577,0.7965,0.7652,0.8122,0.8155,0.8929,1.1028,1.1469,1.1481,1.1141,1.0872,1.0583,1.0333,1.0502,1.0738,1.0939,1.0857,1.0726,1.0735,1.0939,1.1158,1.1267,1.1129,1.1015,1.1091,1.0926,1.079,1.0713,1.1053,1.1376,1.1496,1.2024,1.2541,1.2835,1.2915,1.2891,1.2725,1.281,1.2915,2.458,2.4373,2.4206,2.3119,2.1553,2.1367,2.0849,2.0174,1.9821,1.9812,1.9915,1.9139,1.8719,1.8573,1.8259,1.7916,1.7586,1.7912,1.7882,1.754,1.7515,1.7515,1.7519,1.7131,1.6919,1.6817,1.6466,1.6097,1.5726,1.5697,1.5514,1.5162,1.5096,1.4804,1.4242,1.4224,1.4229,1.4274,1.4029,1.3544,1.2876,1.2279,1.1977,1.1933,1.1602,1.1438,1.145,1.1217,1.0959,1.0658,1.0155,0.9759,0.9511,0.8448,0.7717,0.0,0.0,0.0,0.0,0.0,0.0,0.0,0.0,0.0,0.0,0.0,0.5823,0.0,0.6919,0.0,0.7847,0.8126,0.8493,0.8922,0.8539,0.8668,0.9637,0.9033,0.8743,0.9253,0.9168,0.9719,1.1414,1.1794,1.1962,1.2148,1.1809,1.1288,1.0772,1.0956,1.1253,1.1369,1.1329,1.1227,1.1103,1.1204,1.1293,1.1293,1.123,1.1179,1.1192,1.1116,1.1078,1.1154,1.1586,1.1881,1.1788,1.2528,1.3174,1.3126,1.3065,1.3005,1.2927,1.2915,1.2915,2.5556,2.5489,2.4851,2.4519,2.4389,2.4023,2.3541,2.2933,2.2307,2.201,2.1854,2.0346,1.9493,1.9213,1.8614,1.8255,1.8066,1.8115,1.8077,1.7929,1.7926,1.7951,1.7995,1.7796,1.7675,1.7625,1.7499,1.7056,1.6359,1.6351,1.6045,1.5552,1.5383,1.5596,1.6054,1.5346,1.5015,1.5134,1.4452,1.4102,1.4015,1.2876,1.2539,1.3059,1.2398,1.1992,1.1986,1.1807,1.1446,1.0869,1.0709,1.0353,0.9747,0.9636,0.9052,0.0,0.7375,0.0,0.0,0.0,0.0,0.0,0.0,0.0,0.0,0.6027,0.6531,0.767,0.8513,0.894,0.8835,0.912,0.945,0.9777,0.9505,0.9577,1.0306,1.0072,0.987,0.984,1.0467,1.1214,1.1938,1.2079,1.2391,1.3017,1.2811,1.221,1.155,1.1598,1.1785,1.1892,1.1977,1.1899,1.1734,1.164,1.1623,1.1503,1.1486,1.1447,1.1456,1.1469,1.1541,1.1846,1.2262,1.2438,1.2114,1.2849,1.3443,1.363,1.3614,1.3415,1.3167,1.305,1.3025,2.6387,2.6353,2.6159,2.6083,2.6024,2.5955,2.4957,2.3388,2.325,2.2989,2.2694,2.2369,2.2141,2.2096,2.1962,2.1441,2.0619,2.0898,2.0536,1.9705,2.003,2.0163,2.014,1.9286,1.8852,1.8708,1.7901,1.7373,1.7182,1.7061,1.6974,1.6829,1.629,1.6058,0.0,0.0,0.0,0.0,1.5098,1.4724,1.4681,1.3974,1.3607,1.3699,1.2623,0.0,1.1992,1.1852,1.1683,1.1452,1.1763,0.0,0.0,0.0,0.0,0.0,0.0,0.0,0.0,0.0,0.0,0.0,0.8468,0.8144,0.7051,0.6567,0.6972,0.8499,0.9497,0.9682,0.8901,0.9495,0.9944,0.9951,1.0177,1.0494,1.0881,1.0881,1.08,1.068,1.0816,1.1203,1.1945,1.2079,1.2428,1.3204,1.3369,1.3195,1.2639,1.2462,1.2419,1.2446,1.2415,1.2535,1.3014,1.3014,1.274,1.2394,1.2189,1.2172,1.2154,1.2154,1.2334,1.2721,1.2913,1.3088,1.3343,1.3071,1.3271,1.4584,1.4734,1.4461,1.3842,1.3618,1.3661,2.7921,0.0,2.7347,2.7135,0.0,2.6722,2.5955,2.4958,2.4595,2.4005,2.328,2.3269,2.3164,2.3005,2.292,2.2596,2.2093,2.2262,2.1848,2.1013,2.1192,2.1127,2.0786,2.0236,1.9933,1.9795,1.9061,1.8467,1.8106,1.7941,1.765,1.7197,1.6998,1.6822,1.6683,1.6074,1.5693,1.562,1.5175,1.492,1.4873,1.4256,1.4036,1.431,0.0,0.0,0.0,0.0,0.0,0.0,0.0,0.0,0.0,0.0,0.0,1.0546,1.0025,0.9711,0.9677,0.9527,0.943,0.9396,0.958,0.9285,0.8273,0.7857,0.8121,0.9149,0.9903,1.0186,0.9905,1.0302,1.0619,1.0692,1.085,1.109,1.1405,1.1488,1.1502,1.1495,1.1485,1.1662,1.2067,1.285,1.3419,1.3827,1.4011,1.3986,1.3701,1.3219,1.2922,1.3041,1.3003,1.3051,1.3393,1.3496,1.3305,1.274,1.248,1.2398,1.2381,1.2381,1.2588,1.3218,1.3408,1.3595,1.4195,1.4006,1.4039,1.4879,1.5429,1.5477,1.4885,1.4392,1.407,2.9403,2.9059,2.8379,2.8028,2.787,2.7289,2.6976,2.6881,0.0,0.0,0.0,2.4147,2.3967,2.3656,2.3544,2.34,2.32,2.3254,2.2867,2.2125,2.2162,2.1828,2.1182,2.1116,2.0939,2.0688,2.0227,1.9645,1.9057,1.8903,1.8458,1.7751,1.7755,1.7579,1.7194,1.6654,1.605,1.541,1.5145,1.5061,1.5074,1.4411,1.4346,1.4949,1.4274,1.3888,1.3888,1.3837,1.3455,1.2722,1.2698,1.2565,1.2188,1.2158,1.2106,1.2013,1.1737,1.1543,1.1414,1.0916,1.0573,1.049,1.046,1.0121,0.9393,0.9286,0.9395,0.9833,1.0136,1.0498,1.0966,1.1278,1.146,1.1539,1.1492,1.1627,1.197,1.2104,1.221,1.2302,1.219,1.2239,1.2588,1.3662,1.4509,1.4491,1.4454,1.4494,1.438,1.38,1.3371,1.3419,1.3393,1.3461,1.3496,1.3496,1.3325,1.2997,1.2772,1.2631,1.2684,1.2713,1.3076,1.3995,1.4075,1.4422,1.5069,1.5216,1.5235,1.5256,1.5849,1.6284,1.5821,1.5205,1.4699,2.9799,2.9412,2.9308,2.9084,2.8822,2.8712,2.8635,2.8525,2.7017,2.6276,2.609,2.609,2.6003,2.5857,2.5839,2.5273,2.4398,2.4686,2.4234,0.0,2.3555,2.3309,2.261,2.2321,2.1811,2.1103,2.0588,2.0244,1.9992,1.9867,1.9714,1.951,1.8843,1.8047,1.7269,1.7119,1.6742,1.6066,1.546,1.539,1.5819,1.5146,1.5024,1.5494,1.4471,1.3888,1.3888,1.3909,1.3736,1.3393,1.3781,1.3686,1.2923,1.2794,1.2546,1.2039,1.1962,1.1789,1.1538,1.1719,1.1872,1.1881,1.1815,1.1213,1.002,1.0022,1.0322,1.0805,1.0587,1.0635,1.1419,1.2171,1.2441,1.2153,1.2091,1.2212,1.2573,1.2894,1.3125,1.3265,1.2575,1.2729,1.387,1.4337,1.4491,1.4491,1.4509,1.4461,1.4342,1.4079,1.3775,1.3554,1.3496,1.3496,1.3511,1.3496,1.3444,1.341,1.3325,1.339,1.3744,1.3788,1.4154,1.5186,1.5276,1.5538,1.6055,1.6201,1.6119,1.6098,1.6284,1.6283,1.6081,1.5857,1.5737,3.1327,3.0992,3.0591,3.0324,3.0145,2.9531,2.9264,2.9203,2.8265,2.7583,2.717,2.6748,2.6511,2.6391,2.6347,2.6013,2.5461,2.5636,2.5222,2.4418,2.4537,2.4207,2.3545,2.335,2.2866,2.2107,2.16,2.1119,2.0655,2.0519,2.0332,2.0102,1.9624,1.8946,1.8034,1.7958,1.7558,1.6742,1.6053,1.5651,1.5555,1.5129,1.4999,1.5278,1.4691,1.4387,1.4402,1.4387,1.4268,1.406,1.4233,1.4116,1.3565,1.3477,1.3284,1.3009,1.2983,1.2862,1.2655,1.288,1.2914,1.2673,1.2651,1.2379,1.17,1.0918,1.0795,1.1506,1.1645,1.1783,1.2038,1.2559,1.2903,1.2917,1.2905,1.3056,1.3387,1.3607,1.382,1.4008,1.374,1.3855,1.4857,1.4691,1.4502,1.4491,1.4491,1.4461,1.4417,1.4267,1.407,1.383,1.3631,1.3571,1.3634,1.3556,1.3496,1.3496,1.3496,1.3692,1.4085,1.4204,1.4636,1.5464,1.5697,1.5885,1.6302,1.6388,1.6388,1.6388,1.6388,1.6345,1.6288,1.6181,1.6038,3.2715,3.2339,3.1827,3.1539,3.1369,3.0506,3.0135,3.011,2.9686,2.9143,2.8484,2.7554,2.7009,2.6754,2.6625,2.6461,2.623,2.6203,2.5896,2.54,2.5333,2.4978,2.4315,2.4249,2.3843,2.3158,2.2712,2.2206,2.16,2.1301,2.0837,2.0366,2.0232,1.9789,1.8946,1.8938,1.8489,1.7621,1.7048,1.6396,1.5654,1.531,1.5139,1.5115,1.4911,1.48,1.48,1.48,1.471,1.4568,1.4465,1.4297,1.407,1.3964,1.3935,1.3991,1.3992,1.3984,1.4003,1.4112,1.3972,1.3558,1.3615,1.3622,1.3426,1.2162,1.15,1.2128,1.2666,1.2942,1.2847,1.3105,1.3401,1.3677,1.3704,1.3789,1.4036,1.4205,1.4342,1.4598,1.4715,1.4922,1.5187,1.4952,1.4643,1.4577,1.4551,1.4536,1.4491,1.4387,1.4312,1.4234,1.3902,1.3677,1.3784,1.3724,1.3692,1.3737,1.3767,1.4082,1.444,1.4606,1.4858,1.5682,1.587,1.6015,1.6316,1.6388,1.6388,1.6388,1.6388,1.6388,1.6374,1.6424,1.621,3.3124,3.2779,3.2648,3.247,3.2184,3.2055,3.1994,3.188,3.1302,3.0978,3.0677,2.9401,2.8356,2.7657,2.7537,2.707,2.6345,2.6239,2.6161,2.6062,2.6086,2.5698,2.5035,2.5002,2.4571,2.3877,2.3637,2.3437,2.3114,2.248,2.1637,2.0676,2.0555,2.0386,1.9984,1.995,1.9571,1.8857,1.875,1.8143,1.6973,1.6248,1.5844,1.5787,1.5145,1.48,1.4885,1.48,1.4769,1.4699,1.4596,1.4417,1.4211,1.407,1.4169,1.4515,1.455,1.4715,1.5146,1.5238,1.5174,1.5112,1.5052,1.5053,1.4988,1.3986,1.3117,1.3002,1.327,1.352,1.3778,1.4164,1.4393,1.4321,1.4314,1.4268,1.4232,1.4478,1.476,1.478,1.5078,1.5337,1.5347,1.5162,1.4961,1.4781,1.4714,1.4688,1.4636,1.4599,1.4703,1.4862,1.4469,1.4025,1.398,1.3967,1.4157,1.4525,1.4543,1.4795,1.5294,1.5546,1.574,1.6087,1.6302,1.6359,1.6374,1.6388,1.6416,1.6416,1.6431,1.6445,1.6459,1.6772,1.6786,3.3319,3.3162,3.3162,3.3093,3.2918,3.2718,3.2593,3.2541,3.2067,3.1834,3.1774,3.1203,3.0249,2.9015,2.8767,2.8167,2.7308,2.7025,2.6646,2.6227,2.6194,2.6029,2.5797,2.5731,2.5349,2.4662,2.4545,2.4213,2.3609,2.3105,2.2409,2.1576,2.1488,2.1115,2.0474,2.0395,2.0163,1.9739,1.9691,1.9458,1.8839,1.7567,1.6808,1.6742,1.6238,1.5912,1.5932,1.5904,1.5904,1.5871,1.575,1.5589,1.5383,1.5297,1.5247,1.5262,1.517,1.5238,1.5445,1.5775,1.5934,1.5846,1.588,1.5851,1.5752,1.4983,1.4535,1.4669,1.4065,1.3793,1.4417,1.5171,1.5477,1.5042,1.4941,1.4959,1.5037,1.5215,1.5305,1.5204,1.5298,1.541,1.5396,1.5323,1.5263,1.5192,1.5057,1.4992,1.508,1.5102,1.5237,1.5569,1.5365,1.5005,1.471,1.4721,1.4883,1.5001,1.5216,1.5637,1.5879,1.5974,1.6081,1.6573,1.663,1.6581,1.651,1.6495,1.6495,1.6531,1.6751,1.6884,1.6884,1.7338,1.7448,3.3393,3.3393,3.3393,3.3393,3.3371,3.3073,3.2972,3.2949,3.271,3.2612,3.2612,3.2612,3.1957,3.0887,3.0148,2.9274,2.8391,2.8014,2.7508,2.6818,2.6601,2.6501,2.6501,2.6261,2.5921,2.5466,2.54,2.4917,2.407,2.3772,2.326,2.2572,2.2224,2.1754,2.1095,2.0864,2.063,2.0462,2.0437,2.0437,2.0214,1.8978,1.8085,1.7714,1.707,1.6744,1.6715,1.6689,1.6691,1.6691,1.6619,1.6458,1.6271,1.6208,1.6118,1.6017,1.6007,1.6009,1.598,1.6372,1.6577,1.6492,1.6655,1.6744,1.6531,1.6027,1.5957,1.6396,1.5776,1.559,1.5483,1.6064,1.6159,1.58,1.569,1.5671,1.5724,1.5769,1.5677,1.5526,1.5478,1.557,1.5666,1.5592,1.5507,1.5881,1.5846,1.5639,1.5836,1.5836,1.5916,1.6306,1.6267,1.5937,1.5468,1.5715,1.5793,1.5948,1.6257,1.65,1.6611,1.6648,1.6634,1.7241,1.7048,1.6821,1.668,1.6637,1.6736,1.6758,1.699,1.7382,1.7448,1.7943,1.8278,3.3393,3.3393,3.3393,3.3393,3.3386,3.3364,3.3364,3.3334,3.3326,3.3334,3.3304,3.3311,3.3262,3.3021,3.1598,3.0291,2.9264,2.9064,2.8716,2.8177,2.7575,2.7258,2.7182,2.6535,2.6194,2.6161,2.6062,2.5601,2.4758,2.454,2.4103,2.3429,2.2627,2.2168,2.2082,2.1462,2.1078,2.111,2.1038,2.1022,2.0973,2.0484,1.9618,1.8629,1.7447,1.6914,1.6831,1.6761,1.6719,1.6719,1.6775,1.6648,1.647,1.6434,1.6519,1.6684,1.7029,1.7224,1.7099,1.7131,1.7173,1.7241,1.7642,1.7937,1.7742,1.7338,1.7281,1.7689,1.8533,1.8586,1.7446,1.7011,1.6772,1.6848,1.6574,1.6304,1.598,1.6087,1.585,1.5744,1.5686,1.5968,1.6447,1.5861,1.6112,1.6708,1.7154,1.7148,1.6743,1.6637,1.6779,1.6991,1.697,1.6652,1.6153,1.6396,1.7032,1.7585,1.7771,1.7653,1.7868,1.802,1.7962,1.7853,1.7643,1.7355,1.6977,1.6878,1.7027,1.7204,1.7544,1.7843,1.8405,1.8679,1.9049,3.3444,3.3393,3.3393,3.3393,3.3393,3.3393,3.3393,3.3393,3.3393,3.3393,3.3393,3.3393,3.3393,3.3378,3.2821,3.1789,3.0572,3.0309,2.9646,2.8727,2.8379,2.8176,2.7931,2.7249,2.6908,2.6842,2.6426,2.5937,2.5439,2.5186,2.4669,2.4017,2.3578,2.3245,2.2854,2.2153,2.18,2.1843,2.1448,2.1215,2.1231,2.086,2.038,1.9854,1.8844,1.8205,1.8011,1.7927,1.7871,1.7843,1.7834,1.7777,1.7626,1.7493,1.7431,1.746,1.7474,1.7406,1.7392,1.7597,1.7763,1.7837,1.8296,1.8599,1.8528,1.8394,1.8384,1.8764,1.9309,1.9417,1.9123,1.8686,1.8323,1.7793,1.7581,1.7374,1.724,1.7171,1.7003,1.6489,1.5983,1.6155,1.7556,1.786,1.7688,1.7576,1.7439,1.7387,1.7455,1.7417,1.7473,1.7801,1.7818,1.7984,1.9038,1.7781,1.766,1.8991,1.9576,1.897,1.8881,1.8792,1.8696,1.874,1.8481,1.8152,1.7854,1.7541,1.7651,1.8062,1.8385,1.8988,1.9611,1.9934,2.0294,3.3684,3.34,3.3393,3.3393,3.3393,3.3393,3.3393,3.3393,3.3393,3.3393,3.3393,3.3393,3.3393,3.3393,3.3393,3.288,3.1899,3.1528,3.075,2.9746,2.948,2.924,2.8934,2.8185,2.7772,2.7653,2.6945,2.6308,2.5835,2.5589,2.5212,2.4691,2.4317,2.3916,2.3508,2.2841,2.2523,2.2511,2.2116,2.1802,2.1609,2.1366,2.104,2.0611,1.9918,1.9286,1.8893,1.8682,1.8537,1.8508,1.8488,1.8469,1.8334,1.8187,1.8075,1.7993,1.7912,1.7812,1.7776,1.8111,1.8349,1.8375,1.8872,1.9185,1.92,1.9342,1.9544,1.9723,1.9898,2.0093,2.0054,1.9978,1.9501,1.8592,1.8336,1.8201,1.8002,1.797,1.7751,1.7343,1.6996,1.749,1.8588,1.8895,1.8716,1.8295,1.7959,1.7959,1.8154,1.8202,1.8157,1.8473,1.8446,1.8728,1.9069,1.8219,1.8126,1.9355,1.9794,1.9522,1.9455,1.938,1.9381,1.9486,1.9351,1.9074,1.8724,1.8373,1.8599,1.9065,1.9598,2.0201,2.0723,2.1173,2.1312,3.4222,3.3611,3.3437,3.3465,3.3502,3.3429,3.3393,3.3393,3.3393,3.3393,3.3393,3.3393,3.3393,3.3393,3.3393,3.3208,3.2874,3.2563,3.2065,3.1382,3.0795,3.0448,3.0277,2.9314,2.8719,2.8624,2.7772,2.6871,2.6122,2.5905,2.571,2.5407,2.4616,2.4285,2.4204,2.3551,2.3149,2.3126,2.31,2.2831,2.2316,2.2128,2.1762,2.1024,2.0675,2.0189,1.9374,1.896,1.8663,1.8547,1.8498,1.8488,1.8534,1.8502,1.8347,1.8393,1.85,1.8537,1.8467,1.873,1.897,1.9025,1.9473,1.9824,1.9877,2.0241,2.0529,2.0518,2.0558,2.0636,2.0574,2.0385,1.9888,1.9147,1.8882,1.8632,1.8336,1.8161,1.812,1.8188,1.8417,1.8895,1.8999,1.9081,1.901,1.89,1.8823,1.8786,1.8814,1.8783,1.8866,1.8847,1.8793,1.8996,1.8715,1.8402,1.888,1.9362,1.941,1.9366,1.9557,1.9581,1.9643,1.9749,1.9665,1.9365,1.8993,1.8821,1.968,2.022,2.0798,2.1396,2.1816,2.217,2.2003,3.5642,3.5292,3.4527,3.4218,3.4154,3.3639,3.3393,3.3393,3.3393,3.3393,3.3393,3.3393,3.3393,3.3393,3.3386,3.3282,3.3063,3.2961,3.2639,3.2056,3.1768,3.1505,3.1141,3.0368,2.9535,2.8875,2.8486,2.7796,2.6902,2.6663,2.6311,2.5691,2.5258,2.5025,2.4929,2.4259,2.382,2.3802,2.3337,2.2971,2.2815,2.2884,2.273,2.2489,2.2243,2.19,2.143,1.9879,1.896,1.8807,1.8615,1.8656,1.9077,1.9505,1.9688,1.9572,1.9482,1.9385,1.9357,1.9611,1.9734,1.9795,2.0207,2.046,2.0451,2.0555,2.0699,2.0699,2.0699,2.0699,2.0674,2.0611,2.0271,1.9746,1.9629,1.9461,1.9227,1.9227,1.9267,1.9267,1.9423,1.9539,1.9539,1.9539,1.937,1.9105,1.9092,1.9105,1.9039,1.9025,1.9012,1.8959,1.8999,1.8986,1.8813,1.8679,1.8932,1.9104,1.9071,1.9244,1.9483,1.9652,1.9775,1.9904,1.9833,1.9705,1.9296,1.9512,2.0317,2.1457,2.223,2.2676,2.2992,2.2959,2.2751,3.6721,3.6224,3.5528,3.516,3.4987,3.4472,3.4291,3.4255,3.3973,3.3856,3.3828,3.3502,3.3393,3.3393,3.3393,3.3297,3.3109,3.3101,3.2882,3.2514,3.2429,3.2292,3.2003,3.1444,3.0457,2.9441,2.9256,2.8671,2.7609,2.7447,2.7014,2.6278,2.602,2.5715,2.5413,2.4881,2.4569,2.4467,2.4079,2.3679,2.3533,2.3542,2.3449,2.3213,2.301,2.2839,2.2539,2.107,2.0095,1.973,1.9383,1.9406,1.9799,2.0165,2.0368,2.0281,2.0241,2.0185,2.0172,2.046,2.0594,2.0542,2.0798,2.0898,2.0812,2.0724,2.0699,2.0699,2.0699,2.0699,2.0699,2.0686,2.0524,2.022,2.0042,1.9939,1.9849,1.9824,1.9798,1.9721,1.9785,1.9824,1.9824,1.9798,1.9695,1.937,1.9237,1.9195,1.9078,1.9039,1.9049,1.9049,1.9012,1.9012,1.9012,1.8999,1.8999,1.8894,1.875,1.8979,1.9246,1.9371,1.9495,1.9881,1.9959,2.0146,1.985,2.0017,2.0648,2.2027,2.3076,2.3386,2.341,2.353,2.3408,3.751,3.6528,3.6399,3.6172,3.5903,3.5719,3.5623,3.5594,3.4979,3.4653,3.4508,3.4037,3.361,3.3538,3.3574,3.3448,3.3132,3.3101,3.3024,3.2858,3.2797,3.2647,3.2487,3.223,3.1384,3.0358,3.0125,2.9517,2.851,2.8331,2.7852,2.7164,2.6928,2.6415,2.5776,2.5506,2.5327,2.5054,2.5015,2.4678,2.4191,2.4178,2.3911,2.3351,2.3315,2.3274,2.3128,2.2601,2.1901,2.1133,2.0619,2.049,2.0521,2.0488,2.0614,2.067,2.0823,2.0916,2.1001,2.1156,2.1307,2.1159,2.1188,2.1144,2.0961,2.0837,2.0724,2.0699,2.0699,2.0751,2.0804,2.0922,2.0846,2.0615,2.031,2.0003,1.9849,1.9862,1.9937,1.9874,1.9824,1.9836,1.9886,1.9911,2.0061,1.9919,1.9731,1.962,1.9526,1.9521,1.9234,1.9207,1.9317,1.9025,1.9025,1.9025,1.9111,1.9617,1.9401,1.9521,1.9436,1.9422,1.9696,2.0065,2.0402,2.0509,2.0569,2.0688,2.0885,2.1653,2.2564,2.3339,2.3739,2.3805,2.3865,3.906,3.8665,3.763,3.7088,3.6775,3.616,3.5812,3.5776,3.5631,3.5486,3.5413,3.5269,3.4762,3.4327,3.4255,3.3905,3.3417,3.3168,3.3055,3.2953,3.2882,3.2838,3.2765,3.2683,3.2212,3.1486,3.1143,3.0598,2.9547,2.9198,2.8705,2.8067,2.7885,2.7417,2.6703,2.6419,2.5944,2.5333,2.5162,2.503,2.4832,2.4776,2.4741,2.4602,2.4595,2.4576,2.4484,2.4044,2.302,2.1685,2.1568,2.1575,2.16,2.163,2.1665,2.1659,2.165,2.1697,2.1678,2.1698,2.1626,2.1506,2.1482,2.14,2.1157,2.0947,2.0811,2.0724,2.0699,2.0948,2.1394,2.176,2.1838,2.1666,2.0875,2.022,2.013,2.0318,2.0432,1.9974,2.03,2.0337,2.0325,2.0701,2.1189,2.1037,2.0799,2.0582,2.0387,2.0356,2.0176,1.993,1.9817,1.9317,1.9025,1.9025,1.9379,2.0252,2.0457,2.0555,2.0259,1.9908,2.0353,2.0808,2.1176,2.1359,2.1201,2.1162,2.1439,2.1838,2.2792,2.3849,2.3928,2.4026,2.4011,3.984,3.9573,3.8589,3.8095,3.7798,3.71,3.6789,3.6725,3.6435,3.629,3.6254,3.592,3.5558,3.5124,3.5088,3.4607,3.3888,3.3718,3.3417,3.3013,3.2906,3.2858,3.2854,3.2838,3.2597,3.2144,3.177,3.1168,3.0451,3.0052,2.9493,2.891,2.8738,2.8296,2.7531,2.7313,2.6941,2.6356,2.5857,2.5527,2.5518,2.5191,2.5033,2.5042,2.5143,2.5133,2.4993,2.4735,2.3927,2.2847,2.2632,2.2657,2.2571,2.2515,2.2472,2.2414,2.2205,2.2077,2.2065,2.1994,2.19,2.1793,2.1758,2.1614,2.1515,2.1533,2.1676,2.149,2.1036,2.1314,2.2154,2.2442,2.236,2.2176,2.1575,2.1055,2.0858,2.1164,2.1082,2.0846,2.0977,2.139,2.1142,2.1727,2.1952,2.1988,2.1517,2.129,2.1082,2.1152,2.1177,2.0976,2.0663,2.0273,2.0249,2.0297,2.0671,2.142,2.1742,2.181,2.1461,2.0952,2.1207,2.1723,2.1982,2.2129,2.2006,2.2039,2.2439,2.2987,2.3771,2.3928,2.3902,2.4084,2.4111,4.0096,3.9717,3.9371,3.9052,3.8655,3.8393,3.8142,3.8101,3.7467,3.716,3.7043,3.6379,3.6174,3.592,3.592,3.5447,3.4653,3.4601,3.3995,3.341,3.3029,3.2882,3.2874,3.2902,3.2696,3.2335,3.1949,3.1585,3.1123,3.0747,3.0217,2.9709,2.9546,2.9069,2.8451,2.8151,2.7958,2.7514,2.6798,2.64,2.6286,2.5843,2.5602,2.557,2.558,2.5538,2.5455,2.5302,2.4925,2.4089,2.3799,2.3541,2.339,2.3131,2.2864,2.2717,2.2518,2.2379,2.231,2.2333,2.229,2.2264,2.2221,2.2078,2.2095,2.2473,2.2662,2.2451,2.1437,2.1745,2.2892,2.2902,2.2741,2.274,2.2583,2.2447,2.2282,2.2148,2.1972,2.1655,2.1887,2.2487,2.2694,2.2644,2.2357,2.2579,2.2274,2.2157,2.2099,2.2225,2.2203,2.2065,2.1749,2.1375,2.1536,2.177,2.2283,2.2854,2.3117,2.3197,2.2987,2.2641,2.2522,2.2695,2.3093,2.3144,2.2938,2.3122,2.3452,2.3588,2.398,2.3797,2.3588,2.3954,2.4111,4.0181,3.9986,3.9621,3.9383,3.9198,3.8899,3.8736,3.8713,3.8353,3.8128,3.8072,3.781,3.7285,3.6733,3.6697,3.6282,3.5555,3.5399,3.4907,3.3948,3.3172,3.2926,3.2918,3.2926,3.2838,3.2589,3.2257,3.1994,3.1678,3.1201,3.0801,3.0614,3.0245,2.9893,2.9224,2.9024,2.8638,2.8071,2.7579,2.7352,2.727,2.6963,2.6741,2.6731,2.6773,2.6848,2.6879,2.6879,2.6786,2.6251,2.5134,2.4273,2.3981,2.3637,2.336,2.3148,2.3115,2.3086,2.3034,2.2924,2.2827,2.3243,2.3073,2.3,2.3378,2.3177,2.3244,2.2988,2.2119,2.2336,2.3605,2.3843,2.3643,2.3591,2.3645,2.3657,2.3569,2.3131,2.2562,2.2307,2.2708,2.3242,2.313,2.3174,2.3043,2.3075,2.3054,2.2995,2.3123,2.3252,2.3246,2.3202,2.3083,2.2774,2.2705,2.3068,2.3678,2.4003,2.4229,2.4337,2.4176,2.4082,2.3852,2.3973,2.4312,2.4187,2.3899,2.3988,2.4241,2.4238,2.414,2.3942,2.3878,2.4073,2.423,4.0263,4.0127,3.9773,3.9587,3.9446,3.9087,3.8956,3.8927,3.8803,3.8661,3.8523,3.8393,3.8053,3.7575,3.753,3.7132,3.6367,3.5808,3.5343,3.4654,3.3939,3.3481,3.3338,3.3096,3.2886,3.2797,3.2438,3.2205,3.1994,3.1592,3.1172,3.1048,3.0828,3.0445,2.997,2.9821,2.9617,2.9196,2.8586,2.8248,2.8144,2.7728,2.7442,2.741,2.74,2.74,2.7358,2.7368,2.739,2.7125,2.6366,2.554,2.5206,2.4938,2.4675,2.4393,2.4268,2.4334,2.4261,2.4082,2.4013,2.4149,2.3977,2.3915,2.4037,2.3895,2.392,2.3902,2.3758,2.393,2.4431,2.4187,2.4169,2.4245,2.4419,2.4519,2.4423,2.3927,2.3407,2.3154,2.3415,2.3614,2.3643,2.3651,2.4053,2.4229,2.3852,2.3836,2.4194,2.4326,2.438,2.4381,2.4378,2.426,2.4029,2.4329,2.5037,2.5202,2.5162,2.5218,2.5122,2.5066,2.5024,2.508,2.5039,2.5065,2.4857,2.4976,2.4791,2.4573,2.4385,2.4242,2.4262,2.4528,2.4629,4.0282,4.0186,3.9857,3.9711,3.9611,3.9293,3.9117,3.9134,3.9082,3.8913,3.8669,3.8561,3.8356,3.8196,3.8146,3.7748,3.7082,3.6228,3.5725,3.5565,3.4682,3.4338,3.4107,3.358,3.3195,3.3056,3.2643,3.2412,3.2257,3.1931,3.1582,3.1288,3.1034,3.0801,3.058,3.0437,3.0296,3.0089,2.9559,2.9184,2.9003,2.8466,2.8124,2.8019,2.803,2.803,2.8062,2.7997,2.789,2.7805,2.7805,2.7486,2.7095,2.6607,2.6726,2.6319,2.6016,2.5644,2.5534,2.5423,2.5189,2.4992,2.494,2.4854,2.4775,2.4829,2.4853,2.5102,2.5271,2.5651,2.5356,2.5118,2.478,2.4723,2.4978,2.5118,2.5062,2.4665,2.4399,2.4253,2.42,2.4247,2.4195,2.4214,2.4828,2.5246,2.486,2.4708,2.5093,2.5314,2.5314,2.5453,2.5481,2.5481,2.53,2.5944,2.661,2.6483,2.6357,2.6231,2.619,2.6287,2.6218,2.566,2.555,2.555,2.5494,2.5383,2.5145,2.4831,2.495,2.5184,2.516,2.5026,2.5176,4.0296,4.0277,4.0033,3.9949,3.9905,3.9676,3.9569,3.9557,3.9401,3.9178,3.892,3.8691,3.8488,3.8266,3.8227,3.8082,3.7678,3.6958,3.6496,3.6319,3.553,3.5043,3.4892,3.4258,3.3937,3.3698,3.3183,3.2797,3.2616,3.2318,3.2003,3.176,3.1384,3.1044,3.0848,3.0677,3.0489,3.048,3.0155,3.0016,2.9866,2.9598,2.9318,2.9232,2.9178,2.9254,2.9329,2.9437,2.948,2.948,2.948,2.9351,2.8887,2.7923,2.7836,2.8151,2.7453,2.6789,2.6725,2.6252,2.6224,2.6321,2.6156,2.6193,2.6236,2.6048,2.5927,2.6389,2.6714,2.6967,2.6785,2.6533,2.6243,2.6068,2.5823,2.5837,2.5796,2.5687,2.5467,2.5314,2.5146,2.4991,2.505,2.5177,2.5685,2.6037,2.5832,2.5696,2.5875,2.6083,2.611,2.6327,2.654,2.654,2.6514,2.7481,2.8196,2.7897,2.7698,2.74,2.7442,2.7612,2.7428,2.6694,2.6147,2.598,2.5883,2.573,2.6022,2.6081,2.6175,2.6289,2.6181,2.6142,2.6406,4.0301,4.0291,4.0127,4.0071,4.0007,3.9878,3.9811,3.9794,3.9647,3.9458,3.9225,3.9034,3.8737,3.8449,3.8352,3.8323,3.8021,3.7694,3.7375,3.7118,3.6396,3.5863,3.573,3.5043,3.4749,3.4455,3.3895,3.3238,3.2873,3.2649,3.2395,3.2118,3.1724,3.1422,3.1074,3.0868,3.0665,3.0551,3.0468,3.0449,3.0396,3.0119,2.9989,2.9913,2.9924,2.9924,2.9924,2.9924,2.988,2.988,2.988,2.9924,2.9642,2.9318,2.8908,2.9336,2.8677,2.8139,2.8094,2.7734,2.7596,2.7436,2.7206,2.7046,2.7004,2.6795,2.6824,2.762,2.9265,2.9531,2.8936,2.8142,2.7448,2.698,2.6724,2.663,2.6641,2.6814,2.6696,2.6407,2.5756,2.5687,2.6201,2.637,2.6659,2.6753,2.6749,2.6767,2.6812,2.6886,2.6973,2.7017,2.7166,2.691,2.7243,2.8419,2.9261,2.9103,2.8799,2.8497,2.8297,2.8325,2.8025,2.7485,2.7032,2.6821,2.609,2.5868,2.6595,2.7377,2.7641,2.7736,2.7378,2.7298,2.7624,4.0301,4.0291,4.0152,4.0106,4.0091,3.9949,3.9895,3.9889,3.9845,3.9653,3.9427,3.9331,3.9004,3.8615,3.8449,3.8328,3.8182,3.8017,3.7895,3.7745,3.7165,3.6746,3.6443,3.5908,3.5427,3.532,3.4669,3.3937,3.3278,3.2893,3.2666,3.2421,3.2179,3.1806,3.1369,3.1201,3.0948,3.0695,3.0626,3.0564,3.0386,3.0205,3.0022,2.9924,2.9913,2.9913,2.9891,2.9924,2.9924,2.9924,2.9924,2.9924,2.9924,2.9924,2.9924,2.9836,2.9538,2.9434,2.9269,2.9034,2.8549,2.8244,2.8143,2.783,2.7555,2.7479,2.7635,2.8664,2.9789,3.0918,2.9946,2.9211,2.8429,2.8079,2.7846,2.7798,2.7982,2.8072,2.7952,2.7401,2.6449,2.6434,2.7049,2.7668,2.7987,2.8054,2.8063,2.798,2.7983,2.7865,2.7884,2.7766,2.7625,2.7211,2.7707,2.9072,2.9769,3.003,2.9622,2.9231,2.9,2.8856,2.8554,2.8482,2.8437,2.8121,2.7089,2.6496,2.747,2.8361,2.8998,2.9226,2.8942,2.883,2.8958,4.0301,4.0296,4.019,4.0106,4.0129,3.9987,3.9895,3.9895,3.9927,3.9722,3.9508,3.9502,3.9222,3.8676,3.8344,3.8249,3.8174,3.8115,3.801,3.7923,3.7648,3.7443,3.7363,3.6649,3.6301,3.6114,3.5471,3.4678,3.4071,3.3429,3.2917,3.2797,3.2562,3.2127,3.185,3.1629,3.1351,3.1008,3.0918,3.0747,3.048,3.0342,3.0216,3.0065,3.0,2.9989,2.9935,2.9924,2.9891,2.9891,2.9924,2.9924,2.9924,2.9924,2.9924,2.988,2.9748,2.9648,2.9592,2.9571,2.9298,2.8983,2.8723,2.8501,2.8229,2.8253,2.8388,2.8339,2.9015,2.9692,3.0215,2.9761,2.9322,2.9311,2.9316,2.9459,2.9633,2.9109,2.9025,2.8713,2.7843,2.7724,2.8008,2.8704,2.9288,2.9342,2.9325,2.9155,2.9058,2.8872,2.8732,2.8585,2.8757,2.8427,2.8371,2.9682,3.0148,3.0628,3.032,2.9912,2.9722,2.9577,2.9789,2.9701,2.9637,2.9367,2.8483,2.8312,2.8799,2.9434,3.0188,3.048,3.0556,3.0468,3.0204,4.1724,4.1671,4.1081,4.084,4.0753,4.0182,3.9895,4.0014,4.0431,4.0288,3.9876,4.0236,3.9831,3.9003,3.852,3.8323,3.8216,3.8149,3.8061,3.8027,3.7888,3.7828,3.7623,3.7319,3.714,3.6845,3.6336,3.5828,3.5186,3.4606,3.4019,3.3506,3.3268,3.2825,3.2415,3.2055,3.1712,3.1374,3.1117,3.0878,3.0665,3.0468,3.0322,3.0141,3.0097,3.0098,3.0065,2.9989,2.9968,2.9957,2.9924,2.9924,2.9924,2.9924,2.9924,2.9913,2.9847,2.9803,2.9835,3.0333,3.0145,2.9785,2.9446,2.9121,2.8798,2.8996,2.9027,2.8442,2.915,2.9815,3.0356,3.0505,3.0579,3.0584,3.0439,3.0383,3.0418,3.0282,2.995,2.9587,2.9378,2.9403,2.9472,2.9977,3.0439,3.0354,3.0054,2.9611,2.9619,2.964,2.9484,2.9358,2.9675,2.9914,2.9856,3.0367,3.0455,3.0761,3.0731,3.0394,3.0378,3.0389,3.0402,3.0385,3.0181,2.9895,2.9667,2.9476,2.9396,3.0323,3.1392,3.1378,3.1335,3.1234,3.113,4.3385,4.3298,4.2186,4.1688,4.1639,4.0827,4.0544,4.062,4.1226,4.1134,4.0742,4.1018,4.0691,3.9772,3.9208,3.8858,3.8589,3.8325,3.8149,3.8061,3.7974,3.7897,3.7792,3.7694,3.7614,3.7631,3.7033,3.6658,3.647,3.6042,3.5328,3.4428,3.4228,3.3808,3.3256,3.3029,3.2869,3.2173,3.1492,3.1107,3.0865,3.0665,3.0447,3.0333,3.0248,3.0204,3.0194,3.0076,3.0011,3.0,2.9935,2.9891,2.9924,2.9924,2.9924,2.9977,3.0031,3.0096,3.0171,3.0437,3.0739,3.0334,2.9828,2.9221,2.8814,2.9471,2.9661,2.8442,2.9569,3.0307,3.0861,3.1287,3.1133,3.1133,3.1107,3.0984,3.0892,3.0944,3.1023,3.0948,3.0904,3.1221,3.1321,3.1544,3.1631,3.1473,3.0922,3.0191,3.0195,3.035,3.0354,3.0224,3.0404,3.0777,3.0822,3.0881,3.094,3.1013,3.0998,3.0865,3.079,3.0687,3.0613,3.0597,3.0773,3.1056,3.1191,3.0505,2.9975,3.1116,3.1992,3.1992,3.1966,3.1901,3.2174,4.505,4.4892,4.3237,4.2558,4.2514,4.2306,4.2179,4.2028,4.2217,4.2249,4.2063,4.197,4.175,4.1329,4.0348,3.9761,3.9557,3.8626,3.8425,3.8257,3.8089,3.8046,3.796,3.7828,3.773,3.7703,3.7453,3.7417,3.7461,3.7184,3.631,3.532,3.5187,3.5029,3.4737,3.4358,3.4006,3.3244,3.2405,3.1652,3.1361,3.1089,3.0824,3.0491,3.0363,3.03,3.0216,3.0119,3.0044,3.0044,2.9946,2.9891,2.9924,2.9924,2.9924,2.9977,3.029,3.0258,3.0193,3.0268,2.9974,2.9619,2.9428,2.9383,2.9072,2.863,2.8479,2.8897,3.0258,3.1133,3.1662,3.1842,3.1626,3.1653,3.1701,3.1797,3.1767,3.189,3.1999,3.2198,3.2198,3.2136,3.2136,3.2116,3.2065,3.1861,3.1636,3.0932,3.0998,3.1136,3.1197,3.1198,3.1228,3.1349,3.1378,3.1529,3.1783,3.1827,3.1827,3.1471,3.1145,3.1071,3.159,3.1619,3.1946,3.2348,3.2512,3.1749,3.147,3.216,3.263,3.2858,3.2944,3.2924,3.3322,4.523,4.511,4.4407,4.383,4.3297,4.2674,4.2407,4.252,4.2975,4.3208,4.3159,4.2509,4.2109,4.1808,4.1477,4.085,4.0495,4.0097,3.9501,3.9086,3.8864,3.854,3.8254,3.8022,3.7872,3.7882,3.7837,3.7721,3.7641,3.7667,3.7417,3.6711,3.6149,3.5588,3.5339,3.5225,3.4854,3.4491,3.3709,3.309,3.2408,3.1924,3.149,3.081,3.0489,3.0437,3.0363,3.0322,3.0227,3.0119,2.9979,2.9913,2.9891,2.9891,2.9924,2.9945,3.0279,3.0214,3.029,3.0571,3.0889,3.0348,3.0295,3.0224,2.9742,2.9218,2.9652,3.0404,3.1393,3.2394,3.2631,3.2412,3.2102,3.2143,3.228,3.2468,3.2564,3.2639,3.2612,3.2642,3.2488,3.2334,3.2365,3.2368,3.233,3.2216,3.198,3.1844,3.1892,3.1836,3.1852,3.1645,3.16,3.1937,3.201,3.23,3.2721,3.2766,3.278,3.2526,3.2362,3.3003,3.3406,3.3287,3.3197,3.3646,3.3633,3.2946,3.3033,3.3779,3.3979,3.4008,3.4016,3.3961,3.4318,4.5235,4.5186,4.5108,4.4709,4.4093,4.3421,4.3127,4.324,4.3777,4.4042,4.3998,4.335,4.2994,4.2761,4.2326,4.2015,4.1562,4.1138,4.0586,4.0181,3.9846,3.9453,3.9041,3.8793,3.8752,3.8419,3.8222,3.8205,3.7766,3.7739,3.7578,3.7354,3.7068,3.647,3.6096,3.5624,3.5483,3.5403,3.4915,3.4405,3.3601,3.3189,3.2704,3.1907,3.1458,3.1116,3.0923,3.0731,3.0343,3.0216,3.0087,2.9957,2.9924,2.9945,3.0021,3.0128,3.016,3.0213,3.0666,3.0957,3.1479,3.101,3.1126,3.1018,3.0652,3.016,3.0644,3.1626,3.2768,3.3519,3.3427,3.2864,3.2577,3.2631,3.2953,3.3129,3.3183,3.3248,3.3116,3.3043,3.2766,3.2458,3.2824,3.2917,3.3211,3.3034,3.2654,3.2635,3.2836,3.2704,3.2435,3.2122,3.172,3.216,3.2629,3.3852,3.4871,3.449,3.4414,3.4091,3.4122,3.4693,3.4808,3.4442,3.4533,3.5005,3.5103,3.4944,3.5119,3.5434,3.5266,3.4858,3.4966,3.4911,3.5026,4.5203,4.5181,4.5074,4.4978,4.489,4.4868,4.4724,4.4567,4.4724,4.4762,4.4762,4.4599,4.4606,4.431,4.3514,4.31,4.2729,4.2017,4.1443,4.123,4.1001,4.0838,4.0558,4.0223,3.9722,3.9283,3.9103,3.8762,3.8106,3.8241,3.8044,3.79,3.7801,3.7443,3.7416,3.672,3.639,3.6265,3.5545,3.5163,3.4708,3.4412,3.4006,3.3363,3.2618,3.2178,3.2005,3.1362,3.1017,3.0878,3.0587,3.0446,3.0358,3.0271,3.0442,3.0828,3.0757,3.1066,3.1645,3.1255,3.1326,3.1506,3.1646,3.1678,3.1614,3.157,3.1686,3.2608,3.336,3.3822,3.361,3.339,3.337,3.3396,3.372,3.381,3.385,3.3943,3.3884,3.3808,3.3074,3.2595,3.3085,3.3514,3.4022,3.3967,3.3455,3.343,3.3795,3.3808,3.3609,3.3064,3.2688,3.3418,3.4345,3.6123,3.6947,3.6515,3.608,3.5754,3.5528,3.5734,3.571,3.5535,3.5904,3.6465,3.6897,3.7242,3.6986,3.66,3.5886,3.5574,3.5716,3.5835,3.5932,4.523,4.5186,4.5108,4.5051,4.5004,4.4938,4.4876,4.4876,4.4876,4.4876,4.4876,4.4876,4.4908,4.4695,4.4506,4.4092,4.3802,4.3666,4.314,4.2225,4.207,4.1633,4.1367,4.1074,4.0645,4.0358,4.011,3.9932,3.9617,3.9311,3.9337,3.9254,3.8605,3.8085,3.7693,3.7264,3.7202,3.7157,3.6863,3.6461,3.581,3.5439,3.5022,3.4378,3.3697,3.3351,3.3276,3.2485,3.21,3.2017,3.1736,3.1528,3.1438,3.1381,3.143,3.1595,3.1531,3.1833,3.2337,3.2309,3.2139,3.214,3.2184,3.2446,3.2563,3.2885,3.3123,3.3294,3.3742,3.4155,3.4406,3.483,3.4909,3.4693,3.482,3.4665,3.4657,3.4776,3.481,3.4713,3.4244,3.4606,3.5023,3.5604,3.6027,3.577,3.5324,3.5072,3.5289,3.5268,3.511,3.4442,3.4163,3.4918,3.5964,3.7384,3.8009,3.7522,3.7426,3.7413,3.7224,3.7006,3.7098,3.7186,3.7514,3.7889,3.7869,3.789,3.7901,3.7544,3.705,3.6587,3.662,3.6709,3.6716,4.5262,4.5219,4.5142,4.5085,4.5033,4.495,4.4876,4.4876,4.4876,4.4876,4.4876,4.4876,4.4914,4.4858,4.4821,4.4745,4.4537,4.4452,4.4301,4.3384,4.3252,4.2925,4.2515,4.201,4.1871,4.1544,4.1187,4.0942,4.0435,4.0384,4.0184,3.9872,3.9554,3.9051,3.8461,3.805,3.7523,3.7479,3.7318,3.7202,3.6763,3.6438,3.6113,3.553,3.4977,3.4525,3.4337,3.3949,3.3439,3.336,3.3146,3.2851,3.274,3.2617,3.2626,3.2643,3.294,3.319,3.3489,3.3659,3.36,3.3671,3.3368,3.3265,3.3411,3.3494,3.3931,3.4181,3.4295,3.4768,3.5382,3.5932,3.6332,3.6129,3.5924,3.5798,3.5756,3.589,3.6359,3.6181,3.6008,3.6503,3.703,3.7818,3.8372,3.7821,3.7283,3.7024,3.6756,3.667,3.6629,3.6091,3.5718,3.6324,3.7174,3.8237,3.8637,3.8483,3.8502,3.8534,3.8497,3.824,3.8534,3.8669,3.859,3.8488,3.8399,3.8375,3.8519,3.861,3.847,3.8063,3.7733,3.7651,3.7691,4.5277,4.5262,4.5159,4.5108,4.508,4.4968,4.4876,4.4876,4.4876,4.4876,4.4876,4.4876,4.4876,4.4876,4.4908,4.4865,4.4808,4.4751,4.4662,4.4495,4.4182,4.4065,4.3967,4.3684,4.3107,4.2662,4.2284,4.1874,4.1109,4.0972,4.0696,4.0286,4.0164,3.9821,3.9273,3.8657,3.8121,3.8121,3.7907,3.7826,3.7584,3.735,3.7099,3.6658,3.6223,3.5824,3.5459,3.4901,3.4401,3.4157,3.3946,3.3785,3.3648,3.3499,3.3832,3.4163,3.4606,3.462,3.4814,3.4918,3.5343,3.5367,3.4808,3.4395,3.4198,3.4282,3.4431,3.5052,3.5369,3.5779,3.6247,3.6994,3.7708,3.75,3.7262,3.7163,3.7076,3.7385,3.7992,3.7995,3.7709,3.7931,3.8395,3.9176,3.9593,3.9149,3.8586,3.8506,3.8229,3.8106,3.8052,3.7948,3.7707,3.7801,3.8507,3.9034,3.9094,3.8931,3.9229,3.9323,3.9327,3.9412,3.9633,3.9616,3.9281,3.9147,3.9191,3.9214,3.9245,3.9354,3.9591,3.9193,3.8718,3.8727,3.8783,4.5283,4.5272,4.5203,4.5148,4.5091,4.493,4.4876,4.4876,4.4876,4.4876,4.4876,4.4876,4.4876,4.4876,4.4876,4.4902,4.4889,4.4845,4.4833,4.4764,4.468,4.4661,4.4517,4.4299,4.3989,4.3737,4.3388,4.2967,4.2632,4.2195,4.1544,4.1123,4.0948,4.0601,4.0058,3.9458,3.9316,3.9075,3.8754,3.8504,3.829,3.7968,3.7807,3.7519,3.731,3.6984,3.6642,3.6276,3.5909,3.5829,3.5566,3.5424,3.5377,3.514,3.5148,3.4879,3.5053,3.5193,3.5787,3.598,3.6353,3.7004,3.6646,3.6609,3.6113,3.5502,3.5195,3.5931,3.6887,3.7485,3.7727,3.8295,3.8665,3.8526,3.8428,3.8381,3.8351,3.8598,3.9129,3.9029,3.8753,3.8985,3.9501,3.9964,4.0259,3.9985,3.984,3.9811,3.9547,3.9349,3.9143,3.9035,3.9035,3.89,3.8947,3.9402,3.9375,3.9415,3.9734,4.0025,4.0163,4.0302,4.0605,4.0596,4.0309,4.0196,4.0196,4.016,4.0064,4.05,4.0723,4.0206,3.9834,3.9844,3.9802,4.5283,4.5277,4.5224,4.5148,4.5024,4.4986,4.4938,4.492,4.4876,4.4876,4.4876,4.4876,4.4876,4.4876,4.4876,4.4908,4.4908,4.487,4.4864,4.4889,4.4871,4.4846,4.4726,4.4635,4.451,4.4372,4.4199,4.3793,4.3607,4.3257,4.2632,4.2118,4.1866,4.144,4.1072,4.0931,4.0895,4.0467,3.9958,3.9423,3.9004,3.8754,3.8585,3.8424,3.8313,3.8187,3.7946,3.7623,3.7404,3.7119,3.6711,3.662,3.6623,3.6551,3.6535,3.6409,3.6706,3.6968,3.7353,3.7399,3.7749,3.8143,3.8369,3.855,3.7959,3.723,3.7174,3.7482,3.8541,3.9373,3.9433,3.9539,3.9507,3.9486,3.9538,3.9577,3.9655,3.977,3.9817,3.9745,3.9794,3.9956,4.0293,4.076,4.1121,4.1201,4.1204,4.1173,4.071,4.0148,3.9882,3.9649,3.976,3.9786,3.9828,3.9859,4.0,4.0107,4.0232,4.0503,4.0815,4.0953,4.103,4.1201,4.1338,4.1191,4.1012,4.0965,4.0957,4.1395,4.1684,4.1419,4.1059,4.0955,4.0896,4.5283,4.5277,4.5219,4.5131,4.5028,4.501,4.4974,4.4882,4.4876,4.4876,4.4876,4.4876,4.4876,4.4876,4.4876,4.4876,4.4876,4.4876,4.4876,4.4914,4.4902,4.4896,4.4845,4.4808,4.4732,4.4667,4.4496,4.4257,4.4117,4.3721,4.3292,4.3051,4.2886,4.2424,4.1965,4.1905,4.1833,4.1609,4.0895,4.0253,4.0029,3.9922,3.9886,3.9779,3.9663,3.951,3.9002,3.866,3.8353,3.7854,3.7584,3.7614,3.769,3.7873,3.795,3.8014,3.8202,3.8427,3.8603,3.8696,3.9134,3.9491,3.9825,3.9985,3.9428,3.88,3.8713,3.8882,3.9799,4.0024,4.0093,4.0182,4.0223,4.0167,4.0142,4.0129,4.012,4.0279,4.039,4.0343,4.0365,4.0567,4.1065,4.1539,4.2556,4.2602,4.2448,4.2375,4.1897,4.1133,4.0857,4.0574,4.0514,4.0556,4.0454,4.0525,4.0781,4.0896,4.1027,4.1203,4.1643,4.1573,4.1342,4.1811,4.2278,4.1919,4.171,4.1818,4.1943,4.2103,4.2374,4.2463,4.2309,4.2041,4.1808,4.5283,4.5272,4.5219,4.5153,4.5085,4.5033,4.4974,4.4876,4.4876,4.4952,4.4914,4.4914,4.4952,4.499,4.5028,4.5028,4.5066,4.5255,4.4952,4.5066,4.5103,4.5255,4.499,4.5079,4.4959,4.4858,4.4706,4.4496,4.4301,4.398,4.3594,4.3123,4.3078,4.2827,4.2389,4.2348,4.2303,4.2236,4.1869,4.1181,4.0824,4.0208,3.9886,3.9958,3.9922,3.9948,3.9663,3.9582,3.9491,3.9294,3.9284,3.9197,3.9094,3.9186,3.9135,3.9041,3.9224,3.9489,3.9648,3.9848,4.0187,4.0538,4.0758,4.0874,4.0758,4.0339,4.0163,4.0359,4.0508,4.0587,4.069,4.0798,4.0892,4.0796,4.0781,4.0698,4.0661,4.0807,4.1009,4.0998,4.0998,4.1445,4.197,4.2677,4.3645,4.3833,4.3451,4.3202,4.2767,4.2221,4.2189,4.1878,4.142,4.1347,4.118,4.1512,4.191,4.2152,4.2338,4.2448,4.2508,4.2451,4.2421,4.2885,4.3168,4.2774,4.2661,4.3024,4.313,4.2978,4.29,4.2939,4.2995,4.2775,4.2608,4.539,4.538,4.5277,4.5203,4.5142,4.508,4.4978,4.5,4.5305,4.5483,4.5369,4.5141,4.5103,4.5407,4.5483,4.5748,4.5862,4.6051,4.6165,4.6089,4.5899,4.6095,4.5937,4.5558,4.5558,4.5426,4.4947,4.4654,4.4462,4.425,4.3918,4.349,4.3309,4.3041,4.2583,4.2464,4.2384,4.2308,4.2308,4.2047,4.1609,4.1145,4.0931,4.0967,4.0931,4.0778,4.0457,4.0396,4.0172,3.9993,3.9796,3.9737,3.971,3.9979,4.0076,4.0139,4.0313,4.0521,4.0624,4.0791,4.1036,4.1251,4.1323,4.1323,4.1163,4.0747,4.0558,4.0731,4.0731,4.0787,4.1166,4.1342,4.1561,4.1603,4.1889,4.2049,4.2036,4.2132,4.2206,4.2206,4.2608,4.3514,4.3889,4.4027,4.4801,4.4741,4.4405,4.4197,4.3718,4.3291,4.328,4.3131,4.2617,4.2144,4.1854,4.249,4.334,4.3529,4.3468,4.3322,4.3198,4.3385,4.3565,4.3577,4.3577,4.3499,4.3532,4.3613,4.3598,4.3343,4.3332,4.3383,4.3457,4.3609,4.3677,4.5503,4.55,4.5375,4.5267,4.523,4.5283,4.5258,4.5352,4.6006,4.6316,4.6278,4.5596,4.5748,4.6127,4.6392,4.6847,4.7074,4.6923,4.7157,4.7195,4.7188,4.6778,4.6512,4.6392,4.6019,4.5584,4.5123,4.4915,4.4745,4.4541,4.4272,4.3996,4.371,4.3407,4.294,4.271,4.2603,4.2414,4.2369,4.2415,4.2369,4.2333,4.2155,4.219,4.2226,4.1905,4.1476,4.1145,4.0788,4.0646,4.0457,4.0489,4.0556,4.0907,4.1009,4.1104,4.1403,4.1591,4.166,4.1625,4.1674,4.1736,4.1681,4.1641,4.1519,4.1371,4.1174,4.1023,4.1023,4.124,4.1619,4.2021,4.2275,4.2447,4.2827,4.3241,4.3241,4.3276,4.3276,4.331,4.4147,4.5087,4.5225,4.5376,4.5397,4.5371,4.5304,4.515,4.4905,4.4462,4.4224,4.4082,4.3681,4.322,4.2787,4.3186,4.4105,4.4159,4.4021,4.3944,4.3864,4.3835,4.3791,4.3717,4.3717,4.3754,4.3691,4.3658,4.3628,4.3815,4.3998,4.4118,4.4335,4.45,4.4812,4.5577,4.5518,4.5448,4.5375,4.5317,4.5854,4.6139,4.6187,4.6841,4.7157,4.7157,4.7074,4.7074,4.7188,4.7188,4.7453,4.7725,4.7687,4.7491,4.7378,4.7567,4.7119,4.6664,4.6506,4.583,4.5325,4.5009,4.4933,4.4846,4.4757,4.4469,4.4035,4.3912,4.3619,4.316,4.2948,4.2732,4.2622,4.2562,4.2588,4.2895,4.2731,4.2333,4.2297,4.2297,4.219,4.2083,4.2083,4.1976,4.1905,4.1787,4.1742,4.1721,4.1772,4.1787,4.1802,4.2102,4.2117,4.2079,4.2179,4.2182,4.2307,4.2338,4.2399,4.2242,4.2037,4.181,4.1557,4.1626,4.1968,4.2334,4.2861,4.316,4.3172,4.3414,4.3746,4.3919,4.3988,4.4022,4.4354,4.4928,4.5328,4.5328,4.5397,4.5397,4.5384,4.5384,4.5278,4.5177,4.511,4.5111,4.4831,4.4538,4.4503,4.4189,4.389,4.4418,4.4505,4.4598,4.4457,4.4313,4.4116,4.4058,4.4342,4.4149,4.4068,4.3957,4.4001,4.4306,4.4607,4.4772,4.4922,4.5121,4.5474,4.5836]}]]